GFSGL_500_spd_000.txt.gz
Wind_Speed
56 61 63 61 56 55 57 60 65 66 67 69 67 64 60 55 53 52 54 57 60 61 60 59 60 61 62 62 60 61 61 61 60 61 61 63 62 62 60 59 60 62 64
61 61 67 67 58 63 66 66 68 70 69 69 69 65 61 59 59 59 58 59 61 62 63 61 63 65 65 66 65 65 67 67 67 66 66 66 70 72 70 67 67 71 71
65 69 67 66 66 68 70 72 73 72 69 69 72 72 67 64 62 63 62 62 63 66 66 64 67 65 63 63 67 69 69 70 69 70 69 71 65 69 70 72 66 65 66
62 64 60 63 73 74 78 77 75 77 74 72 72 74 73 70 68 68 69 66 64 60 62 66 68 66 65 68 69 73 74 74 72 69 68 65 65 67 66 61 59 60 59
77 81 80 72 71 72 68 72 67 66 76 80 79 75 74 74 68 69 70 67 68 66 65 68 68 68 67 67 68 70 70 68 63 63 61 61 62 64 57 56 58 59 63
93 94 90 82 76 77 78 80 81 78 74 78 84 80 68 68 68 69 73 71 69 71 67 64 63 63 60 63 65 66 67 60 58 58 60 59 61 59 62 62 64 63 70
89 87 82 79 78 79 81 82 84 84 81 77 75 73 74 73 71 73 74 76 72 72 67 67 63 60 63 62 64 65 62 56 57 60 62 64 65 65 70 74 76 72 72
85 80 80 79 80 88 87 88 88 86 84 84 79 77 74 78 74 79 76 73 72 70 67 69 64 65 70 72 70 65 53 58 63 66 69 71 70 74 76 79 78 73 79
86 89 83 86 84 86 88 91 97 98 93 90 88 83 76 77 80 76 69 69 68 67 67 64 67 64 64 58 68 67 61 63 64 63 69 72 73 75 79 77 77 80 81
96 90 84 88 88 89 90 89 81 89 97 94 93 80 76 77 74 77 80 56 64 67 62 55 59 54 56 55 57 62 65 69 66 65 67 68 70 77 80 83 87 88 88
90 88 88 90 90 86 84 71 69 66 67 78 79 82 80 84 80 67 65 67 64 63 55 62 59 63 61 58 63 66 71 73 68 70 70 71 76 79 81 84 90 95 96
93 92 92 82 81 81 80 69 72 67 63 64 64 63 63 61 62 64 65 61 63 62 60 63 68 66 68 65 65 65 73 75 69 74 77 76 77 82 88 87 90 92 90
98 93 90 85 76 70 70 67 65 69 67 68 73 75 67 60 57 56 64 66 67 60 57 60 65 65 73 68 68 67 67 73 76 76 81 81 82 84 80 83 84 87 86
105 99 96 94 79 72 71 76 75 74 73 75 71 66 69 62 62 59 59 60 69 55 59 61 70 68 66 67 67 69 73 77 77 79 81 82 83 78 75 82 82 82 78
102 112 112 112 108 96 93 91 85 85 83 76 77 68 69 72 71 77 74 68 61 59 61 68 69 60 66 77 77 69 76 77 77 75 70 76 78 79 76 78 78 74 71
96 97 99 109 113 118 112 104 94 85 83 86 72 69 70 72 78 77 67 78 71 71 68 64 69 73 68 75 75 66 69 70 72 77 81 77 74 72 74 73 70 67 67
85 87 91 94 98 98 107 103 90 86 86 90 79 69 69 77 85 79 83 82 77 75 78 70 76 74 77 81 85 78 73 75 80 78 70 72 70 68 68 66 61 63 64
70 72 76 79 83 80 84 91 90 90 91 96 91 73 69 74 85 85 76 74 78 80 74 77 77 71 66 67 71 74 77 81 76 73 74 70 63 58 58 57 59 62 65
60 61 62 64 68 72 71 75 86 96 96 97 86 78 76 79 82 76 76 70 71 67 69 70 71 72 69 79 81 83 78 77 74 70 70 62 57 56 54 55 59 64 67
49 51 53 56 58 59 61 63 70 82 95 106 104 95 84 84 81 92 86 81 77 75 81 86 74 69 72 76 80 81 79 74 67 67 60 54 54 53 54 56 61 64 66
38 40 42 43 45 47 49 48 50 52 57 62 75 79 78 85 86 90 95 94 89 90 86 81 81 70 71 72 66 63 64 62 57 53 49 51 53 53 55 59 62 65 66
26 25 27 30 32 34 36 37 40 40 42 47 52 56 62 68 74 77 70 65 64 65 65 61 63 61 57 55 51 53 57 59 53 49 49 49 51 53 57 61 63 66 67
15 16 16 18 18 18 21 27 31 33 33 36 41 43 46 45 46 49 51 49 48 45 46 47 48 49 50 51 50 51 52 48 46 43 44 48 52 56 60 62 65 68 70
12 8 11 13 14 15 13 13 13 17 24 27 25 24 23 23 28 35 37 38 41 45 45 45 43 44 45 44 45 47 46 43 42 43 46 50 54 59 62 64 67 70 73
14 13 14 15 17 18 19 18 21 22 22 26 29 30 28 31 34 34 31 35 38 40 38 38 42 42 41 41 42 44 39 40 43 46 49 53 57 61 64 66 69 72 76
10 8 7 6 7 9 11 15 20 24 23 26 27 29 28 28 29 30 31 33 34 35 37 38 38 40 40 37 37 35 37 41 45 49 53 56 59 62 65 68 71 75 79

GFSGL_500_spd_006.txt.gz
Wind_Speed
67 62 62 64 65 67 70 71 75 78 77 73 70 65 66 68 68 69 63 59 61 60 59 55 54 55 57 59 60 60 60 58 58 56 54 53 51 50 51 52 52 53 53
65 63 66 68 68 70 72 72 72 73 73 70 70 67 62 63 68 69 67 62 64 66 64 64 63 64 65 62 61 59 59 60 60 59 58 56 55 54 52 51 52 52 55
70 70 72 75 75 77 77 76 76 76 75 73 71 67 66 65 69 71 70 69 70 75 73 70 70 70 71 67 65 59 59 60 60 60 61 59 57 55 52 53 55 57 58
80 82 81 79 77 76 84 82 83 81 78 78 77 77 74 74 77 76 77 76 76 76 75 75 75 73 73 72 68 62 59 60 62 62 61 59 57 56 55 53 55 56 57
92 88 84 83 79 79 80 86 91 90 88 84 84 85 84 81 81 82 83 84 83 83 84 83 82 73 72 75 71 69 63 62 59 61 62 62 59 58 59 59 59 56 53
92 91 88 86 87 85 87 86 88 98 99 92 89 90 87 84 84 86 86 84 87 83 81 81 81 78 73 73 68 66 63 63 60 60 62 64 64 63 62 61 59 57 56
94 95 97 98 95 95 93 93 86 91 97 100 93 89 87 88 87 85 88 93 92 85 82 84 81 82 78 76 71 68 67 65 63 62 63 65 67 67 67 62 59 57 59
97 99 100 103 104 101 99 99 103 98 96 96 97 94 90 89 87 86 90 91 86 85 75 76 80 81 75 73 71 69 65 67 66 67 70 69 71 73 69 66 62 61 62
97 97 98 99 100 103 105 104 105 107 105 100 98 93 93 90 88 84 82 86 84 80 81 80 78 78 71 72 72 72 73 72 70 71 74 77 75 70 67 66 67 66 67
92 92 94 98 99 100 101 103 105 108 107 108 107 104 99 93 91 88 87 88 84 82 83 81 85 77 81 74 77 78 79 74 74 75 78 78 70 68 67 67 65 65 66
94 94 94 94 95 95 97 98 100 103 107 105 101 104 107 100 96 97 92 92 84 85 86 82 82 83 84 85 72 80 74 76 80 83 81 74 73 69 68 69 65 64 61
95 95 95 94 94 94 95 95 95 97 99 99 103 102 100 102 104 98 90 89 88 84 84 80 79 77 71 74 75 74 76 75 83 80 75 76 69 68 65 65 63 65 64
91 91 92 93 93 93 95 97 100 100 100 97 96 96 95 93 93 95 103 90 85 74 77 77 78 76 74 72 72 73 79 74 77 79 79 74 70 71 65 63 66 65 67
82 80 81 83 84 85 89 91 94 96 98 100 100 94 89 91 89 88 88 91 87 85 75 76 74 75 76 70 69 72 73 75 74 80 77 73 78 68 61 63 66 66 69
69 69 70 71 71 72 74 77 82 85 90 94 96 96 92 88 85 85 90 88 85 82 75 74 76 75 70 71 65 70 67 60 64 65 72 69 68 65 65 67 65 66 63
65 64 62 61 59 58 58 58 63 68 74 78 84 88 87 86 86 84 81 83 83 85 75 76 79 74 69 79 67 64 59 55 60 64 64 64 68 66 73 73 72 72 70
55 56 55 53 51 50 52 54 50 51 53 60 66 69 74 75 79 82 79 80 83 85 80 69 79 72 72 80 77 67 66 69 69 69 68 72 75 79 76 74 73 81 86
52 48 46 46 47 46 47 47 48 48 48 51 52 54 59 63 67 73 75 76 79 84 78 80 79 73 72 72 77 72 62 66 70 73 73 79 82 84 80 76 76 77 80
41 38 38 43 47 47 47 45 42 42 44 45 48 47 48 51 55 62 69 72 75 79 83 81 80 75 71 68 66 69 68 69 73 75 73 76 71 66 71 71 71 68 66
39 37 38 40 36 33 34 33 33 33 34 36 39 41 42 44 47 55 63 66 72 75 77 79 76 72 72 70 68 66 70 70 69 70 66 63 58 56 55 57 59 67 72
33 35 32 29 24 23 22 20 20 21 24 26 30 31 34 37 41 48 53 60 67 72 73 77 77 65 66 68 69 66 62 59 59 63 63 64 64 63 62 62 65 66 68
30 30 29 24 24 24 27 27 20 16 15 17 21 25 27 30 34 38 43 50 57 63 68 71 73 69 63 62 62 68 67 63 62 62 62 63 61 61 62 65 67 66 68
29 25 26 25 21 21 22 22 27 28 13 13 17 20 21 23 25 28 34 39 44 48 54 57 62 64 61 63 60 59 60 61 61 61 61 59 58 59 61 62 62 61 60
38 38 31 24 23 22 18 16 18 20 24 19 8 3 6 9 13 17 20 26 32 38 44 46 51 54 57 56 53 53 55 56 56 56 57 58 58 58 56 56 55 54 56
36 38 39 39 34 24 20 19 15 13 15 16 11 11 9 5 5 7 9 13 19 24 32 42 46 46 47 47 47 50 55 52 52 52 53 51 51 51 51 49 49 52 54
32 34 36 37 36 35 32 23 15 12 9 10 10 7 4 3 1 3 7 9 13 17 22 27 35 47 50 48 46 44 43 43 43 44 44 44 45 45 45 47 49 51 53

GFSGL_500_spd_009.txt.gz
Wind_Speed
68 66 69 74 74 78 80 80 80 74 76 82 76 73 74 75 80 82 79 74 72 66 67 71 72 68 67 66 67 66 65 59 55 56 59 58 57 55 57 58 56 54 51
71 71 69 70 77 82 85 83 83 77 79 78 79 78 75 74 75 78 78 78 77 72 67 69 69 66 65 67 70 66 63 59 57 58 58 62 63 62 59 59 58 55 53
73 77 77 74 78 80 81 79 78 79 80 83 81 79 79 82 79 76 78 75 77 77 71 68 69 70 70 71 71 69 67 65 65 60 59 60 63 61 61 61 60 58 57
81 80 83 80 83 84 85 85 83 77 77 81 84 82 80 82 84 84 82 83 78 75 75 73 72 74 74 72 74 75 72 71 66 60 60 58 58 61 59 59 55 54 55
86 88 89 89 90 89 89 90 92 91 90 86 86 86 88 88 84 87 85 86 87 84 80 78 79 79 80 80 78 77 71 70 69 67 65 59 59 61 62 59 57 53 53
94 94 95 94 94 95 94 95 98 99 97 94 91 93 91 88 91 97 89 89 89 88 87 81 85 89 88 85 78 75 75 73 73 70 71 65 63 58 59 59 58 54 53
97 98 99 99 98 98 100 100 99 98 98 97 97 96 98 95 91 91 95 93 94 92 89 89 89 80 79 83 79 72 75 79 79 76 74 66 67 63 64 60 59 60 57
96 97 99 101 102 102 104 106 107 108 106 104 101 100 100 101 101 97 97 97 99 95 93 94 94 92 87 78 81 85 81 81 75 80 79 73 71 69 69 63 60 63 60
92 92 92 94 97 99 101 103 106 109 110 110 108 105 102 102 105 108 107 105 102 100 100 93 95 100 96 92 89 89 76 71 72 76 79 76 73 74 76 70 64 63 61
85 88 89 91 93 94 95 96 98 101 105 107 109 108 107 105 99 102 108 109 109 104 96 96 94 89 86 88 89 83 75 71 69 81 83 80 74 78 76 72 68 67 68
84 86 88 91 92 93 93 93 95 95 96 97 101 103 105 105 104 101 101 108 111 112 106 97 87 89 87 86 82 79 76 78 77 78 75 79 84 86 84 75 74 74 72
83 85 86 88 90 91 92 91 93 95 96 95 96 96 96 97 98 98 98 99 104 112 112 103 95 93 90 90 85 81 79 86 85 85 80 79 83 80 77 76 74 72 71
80 79 79 79 79 79 79 79 79 82 86 87 89 92 92 94 95 93 93 90 92 100 107 106 97 94 91 92 90 88 84 84 83 84 84 80 76 77 80 74 72 72 72
70 68 63 59 59 63 66 68 70 70 72 74 76 78 81 83 87 90 93 90 86 90 92 95 95 92 92 92 93 91 89 88 82 83 83 77 74 75 73 72 80 76 74
60 56 47 50 58 65 68 70 69 67 65 66 68 66 65 68 72 77 84 87 86 87 88 87 89 89 89 91 89 89 84 86 84 87 83 75 71 73 76 80 84 82 82
49 44 48 53 59 59 55 53 55 57 58 58 56 55 52 52 56 62 68 72 79 82 88 87 83 82 82 82 86 87 81 84 81 79 77 75 71 70 74 78 80 83 78
47 49 54 54 55 56 57 56 55 55 57 53 51 51 47 43 45 49 53 58 63 72 80 82 79 77 78 79 79 80 90 89 82 76 79 73 75 78 73 69 71 72 70
50 50 42 48 52 53 52 49 46 46 46 51 52 45 43 42 41 40 42 47 54 61 68 73 74 73 77 79 79 83 79 83 78 79 84 80 79 83 76 65 62 63 63
40 38 38 44 47 45 38 36 38 35 32 31 36 39 37 37 39 40 38 38 42 47 53 62 68 71 75 79 82 80 80 77 80 78 84 84 76 81 70 65 63 64 67
41 32 31 35 38 37 36 34 37 38 30 27 25 25 27 28 29 30 33 36 39 43 50 57 63 70 75 79 80 75 78 76 76 69 72 71 68 74 76 65 64 64 70
33 36 35 33 33 35 34 32 32 39 33 24 22 20 19 19 21 24 27 32 35 41 47 50 57 64 71 80 79 76 69 73 66 67 69 64 58 62 69 63 60 62 67
31 33 35 37 35 30 31 31 30 32 36 29 21 17 16 17 16 18 22 27 30 35 41 44 49 57 63 68 74 71 67 64 63 58 63 62 61 56 58 57 58 58 60
30 33 35 37 36 35 32 28 29 28 29 31 29 19 12 12 13 15 17 21 25 30 33 35 39 43 48 59 68 64 59 56 55 57 56 57 58 58 56 55 56 60 60
28 31 34 36 37 37 35 34 28 25 23 23 22 24 22 13 9 8 10 13 16 20 23 26 30 34 39 46 57 62 51 49 48 48 51 50 53 56 57 57 59 59 59
28 31 34 36 37 38 38 36 34 30 20 17 17 16 15 13 11 10 7 3 5 9 13 16 21 24 28 31 43 51 52 46 42 43 43 43 45 47 49 51 53 54 54
29 32 34 36 37 37 36 38 37 34 29 20 14 13 11 6 5 7 6 6 6 7 7 9 15 21 19 19 24 34 38 40 38 40 43 44 44 45 47 50 50 50 51

GFSGL_500_spd_012.txt.gz
Wind_Speed
73 73 76 77 75 74 76 76 79 80 82 83 85 85 82 77 77 78 79 77 77 78 77 75 75 79 79 73 71 71 70 70 70 72 73 72 72 68 63 60 56 52 51
75 78 81 82 80 79 81 78 76 76 84 90 90 90 88 87 87 86 84 83 78 78 80 79 76 77 79 78 76 75 73 75 74 73 75 75 75 71 66 60 57 55 55
86 89 88 85 82 78 78 81 80 79 83 84 88 94 92 91 86 84 87 85 82 83 85 81 80 79 78 78 79 78 75 74 75 75 76 76 76 75 69 61 57 55 53
94 93 92 90 87 88 90 88 85 87 88 89 88 86 89 91 91 88 89 84 80 79 84 81 79 82 80 79 78 79 77 75 75 77 79 78 79 77 73 68 62 56 55
100 100 98 95 92 92 93 93 92 90 91 94 96 96 93 93 97 96 94 87 83 81 81 78 78 78 82 81 82 77 80 78 77 78 83 83 81 78 75 66 61 59 58
100 99 99 99 98 98 98 99 99 99 98 97 98 100 100 98 101 101 96 93 95 91 84 84 86 79 79 80 80 83 80 83 81 80 84 86 82 80 78 75 68 64 58
86 87 88 90 92 93 95 98 101 102 104 104 104 104 103 103 103 104 105 104 101 96 95 91 90 88 87 89 79 81 81 82 88 87 84 85 86 83 78 77 73 67 59
79 80 81 83 86 88 90 93 96 100 103 104 106 108 110 107 106 106 107 108 108 105 102 95 94 93 91 92 95 85 85 80 79 88 84 82 85 81 78 78 75 74 65
76 77 80 82 84 85 86 88 90 94 96 98 99 101 103 106 107 110 111 111 112 111 109 106 103 98 96 93 92 97 88 87 88 82 78 85 82 78 76 75 77 74 70
74 77 80 82 85 86 86 86 87 88 89 90 90 91 93 95 95 100 104 110 112 113 112 111 108 105 102 102 99 95 99 89 82 85 90 82 79 80 80 73 74 73 73
75 78 80 82 85 86 85 85 85 85 85 84 85 86 89 92 90 93 96 101 103 105 107 110 110 110 108 108 108 104 96 98 99 89 89 97 96 94 91 74 73 82 81
77 79 80 81 80 80 79 76 73 69 64 62 65 68 71 76 83 89 94 99 100 100 96 99 103 106 108 109 111 109 104 100 100 105 98 87 85 84 77 76 68 73 73
73 74 72 71 69 67 63 58 54 54 61 65 69 72 71 73 70 70 73 84 93 98 95 91 91 95 101 107 107 107 106 104 100 99 102 92 87 86 84 70 78 78 73
69 64 60 59 59 59 52 53 58 65 67 69 72 71 66 61 66 69 67 69 73 80 89 92 90 90 93 99 100 103 105 103 102 96 93 92 91 89 83 77 78 77 76
57 52 51 53 53 50 52 54 53 63 67 67 67 63 60 57 53 57 61 61 64 66 73 79 85 87 89 89 91 93 95 98 98 98 95 93 86 89 83 84 85 81 83
43 41 42 46 48 45 39 39 50 56 57 56 57 56 51 51 53 49 50 50 50 53 58 60 67 74 82 84 85 83 86 87 88 91 94 92 96 91 89 87 82 84 81
34 35 37 39 36 34 36 40 46 50 52 54 60 53 46 42 42 46 43 43 43 46 50 53 55 60 68 77 80 80 81 81 82 86 89 92 91 91 89 85 85 88 86
33 34 35 35 36 39 43 46 46 46 47 47 57 47 38 35 33 34 37 37 37 38 41 43 45 51 57 65 70 75 78 80 81 83 85 85 86 82 80 85 85 83 89
32 31 30 32 36 39 41 40 41 43 46 47 52 42 35 30 27 25 27 29 30 31 31 28 33 41 47 55 62 68 75 78 81 82 82 83 80 78 79 75 79 84 89
30 29 30 31 33 35 38 39 39 40 42 43 46 45 34 28 23 20 19 21 24 28 31 32 33 38 43 47 53 60 68 75 78 79 79 78 75 72 71 75 74 78 78
27 28 29 30 33 35 36 38 38 38 38 39 41 43 41 29 23 19 16 16 20 24 27 30 32 33 37 42 46 52 59 66 72 74 76 78 74 76 72 67 67 68 72
26 27 29 30 33 36 38 38 38 38 38 36 35 35 36 34 25 20 17 15 16 20 22 23 24 27 30 34 39 43 48 54 62 65 70 74 70 68 68 70 64 62 64
25 27 29 31 34 38 41 41 40 39 39 36 32 30 28 28 28 23 18 16 15 15 16 17 19 22 25 28 30 34 38 42 50 57 60 59 61 62 60 60 59 60 56
23 25 29 32 35 37 40 42 43 42 40 37 32 27 23 22 22 22 22 18 14 13 12 12 14 16 18 20 22 25 29 34 38 44 58 51 51 51 53 55 60 59 60
24 27 30 32 35 38 40 42 42 43 43 40 33 29 22 19 18 17 18 18 16 14 11 6 6 9 12 13 15 17 23 29 36 32 42 41 42 47 48 45 46 47 47
24 28 30 33 36 38 40 41 41 41 41 39 33 28 27 20 17 17 17 16 17 14 11 8 6 6 6 6 13 16 18 21 32 37 32 36 37 39 40 39 39 38 38

GFSGL_500_spd_015.txt.gz
Wind_Speed
74 74 75 71 73 73 73 74 78 80 81 82 80 79 77 79 84 87 87 88 87 85 87 88 88 85 85 81 80 80 81 79 80 76 72 69 67 64 64 67 69 70 69
83 79 78 76 75 76 79 79 80 84 86 86 88 89 88 84 84 83 85 92 93 92 87 85 89 90 89 87 83 82 83 81 81 79 76 74 72 69 67 68 72 72 71
89 91 93 94 93 93 90 90 89 90 95 94 95 94 95 94 90 87 84 86 86 92 96 93 88 90 92 91 90 89 86 86 85 85 80 78 76 76 73 71 72 74 75
99 99 100 101 102 102 104 103 102 100 99 98 96 93 91 93 97 96 93 92 92 93 95 92 93 92 87 91 91 91 92 91 89 85 84 82 79 79 80 77 77 77 77
100 100 100 100 99 99 100 101 100 101 101 102 103 102 99 96 97 100 102 101 99 99 99 99 98 92 90 87 88 85 88 87 86 87 86 84 80 79 81 79 75 79 79
90 89 88 87 85 84 84 84 86 88 90 93 93 96 99 99 100 102 103 105 106 103 102 104 102 99 95 95 94 88 87 80 78 77 77 78 76 77 78 79 79 80 81
79 77 76 77 77 78 78 80 81 83 85 87 88 91 93 94 97 101 104 109 110 110 108 106 107 104 101 98 97 99 94 89 84 77 75 71 76 74 74 77 82 80 80
66 68 70 72 74 76 77 78 79 80 80 81 82 84 86 86 89 94 99 105 107 109 110 112 112 110 107 104 103 99 98 94 95 87 80 74 70 73 75 74 82 86 86
66 68 71 73 76 78 80 81 82 83 83 83 83 84 85 83 86 88 91 93 94 97 101 105 110 113 113 111 110 109 102 96 92 96 90 82 81 76 73 75 79 86 89
68 70 72 75 77 79 79 79 81 82 82 82 81 81 81 81 83 86 88 91 91 92 91 93 96 102 107 113 114 113 113 105 98 93 93 91 86 85 86 79 73 79 88
69 72 74 76 78 79 76 74 73 73 71 68 66 62 60 60 61 64 68 70 75 82 88 91 91 90 93 100 107 113 114 110 107 102 98 94 93 91 91 88 79 75 75
70 72 74 73 72 71 69 66 65 62 54 49 46 47 51 55 64 70 75 78 79 78 79 81 86 90 91 91 96 101 106 109 112 109 104 99 95 94 91 91 92 81 80
69 68 66 69 66 61 56 56 57 52 46 44 47 42 49 59 68 68 73 81 86 85 82 79 79 80 85 89 90 92 95 102 106 109 107 103 97 95 95 93 91 92 87
62 63 65 63 54 49 48 52 57 50 42 40 42 51 52 57 57 62 64 69 71 75 70 69 71 73 72 74 79 86 91 94 97 101 103 99 99 99 97 96 96 91 94
61 61 61 51 44 40 41 43 43 42 43 45 50 49 51 55 61 64 57 53 54 57 60 58 57 62 65 60 62 69 81 90 93 93 94 96 98 99 98 98 97 97 94
59 59 53 42 38 40 40 37 41 40 41 44 46 49 52 55 61 56 49 46 47 45 47 49 48 47 52 58 58 56 62 74 87 90 90 90 93 94 94 95 95 95 93
56 52 43 38 37 35 34 35 34 37 43 43 43 45 48 51 58 54 46 44 42 36 35 38 38 38 40 44 45 49 51 60 73 84 88 89 88 88 90 91 90 90 93
49 45 38 36 35 33 31 32 35 36 38 43 47 46 47 49 53 53 44 39 34 31 26 29 31 31 34 39 43 48 51 56 64 72 80 84 86 86 84 83 84 85 87
45 39 35 35 32 32 31 31 33 36 38 41 43 45 44 46 48 52 43 35 29 26 23 24 26 29 30 32 37 40 44 50 56 62 68 76 79 81 80 78 79 81 85
41 33 33 32 31 31 30 32 34 35 37 39 41 43 42 41 42 45 43 34 28 24 21 21 24 27 29 29 31 34 38 42 47 53 58 64 71 75 77 75 75 78 79
35 29 30 30 30 30 31 34 36 38 39 39 40 41 44 39 38 37 38 35 28 23 20 19 20 23 25 27 29 30 32 35 39 43 47 53 59 66 70 72 72 72 75
28 25 27 28 28 29 31 35 39 41 43 41 41 42 41 41 34 32 31 31 31 25 21 19 18 20 22 24 26 26 27 28 30 34 38 42 49 56 62 66 69 71 69
22 23 25 26 27 29 31 35 39 42 44 44 44 44 42 37 33 29 27 27 27 27 27 21 18 18 17 17 18 20 20 21 23 26 31 35 40 45 52 56 59 64 64
20 21 22 24 27 29 31 36 39 42 43 44 45 44 38 33 32 26 24 24 24 25 24 22 16 14 14 13 14 15 17 18 20 23 25 26 28 32 41 47 52 57 61
18 19 20 23 26 29 32 36 39 40 42 42 40 37 34 31 30 28 22 21 21 23 23 20 16 15 14 12 11 10 12 15 17 20 25 25 26 27 36 37 39 46 48
16 17 20 23 26 29 32 35 37 39 40 37 34 32 28 27 29 30 25 19 19 19 20 20 17 13 11 10 10 10 12 14 16 16 26 20 28 33 34 37 34 36 41

GFSGL_500_spd_021.txt.gz
Wind_Speed
72 73 75 77 78 79 79 80 84 89 90 91 90 89 91 91 93 96 94 93 87 84 85 88 89 88 88 88 87 86 90 96 104 100 95 89 85 81 79 80 80 79 77
76 78 79 81 82 83 85 87 88 90 92 93 93 93 93 93 94 97 96 96 97 91 89 91 93 93 93 92 90 90 93 91 97 104 98 97 92 88 85 82 81 82 81
83 84 85 86 87 88 90 91 92 92 94 95 96 96 97 97 97 98 101 103 103 105 106 103 104 103 102 99 99 98 95 96 98 101 99 95 95 94 93 89 83 82 83
85 86 88 88 89 89 90 91 91 92 92 92 93 93 94 95 96 98 99 101 104 104 106 109 109 107 106 105 105 104 103 101 99 101 102 98 96 91 92 91 90 84 83
84 86 86 87 89 90 91 90 89 88 87 86 85 84 85 86 89 92 95 97 100 101 102 104 107 109 110 110 109 108 107 106 106 105 103 105 103 100 94 91 90 87 86
85 87 88 88 87 85 81 77 74 71 70 69 70 72 72 74 77 79 83 85 87 89 91 93 95 98 103 108 111 113 113 112 110 109 109 109 104 105 103 99 96 92 88
86 84 81 76 73 70 67 66 64 64 65 67 71 74 76 76 78 78 79 79 79 79 81 83 85 87 90 93 96 102 108 110 112 111 112 111 110 106 107 107 102 99 92
75 69 66 64 64 62 62 63 64 66 69 72 74 76 75 76 76 75 75 74 73 72 73 74 74 74 76 81 85 88 90 93 98 103 109 109 109 107 107 106 105 103 101
64 62 61 61 61 61 63 65 67 69 71 75 75 75 74 72 71 69 70 70 70 69 69 69 69 70 70 73 77 78 80 82 87 92 95 100 105 109 110 108 110 108 105
61 60 60 61 62 63 64 65 68 70 72 74 70 71 68 65 64 62 61 62 58 53 49 48 48 48 49 53 57 61 65 69 78 87 91 94 95 100 108 112 112 111 109
59 61 62 63 63 64 65 67 69 71 71 70 67 63 62 59 52 50 50 47 45 42 42 45 48 51 56 62 64 66 68 69 73 79 83 89 93 94 96 104 111 113 110
58 60 62 63 64 65 66 68 70 70 70 67 63 58 54 46 46 46 45 41 41 43 46 50 53 57 58 63 69 73 76 78 84 85 86 88 89 91 92 94 99 106 109
58 60 60 62 64 66 67 68 69 70 68 65 59 53 42 42 42 42 43 44 44 43 44 45 47 50 55 60 66 71 76 80 80 78 79 81 85 89 86 90 93 95 100
59 60 63 64 65 65 66 68 67 66 63 61 54 42 38 39 41 40 41 42 44 45 46 47 49 52 56 61 64 66 69 70 69 67 66 70 76 79 86 82 84 89 93
61 63 63 62 63 64 65 64 63 61 62 56 45 37 37 37 38 38 40 42 45 47 48 50 51 54 56 60 61 60 57 57 57 56 54 59 64 68 73 82 79 74 81
63 62 61 62 63 63 62 59 59 59 57 51 37 35 35 37 38 40 42 45 47 49 51 51 52 53 55 57 57 54 49 45 42 39 40 42 46 53 57 71 78 76 71
61 61 60 60 60 60 58 58 55 51 54 46 35 34 36 36 38 41 44 48 50 51 52 52 52 50 50 53 50 45 43 40 34 33 34 34 34 38 44 56 68 72 68
60 59 57 57 55 55 55 56 56 54 45 38 37 34 35 35 38 42 46 49 51 52 53 53 49 43 42 45 46 40 36 36 29 29 28 29 31 37 42 47 54 61 64
55 51 48 50 52 55 57 56 52 46 37 32 32 34 34 36 39 42 45 48 50 52 52 48 41 36 37 39 43 39 33 30 27 25 25 26 27 29 32 37 42 47 53
47 45 47 49 52 54 55 53 47 39 30 29 28 30 32 37 39 42 45 46 48 48 45 42 35 32 34 35 39 36 32 29 27 27 23 23 25 25 26 29 33 38 44
43 46 48 51 53 53 51 48 39 29 27 27 28 28 32 35 38 40 41 43 43 41 41 39 31 29 31 32 32 34 30 28 27 28 29 28 28 27 29 33 36 39 42
48 50 51 54 53 48 46 37 28 25 24 25 27 29 31 33 36 37 38 38 38 37 38 34 27 27 28 29 30 31 29 26 25 25 26 28 30 31 30 30 31 34 38
51 52 53 55 49 42 38 29 24 23 23 25 26 28 29 31 32 33 33 35 34 33 35 35 28 28 29 28 28 25 24 24 23 23 24 25 26 29 29 28 28 30 34
50 51 53 53 45 37 33 25 23 22 22 24 25 26 27 28 29 30 30 32 33 30 30 32 31 27 27 26 27 24 22 24 24 23 21 21 22 23 25 27 28 30 32
56 55 53 46 39 33 27 23 22 20 22 22 23 23 25 26 26 27 28 28 28 28 28 28 29 28 25 24 24 22 21 21 23 24 21 20 17 17 20 21 24 27 30
58 53 46 37 32 28 25 22 20 19 20 20 21 21 24 25 26 27 27 26 27 27 27 26 25 26 27 25 23 22 20 20 21 23 19 17 17 17 17 15 12 15 23

GFSGL_500_spd_024.txt.gz
Wind_Speed
70 70 70 70 72 74 75 77 80 82 84 86 88 89 91 92 92 93 95 95 96 98 100 101 99 99 97 96 97 98 98 100 104 102 90 84 87 88 86 85 84 83 82
69 70 72 74 75 77 79 81 82 84 86 88 89 91 92 93 94 95 96 97 97 97 97 97 99 101 103 102 100 99 98 99 104 108 105 93 87 83 86 88 87 87 89
72 73 74 77 79 81 83 84 86 87 88 89 89 90 91 92 94 95 95 95 96 96 97 97 97 99 100 102 104 104 102 102 101 107 111 108 97 91 87 87 88 90 90
74 75 77 79 81 82 85 86 87 88 88 89 91 92 92 92 92 92 91 90 90 90 92 94 96 97 99 101 102 104 107 105 106 105 108 107 107 102 98 95 92 89 90
76 76 78 80 81 83 85 86 88 89 90 89 86 83 80 78 77 77 77 77 79 80 81 84 86 88 90 92 97 100 106 108 109 108 107 110 108 108 105 101 100 98 94
76 78 80 82 83 85 86 87 85 81 76 72 70 68 68 67 69 71 73 76 77 79 79 79 80 81 83 85 87 89 92 97 103 107 110 110 106 107 109 108 104 103 101
78 80 81 83 84 83 79 74 70 67 65 63 64 64 65 68 71 73 75 75 73 73 72 71 71 72 73 75 76 78 80 83 87 90 96 98 102 103 110 111 111 110 105
81 81 82 80 75 71 67 64 61 61 61 62 63 65 67 69 70 71 72 73 71 70 67 66 67 68 68 69 69 70 71 74 76 79 82 85 89 92 96 101 107 113 113
80 78 74 70 67 64 61 60 60 61 62 64 64 65 66 68 71 72 72 71 67 65 64 65 64 64 59 57 55 55 56 56 62 68 72 75 78 81 84 89 94 100 110
74 68 65 62 61 60 61 61 62 62 62 63 64 66 68 69 71 71 70 66 63 61 58 53 51 53 50 49 48 47 47 50 52 53 54 57 61 65 71 79 85 89 93
62 60 59 59 59 60 60 62 62 63 63 65 66 67 68 70 69 67 63 61 57 51 48 45 45 44 44 47 49 50 53 55 57 59 61 62 63 66 69 72 74 80 86
57 57 57 57 58 58 59 61 62 64 66 67 67 67 68 67 63 60 58 52 47 45 43 41 41 43 43 44 46 49 52 55 57 60 63 65 68 71 75 78 81 82 81
55 55 57 57 58 59 61 63 65 67 67 67 67 67 63 58 59 55 48 43 42 43 43 43 45 46 46 46 48 51 54 57 60 62 65 66 70 73 75 78 81 87 91
55 56 57 58 60 62 63 65 65 65 65 66 65 61 57 56 53 50 42 41 42 43 42 43 44 45 46 48 50 52 55 58 61 64 65 65 65 65 66 68 72 78 83
56 59 60 61 62 62 62 62 63 63 64 62 61 59 57 52 50 43 40 39 40 41 41 43 45 47 49 50 52 54 57 59 60 61 62 58 56 52 48 51 55 59 63
60 60 61 61 62 61 60 59 58 58 58 59 61 61 58 53 45 38 37 38 39 41 44 46 49 50 51 52 53 54 54 53 53 54 52 47 44 43 42 43 41 44 48
59 59 60 60 61 60 57 55 51 50 55 58 61 60 56 49 37 35 35 38 40 43 46 49 50 51 52 54 55 50 44 45 47 51 45 39 38 35 34 36 39 36 35
61 62 63 63 61 56 53 49 48 51 53 56 59 54 51 41 33 33 34 37 40 44 47 49 51 52 53 51 48 42 37 41 44 47 40 36 33 32 26 28 31 33 34
63 62 61 59 54 51 45 45 47 50 54 54 53 51 40 31 30 31 32 34 39 42 44 47 48 48 46 44 38 32 34 38 40 42 36 33 31 30 30 24 21 25 28
59 58 55 52 49 45 44 45 50 51 53 50 47 38 30 29 31 31 32 35 37 39 42 42 42 42 42 38 29 30 32 36 37 39 34 30 29 30 30 29 24 18 19
63 61 55 50 49 48 48 48 51 51 49 45 38 26 26 27 28 29 31 33 34 36 36 37 36 38 40 35 31 32 32 35 33 30 30 28 26 27 28 29 29 27 23
65 61 55 52 51 51 50 49 49 49 43 40 29 26 25 26 26 27 29 30 32 32 32 33 33 34 37 35 30 31 33 33 31 29 29 29 27 24 24 25 26 29 31
65 58 55 56 56 54 50 47 46 46 39 33 26 26 26 25 25 26 27 29 30 29 30 30 31 31 33 34 32 28 25 28 27 26 27 32 29 25 22 22 22 22 25
67 63 61 59 56 54 51 48 45 43 35 28 26 25 24 23 23 24 25 27 28 28 28 28 29 29 30 31 31 29 27 27 26 27 27 32 30 23 20 16 16 18 19
72 69 67 64 61 58 54 49 43 37 29 26 25 23 21 21 22 22 23 25 27 29 29 29 28 29 29 30 29 28 28 27 26 26 26 30 26 21 17 16 14 15 17
65 62 58 55 53 50 45 40 36 30 26 25 23 20 19 19 21 21 22 24 26 29 30 30 29 30 30 29 29 27 26 26 27 26 26 26 26 19 15 12 9 8 10

GFSGL_500_spd_027.txt.gz
Wind_Speed
73 73 71 69 69 70 70 71 72 73 74 74 75 77 79 82 84 86 87 89 90 91 93 93 93 93 93 95 98 101 103 107 109 105 103 97 94 86 83 83 82 84 86
72 71 69 69 69 70 71 72 74 75 77 78 79 81 82 84 85 87 88 89 89 91 92 93 94 95 95 95 95 95 97 100 103 106 112 111 103 99 96 89 87 88 87
71 71 70 70 72 72 74 75 77 78 79 80 82 84 85 86 86 87 88 90 91 92 93 94 94 95 95 95 97 99 99 99 100 101 100 104 110 103 99 97 95 92 92
73 70 70 72 73 75 76 77 78 80 82 83 83 84 86 87 88 88 87 87 85 84 84 84 83 83 86 87 88 90 92 95 98 100 102 100 100 102 104 103 97 95 94
71 72 73 75 76 77 77 78 80 81 83 84 85 86 86 84 81 79 77 75 74 73 72 73 75 77 78 80 82 82 84 86 87 90 94 97 98 102 103 104 104 100 94
72 73 75 75 76 77 79 80 81 82 84 84 82 79 75 71 69 67 67 67 68 69 70 71 73 73 73 72 73 73 74 75 76 78 80 84 85 91 98 103 105 106 101
73 74 75 76 77 79 80 81 82 81 77 73 70 66 63 63 64 65 67 68 68 69 69 70 70 71 70 68 67 67 67 68 69 69 71 72 74 78 82 87 97 103 103
75 76 76 78 79 80 80 79 74 69 66 63 61 61 61 63 64 66 67 67 68 70 71 71 72 70 68 66 64 63 64 64 64 64 63 63 67 68 72 75 78 86 95
77 78 78 79 79 78 73 68 65 62 60 59 59 61 62 63 63 64 67 69 70 70 70 70 68 65 63 61 61 57 55 52 53 50 50 50 51 53 55 62 67 75 77
77 77 76 74 70 66 63 61 60 59 59 60 60 61 62 63 65 66 69 69 68 67 63 60 59 58 55 52 48 48 48 48 46 47 47 48 49 51 51 53 54 58 65
75 73 69 64 61 59 59 58 58 59 60 61 62 63 65 66 66 67 68 68 66 60 57 56 52 47 45 45 46 45 43 43 43 43 43 46 49 51 53 56 60 61 61
67 64 60 58 58 58 58 59 60 61 62 62 62 62 63 64 64 65 65 62 60 59 57 53 45 42 42 43 43 42 42 43 43 44 46 48 52 54 55 58 61 64 67
59 58 58 58 58 59 60 61 62 63 62 61 61 61 61 61 60 60 59 59 58 57 55 49 42 40 42 43 45 44 45 45 46 47 48 51 54 56 58 60 62 66 68
57 57 57 58 59 60 61 62 61 61 61 61 60 60 60 59 58 57 57 57 57 53 50 43 42 43 43 44 45 47 47 48 48 49 50 53 56 59 62 64 64 66 65
56 57 57 57 58 59 60 61 61 62 63 63 62 60 57 55 57 58 57 54 52 47 40 39 39 40 41 44 47 49 50 51 51 53 54 54 55 56 57 59 60 60 59
54 53 54 56 56 57 60 63 64 63 62 60 57 54 52 55 57 58 55 53 48 38 34 35 36 38 41 44 47 48 50 51 53 53 51 48 47 49 52 55 53 50 46
52 53 54 57 56 56 60 61 57 56 54 51 49 47 50 54 58 57 53 47 36 31 32 34 35 38 41 44 45 47 48 50 48 45 40 37 43 47 51 49 44 43 38
54 54 57 61 61 62 61 60 58 53 48 48 46 46 50 54 58 53 44 33 31 31 32 33 35 38 40 42 44 45 45 44 39 33 33 37 40 45 48 44 39 39 33
57 61 63 65 67 66 65 63 59 52 48 45 46 49 52 53 53 44 31 28 30 31 32 32 34 36 37 39 40 39 40 37 32 32 33 36 39 42 40 39 36 36 33
60 62 67 70 69 67 63 62 61 53 49 48 48 48 52 52 46 35 29 29 29 29 29 31 33 33 34 35 35 36 37 35 33 34 35 36 35 36 36 36 34 33 33
65 68 72 74 71 69 66 61 61 55 50 49 48 48 48 46 39 31 31 31 29 28 27 29 30 30 31 31 32 33 34 33 30 29 30 31 32 32 35 36 33 31 29
71 76 76 75 75 74 68 62 62 56 49 48 50 49 44 41 33 29 31 29 26 26 25 27 29 29 28 28 29 31 30 30 28 28 28 30 31 32 35 35 29 29 28
79 79 76 72 70 68 68 66 63 58 55 49 46 44 43 37 29 29 29 26 24 24 24 26 28 30 31 30 29 30 31 29 28 26 26 27 30 29 34 28 24 24 23
79 79 73 72 70 68 66 64 62 61 59 53 48 43 39 32 28 28 26 23 22 23 23 26 28 29 30 31 31 30 31 30 30 29 27 25 27 29 32 23 19 19 19
75 69 68 68 69 71 70 65 58 52 49 45 43 39 34 28 27 26 22 20 20 22 23 25 28 30 30 31 31 30 30 29 29 28 28 28 27 26 24 19 17 17 17
61 61 66 70 63 56 52 48 46 45 41 36 33 31 27 25 24 22 19 18 19 21 24 27 29 30 31 31 31 31 30 28 27 26 26 26 26 24 20 18 22 23 22

GFSGL_500_spd_030.txt.gz
Wind_Speed
66 69 71 73 75 76 75 72 71 71 71 72 73 74 75 76 77 78 78 79 81 82 84 85 87 87 88 89 90 91 90 92 95 92 98 100 98 97 92 93 90 90 90
70 72 75 77 77 75 72 71 72 72 73 74 75 76 76 77 78 79 81 82 83 84 85 86 88 88 89 90 91 92 93 95 96 94 89 92 93 93 96 95 92 92 92
73 76 79 78 76 73 72 73 73 74 76 77 78 78 79 79 80 81 81 82 84 85 86 87 87 88 87 87 87 88 89 90 93 96 95 98 98 98 94 94 97 96 92
76 79 79 76 74 73 74 75 76 77 78 79 80 80 80 81 82 83 84 86 86 86 85 83 80 78 78 78 78 79 79 80 82 84 87 90 93 95 99 98 96 97 97
78 77 75 73 73 75 76 77 78 78 79 81 81 81 82 83 83 84 83 82 80 78 75 73 72 71 72 72 74 74 75 75 75 75 75 76 77 81 87 91 94 93 93
75 72 72 73 74 76 77 78 79 80 80 82 81 81 82 81 78 76 73 70 68 67 66 67 69 70 71 71 72 74 74 74 74 74 72 70 69 71 72 74 80 83 86
71 70 73 74 76 78 78 79 80 81 81 81 79 76 73 70 68 66 65 64 64 66 67 67 68 70 72 73 73 73 72 71 70 70 69 67 65 66 66 67 69 72 75
70 71 74 77 77 78 78 79 79 79 77 73 69 67 65 63 63 63 63 64 65 67 68 69 71 73 73 73 71 66 63 61 61 62 63 61 59 57 58 58 61 65 66
71 74 77 78 78 78 77 75 73 70 67 65 64 63 61 62 63 63 65 66 68 70 71 72 72 70 69 67 63 58 57 56 55 53 52 49 47 47 49 48 47 52 53
75 77 77 74 72 70 69 67 64 63 62 61 60 61 62 63 65 66 68 70 70 69 68 67 65 63 61 62 62 61 57 49 44 45 46 47 47 46 46 46 47 47 47
70 67 68 67 66 64 62 60 59 58 59 60 61 62 63 64 65 65 65 65 65 63 62 62 62 63 61 59 58 55 50 44 42 41 41 41 44 44 46 48 49 48 48
64 65 64 62 61 59 58 58 58 58 59 60 61 61 61 63 62 62 62 62 63 63 62 61 62 60 58 57 53 49 44 43 41 39 39 40 42 44 46 48 50 51 53
63 63 61 59 57 57 56 56 58 58 58 59 60 61 63 64 64 64 63 62 61 60 60 59 60 58 57 53 46 42 40 40 41 41 42 44 45 46 47 48 49 52 52
59 59 58 57 57 56 56 56 56 56 56 56 59 62 64 64 62 60 58 57 56 57 58 58 56 55 52 45 40 41 42 41 42 43 44 46 47 47 49 51 52 55 55
58 56 55 56 56 56 58 58 56 55 56 58 60 63 65 63 59 56 54 52 53 57 58 56 52 46 37 37 39 39 39 40 42 45 46 46 46 48 51 53 54 53 52
55 54 55 55 55 57 59 59 59 59 59 62 66 67 65 60 55 52 51 51 53 57 57 50 39 33 33 34 36 37 38 40 42 44 45 46 47 47 46 44 43 44 46
54 54 54 53 54 57 60 61 59 60 63 67 68 70 65 59 53 50 49 51 54 57 53 39 32 33 33 33 33 34 36 38 39 40 43 43 42 38 33 34 38 42 45
54 55 57 58 59 59 60 62 63 64 68 72 72 72 67 60 53 49 48 50 53 55 44 35 34 33 31 31 31 32 34 36 38 38 39 40 36 34 34 37 40 42 43
56 58 61 63 63 65 65 65 67 70 74 74 74 72 68 57 53 49 48 48 50 50 37 35 34 31 30 29 28 30 32 33 35 35 37 35 32 33 35 37 37 38 38
60 63 64 63 64 68 70 71 72 75 79 78 73 69 66 54 51 48 46 46 47 42 33 33 32 29 28 27 28 29 31 32 32 33 35 33 30 30 30 33 36 36 38
64 65 65 67 70 73 75 77 80 83 83 79 68 61 57 54 50 46 44 43 44 36 32 32 30 28 26 26 28 30 31 32 32 32 33 33 30 29 31 34 33 34 38
63 67 70 73 75 78 81 86 89 89 82 72 66 63 60 55 50 46 43 39 40 33 31 29 29 27 26 27 29 31 32 32 33 33 33 32 30 31 30 32 33 38 34
65 69 73 77 80 84 91 92 86 76 69 66 63 60 57 54 50 47 43 38 37 31 29 26 26 26 26 26 28 30 31 31 31 32 32 31 30 29 29 28 29 29 25
68 71 77 82 89 90 80 71 68 68 69 70 69 66 59 51 47 44 41 35 32 29 27 24 23 23 25 26 29 30 31 31 30 30 30 30 30 28 27 26 23 21 25
70 79 82 81 68 63 64 68 72 67 60 56 52 49 48 43 39 37 34 31 27 26 23 21 21 22 24 26 28 30 32 33 31 30 29 28 29 29 27 25 24 24 24
75 75 62 60 56 61 63 61 60 55 48 44 40 36 34 34 32 31 29 26 23 22 20 19 18 21 23 26 28 30 31 32 31 30 28 27 27 28 28 26 25 24 24

GFSGL_500_spd_033.txt.gz
Wind_Speed
61 60 64 66 66 69 73 77 79 81 82 83 80 79 77 75 75 76 77 77 79 80 80 81 82 83 84 85 85 85 86 89 90 82 85 86 84 82 82 85 88 87 89
65 65 66 70 73 74 78 80 81 82 83 81 77 76 75 76 78 79 80 81 81 82 83 83 84 85 86 87 87 86 87 88 90 90 87 88 89 88 86 84 84 85 86
65 67 71 73 76 77 80 81 82 83 78 77 76 77 77 79 80 81 83 83 83 84 85 86 86 87 86 86 85 84 83 81 80 81 79 82 84 86 88 88 87 86 87
66 72 74 76 78 80 82 81 81 79 77 77 78 79 80 81 83 84 84 84 84 84 84 82 81 79 77 76 74 73 73 74 74 75 73 73 74 74 78 80 80 82 84
71 74 76 77 79 81 81 79 79 78 77 78 80 81 83 84 85 84 83 80 78 77 74 73 71 69 68 68 69 70 71 71 72 72 72 72 73 73 75 75 77 75 74
72 75 77 79 81 80 78 78 78 78 78 81 83 84 82 81 80 79 76 71 70 68 65 64 65 66 66 67 68 69 71 72 73 73 71 69 67 66 66 67 70 72 70
74 75 77 79 78 78 77 78 78 79 82 80 78 80 79 78 75 71 67 64 63 62 63 64 64 66 68 68 69 70 70 71 70 66 62 59 57 58 57 58 61 61 63
74 75 77 76 77 77 77 78 81 80 75 76 76 76 74 71 66 63 62 62 62 63 64 66 67 68 69 68 67 66 65 64 63 62 60 58 59 58 57 54 53 52 51
72 73 75 76 76 78 79 78 73 73 73 73 72 70 66 64 63 62 63 63 64 65 66 66 67 67 67 67 67 65 65 63 62 60 58 55 53 52 50 48 45 45 41
71 73 75 77 78 78 72 70 70 71 70 68 66 64 62 61 62 63 64 65 64 64 64 66 67 68 68 68 67 67 67 64 59 55 53 49 49 47 46 46 45 41 40
73 74 77 79 72 67 67 69 70 68 65 63 61 60 60 61 62 62 63 62 63 64 63 63 64 65 65 63 64 66 65 61 56 53 47 43 43 43 43 43 44 43 41
75 77 72 66 65 64 66 67 66 65 62 60 59 59 61 61 62 61 61 63 66 65 64 62 60 60 59 59 61 63 61 58 54 46 41 39 40 41 41 42 42 42 42
70 64 63 63 63 64 65 65 63 61 59 57 57 59 61 63 63 61 61 63 67 66 63 60 57 57 55 57 61 61 58 52 43 37 37 37 38 39 41 44 44 45 43
62 62 63 62 63 63 63 62 61 59 56 56 57 59 61 64 63 62 66 68 70 70 64 56 55 53 53 57 56 52 45 39 36 37 37 38 40 41 43 44 44 45 44
61 62 62 63 63 62 61 61 60 58 57 59 61 61 60 61 63 65 68 71 72 71 62 55 52 51 54 55 47 41 40 38 36 36 36 36 39 42 44 45 44 44 44
62 62 63 63 63 63 62 61 59 59 62 65 67 67 66 65 65 66 69 73 74 69 60 54 50 50 52 47 39 40 38 36 34 34 35 37 38 39 40 41 42 43 42
63 63 63 63 63 62 62 61 61 63 65 68 70 68 68 69 69 69 71 74 75 65 57 52 48 48 48 40 38 37 35 34 33 32 33 33 34 35 38 38 37 35 33
63 64 65 64 64 62 62 62 64 68 70 71 70 70 71 71 73 75 77 77 69 60 51 50 45 45 45 37 36 34 33 32 31 30 30 31 33 33 35 35 33 31 32
63 64 65 66 66 61 62 65 67 69 71 74 74 74 75 77 79 81 81 72 59 50 47 48 45 42 41 35 34 32 31 31 30 29 31 31 31 32 33 32 31 31 29
63 64 62 60 58 61 64 67 68 68 73 76 78 79 82 84 87 84 75 61 55 54 49 45 43 39 37 34 31 30 31 31 30 31 32 32 32 33 32 32 32 29 30
62 60 59 55 59 65 69 70 72 75 77 79 82 87 92 93 85 73 64 58 55 53 47 42 39 37 34 32 30 29 29 30 29 30 32 32 33 33 33 32 32 32 30
58 58 56 59 63 67 71 73 76 78 82 87 93 90 77 70 65 61 58 54 51 49 44 41 37 35 32 30 28 26 27 28 29 30 31 32 33 32 32 31 31 31 30
59 62 61 64 67 70 72 74 79 85 89 92 79 74 73 73 71 67 63 57 51 46 43 39 35 32 29 27 25 24 26 28 29 29 30 32 33 32 31 30 29 29 29
59 62 62 65 69 71 74 80 84 88 80 73 74 75 71 69 64 57 53 52 51 45 40 35 31 28 26 24 22 23 24 27 28 28 29 30 31 30 30 30 29 29 27
63 62 64 65 69 74 78 83 76 68 67 71 67 66 61 53 46 43 42 39 37 35 34 31 27 24 23 21 20 21 24 26 26 27 28 29 29 29 29 28 28 28 27
60 62 67 71 74 77 75 63 63 60 61 59 55 47 43 37 31 29 28 26 25 27 28 26 23 20 19 17 17 19 22 24 26 27 28 29 28 28 28 27 27 27 26

GFSGL_500_spd_036.txt.gz
Wind_Speed
58 57 57 60 63 62 62 64 66 70 71 74 78 82 84 85 84 82 81 80 80 81 81 83 84 84 85 86 86 87 87 89 90 83 87 88 88 89 87 87 87 86 84
59 61 63 66 66 64 64 68 71 73 74 78 81 85 86 85 83 82 82 82 83 84 83 82 83 84 84 84 83 82 81 80 82 79 78 77 79 80 81 81 83 87 89
63 64 66 69 67 66 68 72 75 76 77 81 83 85 84 83 83 83 84 84 81 79 81 83 83 82 80 78 76 75 73 72 72 72 70 71 70 73 73 73 72 71 74
67 69 69 69 68 69 73 75 77 79 81 82 84 84 84 85 84 84 81 76 79 80 81 81 78 75 72 70 69 68 67 68 68 69 68 68 69 70 72 73 69 70 69
70 69 70 72 72 73 75 77 80 81 82 83 84 85 85 85 85 79 76 77 79 79 77 75 70 68 67 67 66 66 67 66 67 67 66 66 67 69 70 71 71 69 66
68 70 72 73 75 76 75 78 80 81 82 83 84 85 87 85 77 77 78 77 77 75 70 67 65 64 64 64 65 65 65 65 65 66 65 65 63 61 60 60 59 59 55
69 71 73 74 75 74 77 79 80 82 82 83 85 86 82 76 77 77 77 76 73 68 65 64 63 64 65 66 66 66 66 67 69 69 68 67 64 62 60 58 56 53 51
69 71 72 73 74 76 77 78 80 81 82 83 84 78 75 77 77 76 74 70 66 64 63 62 63 65 67 67 67 65 66 67 68 67 69 67 64 61 60 58 56 52 46
66 69 72 75 74 75 77 79 80 81 82 82 74 73 75 76 75 72 68 65 63 62 62 64 65 65 66 67 68 66 63 63 62 62 64 64 63 59 56 54 52 50 43
69 73 72 72 74 76 78 79 79 81 79 73 72 73 75 73 71 68 64 62 60 60 62 63 64 66 67 68 67 64 61 59 58 59 59 58 56 53 50 48 46 44 43
71 70 71 73 76 78 78 78 80 74 71 71 71 72 72 68 66 64 59 58 60 60 62 62 64 66 67 69 69 62 60 58 55 57 54 52 48 44 41 40 41 40 39
69 71 72 76 77 77 77 74 70 70 70 70 71 70 67 66 62 57 59 61 62 63 64 65 65 66 69 72 71 61 57 54 54 55 50 42 37 34 35 36 37 37 39
72 75 75 76 76 75 69 67 68 68 68 69 68 66 63 61 59 59 61 63 64 65 65 65 64 67 70 74 71 60 54 52 53 48 39 39 36 35 35 35 37 37 38
74 74 75 75 70 66 66 66 67 67 67 67 65 62 61 59 60 63 64 66 68 67 66 66 66 70 73 74 69 57 53 52 50 39 39 37 35 34 35 35 35 38 40
74 73 70 66 65 66 66 66 67 65 64 65 63 62 62 63 65 67 69 70 70 70 69 67 68 71 74 70 60 53 50 49 42 40 38 35 33 32 33 35 37 37 39
70 66 64 64 65 65 66 66 65 65 65 65 64 62 64 66 69 71 72 73 74 73 72 70 73 75 74 61 52 48 47 46 39 38 35 33 31 30 30 32 34 34 36
64 64 64 63 63 64 65 66 66 67 66 66 66 63 64 68 72 72 72 74 76 77 74 76 78 77 66 52 47 46 43 41 38 35 33 32 32 31 31 30 30 31 32
64 63 62 62 63 64 66 66 67 67 68 66 63 64 67 69 72 75 78 81 80 79 81 81 79 69 53 48 46 44 41 37 36 34 32 33 33 33 32 31 31 31 30
63 62 61 63 64 66 66 68 68 67 67 64 63 67 71 74 76 78 81 83 84 86 87 80 68 55 47 47 45 41 38 35 34 32 32 33 33 32 31 31 30 31 30
61 62 64 65 66 67 68 68 68 68 69 68 69 72 74 77 78 81 84 88 92 87 69 60 55 49 44 43 41 37 36 34 32 30 30 31 31 31 31 30 30 29 29
63 64 65 65 67 69 69 66 66 68 70 71 74 75 77 80 82 88 93 91 78 70 67 61 55 49 44 40 38 35 34 32 30 28 28 30 31 31 32 32 30 29 28
64 65 65 66 67 67 65 65 67 69 71 72 75 77 81 86 91 85 74 74 75 72 69 62 55 48 43 38 36 33 32 29 27 25 26 29 30 30 31 31 31 29 28
64 65 66 64 64 64 65 69 71 73 72 72 75 80 85 87 74 74 75 73 69 65 61 56 49 44 39 34 33 31 28 25 24 23 24 27 28 29 30 30 30 29 28
65 64 63 63 64 66 69 72 73 70 72 76 80 84 79 68 69 68 68 63 58 53 45 40 38 37 37 32 30 28 23 21 21 21 22 24 26 27 28 29 28 29 26
61 62 63 64 67 69 69 69 71 75 80 82 80 70 61 62 61 62 56 51 42 32 29 26 28 29 30 28 28 23 19 18 18 18 19 21 24 25 26 27 27 27 27
61 62 64 65 66 67 70 72 79 78 74 66 57 55 55 55 54 49 42 34 23 18 16 17 19 23 24 24 22 18 16 15 14 14 16 19 22 23 24 25 25 26 26

GFSGL_500_spd_039.txt.gz
Wind_Speed
46 50 52 53 55 58 59 61 61 63 69 70 70 70 73 75 77 80 83 85 85 87 87 87 89 88 82 83 84 85 86 85 84 81 80 77 75 74 74 75 76 78 80
49 53 55 56 58 59 61 61 63 68 71 71 71 74 76 77 80 83 85 85 86 87 86 88 85 80 82 83 84 84 83 82 81 77 72 70 68 69 68 67 67 67 67
55 57 58 59 61 61 62 64 68 70 71 71 73 76 78 81 84 85 85 87 87 86 87 82 79 80 82 82 82 80 78 76 75 74 70 68 68 68 67 66 64 63 63
59 59 61 62 63 63 65 67 69 70 72 74 76 77 80 84 85 86 87 87 87 86 81 78 80 81 82 81 79 75 74 73 72 71 70 68 68 68 69 68 63 62 61
59 61 62 63 66 66 68 69 71 73 75 76 77 80 84 85 86 87 88 88 86 80 78 79 80 81 81 78 74 72 71 70 71 71 71 70 70 70 70 68 68 65 61
63 64 65 67 66 68 68 71 74 75 76 77 80 82 85 86 87 87 88 87 81 77 77 79 80 78 75 72 69 68 68 68 69 70 70 69 67 68 68 67 64 62 60
65 66 67 67 67 68 71 73 74 75 77 79 80 82 84 86 86 87 86 80 77 77 77 78 76 72 69 66 64 64 65 67 69 69 68 68 66 66 66 64 60 59 57
67 67 66 66 68 70 72 72 74 76 77 79 81 82 83 84 86 85 79 77 76 76 77 73 68 66 66 64 64 65 66 66 66 66 68 64 62 61 62 62 58 54 51
65 66 66 67 69 70 70 72 75 76 77 79 81 81 82 83 82 77 77 76 75 74 72 70 65 62 64 64 67 68 65 66 67 67 70 64 59 57 60 58 54 52 46
64 66 68 68 68 68 71 73 74 76 78 80 80 80 81 78 76 76 76 74 73 72 70 64 61 61 63 65 68 70 67 69 70 69 72 61 55 54 53 51 48 44 41
67 66 65 65 67 70 71 72 75 77 78 80 79 79 76 74 75 75 74 74 71 69 64 61 61 63 65 67 70 72 71 71 73 73 75 62 52 50 44 45 43 40 35
65 63 63 66 68 70 72 75 77 78 79 79 78 74 73 74 74 73 72 72 70 64 61 62 63 65 68 69 73 74 72 72 75 77 77 59 49 42 43 42 40 38 37
62 63 66 68 70 72 75 77 78 78 78 76 73 72 72 73 72 71 71 70 65 62 62 64 66 67 68 71 74 76 73 74 77 78 70 55 47 41 40 37 36 34 33
63 65 67 69 72 75 77 78 78 77 74 72 72 72 72 72 71 71 69 65 63 62 65 66 68 70 70 74 77 76 74 77 78 74 60 50 42 41 38 34 31 30 29
65 68 70 73 75 76 77 77 75 72 72 73 72 72 72 72 71 69 65 64 64 64 66 67 70 72 74 76 77 76 79 82 76 61 52 47 39 38 35 33 32 31 31
68 71 73 76 77 77 75 72 71 72 72 72 72 72 72 71 69 68 67 67 66 67 70 70 71 73 76 78 78 79 83 80 67 51 47 45 38 36 33 33 33 33 33
72 73 75 75 75 73 72 72 71 71 72 72 72 72 71 71 70 70 69 69 70 73 75 77 77 79 78 79 82 83 76 62 52 45 42 42 37 35 33 33 32 32 32
72 73 72 71 71 71 71 71 71 71 71 71 71 71 71 70 71 72 73 76 77 77 78 80 81 81 84 89 82 67 54 57 47 40 39 38 36 33 32 32 32 31 30
67 69 70 70 70 72 72 72 70 69 69 70 70 71 72 72 71 73 75 79 80 80 81 82 84 88 89 72 61 54 52 50 44 38 36 35 34 32 31 30 30 31 31
67 68 69 71 72 72 71 69 68 68 69 70 71 72 71 71 73 76 80 83 81 81 83 87 93 82 72 70 64 58 51 47 43 37 34 33 32 31 29 29 29 28 30
69 70 70 71 70 69 68 67 68 69 70 70 70 71 73 75 78 80 82 80 82 86 91 91 75 73 71 68 61 54 49 44 41 35 31 30 29 28 27 28 27 27 28
69 69 68 66 65 65 66 67 69 71 70 71 73 74 76 78 81 82 81 85 88 84 74 71 70 72 68 58 50 44 39 38 36 31 29 27 26 25 25 26 26 26 27
62 61 61 61 63 65 66 67 68 69 71 73 74 75 77 78 78 81 86 81 72 67 66 66 69 67 59 49 42 35 33 31 30 28 25 23 23 22 22 23 24 25 26
59 59 60 61 62 64 65 67 69 70 72 74 76 78 78 79 82 81 71 65 62 61 61 62 59 45 36 30 27 28 28 26 26 24 21 20 20 18 19 21 22 24 24
59 59 59 60 62 64 66 68 71 73 73 75 77 79 81 81 74 64 58 55 54 52 51 50 36 28 19 15 19 25 24 23 23 19 17 16 16 15 16 18 19 21 22
58 60 62 63 64 66 69 72 73 73 73 77 80 79 71 62 56 50 46 47 44 42 37 34 24 17 13 14 18 21 20 20 19 16 14 13 11 11 13 16 18 19 20

GFSGL_500_spd_042.txt.gz
Wind_Speed
44 45 47 48 50 50 51 53 56 58 61 63 65 66 66 67 69 73 75 76 78 81 83 86 89 91 93 95 96 93 88 86 88 87 88 87 87 86 83 80 76 74 73
49 49 50 51 52 52 54 58 61 63 64 65 65 66 67 69 71 74 75 78 80 84 86 89 92 93 94 94 91 84 84 87 88 87 86 85 83 81 79 75 73 72 71
50 49 51 52 54 58 61 62 62 64 65 66 66 67 69 71 73 75 78 80 83 86 88 91 92 93 93 89 82 82 84 86 87 86 85 83 80 78 75 73 72 70 68
52 52 54 56 59 61 61 62 64 66 66 66 67 69 70 72 75 77 80 83 85 87 91 92 92 91 88 82 82 83 83 84 84 83 80 77 76 74 74 74 69 67 65
53 55 56 58 61 64 64 64 66 66 66 66 68 70 72 74 77 79 81 84 87 90 92 91 90 86 82 80 81 81 81 80 79 78 77 74 73 72 71 68 68 65 60
57 58 59 59 61 62 64 65 67 67 67 69 69 72 75 77 78 80 83 86 89 90 91 89 85 80 79 79 79 77 78 77 77 74 73 72 72 72 71 70 70 68 61
59 60 60 59 61 63 66 67 68 68 70 70 71 74 76 78 80 83 85 87 88 89 88 84 79 77 77 77 75 73 73 73 73 73 72 73 75 74 73 72 73 70 61
61 61 60 60 64 65 67 68 70 70 70 71 74 74 77 80 82 85 86 87 88 87 84 80 77 76 76 73 72 71 71 70 71 73 73 74 76 76 76 76 77 68 57
62 61 62 60 64 65 68 70 71 70 72 73 73 77 79 83 84 86 87 87 84 81 78 75 75 74 73 72 71 70 68 67 71 73 75 76 79 78 79 78 76 64 53
59 58 59 62 65 71 69 70 68 72 71 72 77 78 81 83 85 86 86 84 80 77 76 74 74 73 72 71 71 70 67 68 72 73 74 77 78 77 79 82 73 59 50
55 59 61 62 67 73 71 70 71 69 73 76 78 79 81 83 85 85 83 80 76 75 74 73 73 72 71 70 70 68 68 71 73 73 74 77 78 77 80 81 66 55 47
61 64 66 69 73 70 70 70 72 75 76 78 80 81 82 83 83 82 78 76 76 74 72 72 71 70 70 69 68 68 71 74 75 74 76 79 78 79 83 75 56 48 45
65 68 73 71 71 73 74 73 74 76 77 79 80 81 81 81 80 76 75 75 75 74 72 71 71 71 70 69 69 71 74 75 77 77 80 80 80 84 81 62 49 43 40
69 69 70 73 73 70 71 74 76 78 78 80 80 80 80 78 76 75 75 74 74 73 72 72 72 71 70 70 71 74 77 77 78 79 80 80 85 80 65 50 45 38 36
69 70 68 68 70 72 73 74 76 78 80 79 79 78 76 75 74 75 75 74 73 73 74 74 72 72 71 72 75 77 78 79 81 79 80 86 80 62 55 45 42 36 36
65 67 69 70 71 72 73 76 78 79 79 78 76 75 75 75 75 73 73 72 72 73 74 72 72 73 74 76 78 79 79 79 79 81 85 77 59 50 50 42 39 36 35
67 68 69 69 71 72 74 76 76 76 75 74 75 76 76 76 74 72 71 72 72 73 74 74 75 76 78 81 82 83 80 81 83 86 78 59 54 50 47 40 36 35 34
65 65 67 69 71 73 74 75 75 75 76 77 78 77 76 74 71 69 70 71 72 74 75 77 79 82 84 86 86 85 88 89 84 70 61 59 53 48 43 38 35 33 31
65 67 69 70 71 71 72 73 75 76 77 77 77 76 73 70 70 71 72 72 73 75 77 80 82 84 85 86 89 92 85 73 64 63 59 55 47 43 40 36 33 31 29
66 68 69 70 71 72 73 74 75 76 76 75 72 69 68 69 71 73 73 75 77 78 80 82 84 86 88 90 89 77 71 67 65 62 56 49 42 39 36 33 31 27 28
68 69 70 71 72 73 74 75 75 73 70 67 66 68 71 70 71 73 76 77 78 80 82 85 88 90 90 84 73 70 69 65 60 53 45 38 35 35 32 30 28 25 25
70 71 72 73 73 73 73 71 67 65 65 66 67 69 70 72 74 76 77 79 81 82 86 87 87 82 73 68 68 65 63 55 48 38 31 29 28 29 28 26 23 22 22
72 73 73 72 71 68 65 64 64 65 67 67 68 69 71 73 76 78 80 83 84 86 85 78 69 65 63 61 58 55 47 40 30 26 24 23 23 24 22 21 19 19 19
67 66 66 65 63 62 62 62 64 65 66 68 69 71 73 76 79 82 84 85 84 78 69 61 57 56 52 50 50 40 33 24 19 19 19 19 20 20 18 17 14 15 16
59 59 60 61 61 62 63 64 65 67 69 70 71 73 76 79 82 82 82 77 68 61 52 47 48 43 42 43 32 24 16 11 15 15 15 17 17 16 14 13 10 11 12
58 58 60 61 62 64 64 65 65 67 69 72 73 76 79 79 76 74 67 59 52 41 39 38 36 34 33 31 20 15 10 13 11 12 15 15 14 13 11 9 7 8 11

GFSGL_500_spd_045.txt.gz
Wind_Speed
46 47 47 48 49 51 51 53 55 56 57 59 60 61 64 66 67 68 70 73 73 73 74 76 78 79 82 85 87 90 94 96 95 94 93 89 88 91 91 92 93 91 86
48 48 50 52 53 54 55 56 58 58 59 60 62 65 67 68 68 70 72 73 73 75 76 78 79 83 83 85 90 93 96 96 96 94 88 87 89 88 90 91 91 85 77
51 53 53 53 54 55 56 58 59 59 61 64 66 68 70 69 69 71 73 75 75 77 79 79 81 84 85 88 93 95 96 95 93 87 86 87 87 88 90 87 84 77 74
54 55 56 56 57 59 61 61 61 63 64 66 69 70 70 71 71 73 76 77 77 78 79 81 83 85 88 92 94 95 95 91 86 85 85 85 85 86 87 83 78 74 74
55 57 59 62 61 60 60 61 63 65 68 70 71 71 72 71 72 75 77 78 78 79 81 82 85 88 91 93 94 94 90 84 83 82 82 82 83 83 84 81 79 78 74
57 59 62 63 62 62 64 65 67 68 68 67 70 68 73 73 76 78 78 79 79 81 82 86 88 91 92 92 92 90 84 81 79 79 80 81 82 83 80 81 82 81 79
58 60 61 61 62 63 65 68 69 69 67 66 68 72 76 77 80 79 80 79 80 81 85 89 90 91 91 91 89 83 80 79 77 77 80 78 79 80 79 79 81 82 82
55 56 59 61 64 67 69 69 69 68 66 70 75 77 77 76 78 79 79 79 81 83 88 90 89 89 90 88 82 79 77 74 73 77 76 76 78 78 79 82 83 82 83
57 58 60 64 66 67 68 68 66 65 71 74 78 79 75 73 77 80 79 80 82 88 89 89 87 88 87 84 79 76 72 69 72 74 73 75 76 77 81 82 82 84 83
58 60 62 65 65 66 66 61 65 70 74 74 76 77 73 74 77 78 79 82 87 87 87 86 86 85 82 79 76 72 70 70 71 71 72 73 74 76 80 81 81 82 84
59 58 59 59 60 58 59 65 70 73 71 73 74 73 74 75 77 78 85 85 86 86 85 83 83 81 79 76 73 71 69 70 71 72 72 71 73 76 78 78 80 81 84
58 58 58 56 58 61 65 70 72 72 74 75 75 72 73 75 81 83 85 85 85 84 82 82 79 78 75 72 71 71 72 74 73 72 72 72 75 78 76 76 76 80 84
57 57 58 61 64 66 68 71 73 76 77 73 72 74 77 80 82 84 84 85 84 83 81 79 78 74 71 70 71 73 74 74 74 74 74 76 79 78 75 74 77 79 75
58 60 63 66 67 66 69 76 76 76 79 82 82 81 82 82 83 83 83 82 82 81 79 78 75 71 70 71 72 73 74 75 76 77 79 81 80 77 75 79 80 75 57
62 63 65 66 68 72 77 81 82 82 81 80 81 80 80 80 81 82 81 80 79 79 78 76 70 69 70 72 73 74 76 78 80 82 83 82 79 79 82 79 72 61 54
60 63 66 69 72 73 73 74 76 78 79 78 78 79 79 80 79 78 78 78 78 78 76 72 71 71 72 74 75 77 78 80 82 84 85 84 83 84 76 64 55 52 51
63 65 66 68 70 73 74 75 75 75 74 75 76 78 78 78 78 78 79 78 79 77 74 72 72 73 74 75 78 80 81 83 86 86 88 88 86 77 63 55 55 49 46
67 68 69 70 70 70 71 71 72 73 74 75 75 76 76 77 77 77 77 77 76 72 72 73 74 76 77 80 82 84 86 87 88 91 90 84 73 64 59 57 53 48 43
65 66 66 66 68 69 70 71 71 72 74 75 75 75 76 76 77 77 74 71 69 71 73 75 76 78 80 83 85 88 90 90 90 87 78 69 66 62 59 55 51 43 36
64 65 66 67 68 68 70 72 73 73 74 75 76 77 77 76 74 71 69 70 71 72 74 76 79 82 84 86 89 90 89 88 80 72 68 66 63 60 56 49 41 32 30
64 66 67 70 71 73 75 75 76 77 78 78 77 75 72 68 67 68 69 71 72 74 77 80 82 84 86 90 89 87 82 72 69 66 64 62 59 49 41 33 28 25 23
68 69 69 69 71 73 75 76 77 77 76 73 68 66 65 66 68 69 70 72 75 77 79 79 82 86 89 87 81 71 65 63 62 60 57 51 42 32 23 21 20 18 17
66 67 69 72 75 75 73 74 74 71 66 64 64 65 66 66 67 69 71 73 75 78 80 81 83 84 79 69 63 57 55 54 54 47 43 29 19 16 15 16 14 13 14
67 70 74 76 74 69 67 66 66 65 64 64 64 65 66 68 70 72 74 76 77 78 79 80 78 69 59 53 48 49 45 47 37 34 20 13 11 12 13 12 10 11 11
73 76 74 69 65 63 62 61 61 62 63 66 68 71 74 73 74 75 76 74 75 76 76 71 60 50 44 45 42 39 37 31 23 12 6 7 9 10 10 9 9 10 9
73 70 65 61 61 62 62 62 64 67 71 73 75 78 73 70 68 68 68 70 72 68 62 55 47 39 39 36 33 31 27 18 9 7 8 7 8 8 8 8 9 9 7

GFSGL_500_spd_048.txt.gz
Wind_Speed
47 47 47 48 50 52 53 53 54 55 54 55 57 59 60 62 64 65 66 68 70 71 72 74 76 75 76 76 78 80 82 84 85 87 90 93 96 98 97 92 92 92 91
46 48 50 51 52 53 54 55 55 56 56 58 59 61 63 64 65 66 69 70 71 72 73 76 76 77 78 80 81 83 85 85 85 88 92 95 95 94 93 90 92 89 90
50 52 53 53 54 55 55 57 58 59 60 61 63 64 65 67 68 69 70 69 70 72 76 79 79 80 82 82 84 85 86 87 90 92 94 94 93 92 89 89 88 87 89
51 52 53 53 55 58 59 59 60 61 63 64 66 66 68 69 70 72 70 69 69 73 80 82 83 84 84 84 85 86 87 90 94 94 93 93 91 88 88 89 85 85 85
52 53 55 58 59 60 62 63 64 64 64 67 68 69 71 72 73 72 73 72 73 80 82 85 87 86 85 84 85 88 89 94 94 92 91 89 86 85 86 87 85 83 83
54 54 55 58 60 62 64 65 66 68 69 70 71 73 75 75 75 75 75 73 77 81 84 85 88 88 84 85 87 89 92 94 91 88 88 84 82 83 83 84 81 81 83
52 53 54 55 57 60 63 64 66 68 70 71 73 75 77 77 77 75 74 72 78 81 82 84 87 83 85 88 89 90 93 90 86 86 83 81 81 82 83 81 80 80 79
51 51 51 53 56 58 60 62 64 68 72 75 76 77 77 77 74 74 71 76 78 80 81 83 82 83 87 89 91 90 88 85 82 83 81 80 80 80 79 78 78 77 76
55 55 55 55 57 61 63 63 66 72 74 75 76 77 75 75 74 72 74 76 78 81 83 82 82 86 90 91 91 86 84 79 81 80 79 77 77 77 79 79 78 77 78
56 56 57 58 59 60 61 62 65 69 70 71 67 71 74 73 72 71 76 80 80 83 83 83 85 88 89 87 83 81 80 78 78 78 75 76 75 76 78 79 78 79 81
58 59 60 61 62 63 61 59 61 64 62 65 68 70 72 73 74 81 78 80 80 80 81 82 85 85 81 78 79 79 78 79 79 76 74 73 74 76 78 78 79 81 82
60 60 60 62 64 62 60 61 61 62 70 71 72 76 77 79 78 79 79 78 78 77 80 82 80 77 77 78 79 80 81 81 78 75 74 75 76 78 79 78 79 82 82
60 61 62 61 61 62 64 66 68 69 72 73 74 76 77 75 74 75 75 76 79 80 78 79 78 79 79 79 79 80 81 78 76 76 76 77 78 79 79 80 81 81 82
64 59 58 57 59 61 66 69 71 70 67 68 69 69 66 69 74 78 81 82 80 79 79 80 79 78 79 81 81 79 76 75 75 76 77 78 80 80 81 83 83 83 83
60 61 62 62 62 63 64 62 61 60 63 67 70 73 77 81 83 83 80 77 77 78 79 78 79 81 82 82 80 77 75 76 78 79 81 82 83 84 85 86 85 84 82
61 62 60 58 59 61 63 64 66 69 72 76 79 82 84 83 80 78 77 76 75 76 79 80 80 81 79 78 76 74 75 77 79 81 83 84 86 88 89 87 85 80 71
57 56 56 57 60 63 66 69 73 76 78 81 81 81 80 79 78 76 75 75 76 78 79 79 79 78 76 74 74 75 76 79 81 85 87 88 89 92 89 84 77 68 61
57 60 62 64 66 69 72 74 76 76 76 76 75 74 74 74 75 76 77 79 80 80 80 79 76 74 73 74 75 77 78 82 85 88 90 92 92 88 81 72 65 62 59
62 65 68 69 70 69 69 71 72 72 73 72 73 74 75 76 77 78 79 80 80 78 75 72 72 72 73 74 76 79 82 84 88 91 90 89 84 77 68 64 61 58 55
64 66 67 66 66 65 66 68 70 71 73 75 76 77 78 80 81 81 80 79 77 72 69 70 71 71 74 76 79 82 85 90 89 87 84 77 70 64 61 60 58 52 44
62 61 63 64 65 66 68 70 73 74 76 77 79 80 80 81 79 77 75 71 68 67 68 69 71 74 76 79 82 86 87 85 82 75 67 63 59 59 58 53 44 35 26
58 60 63 66 68 70 72 74 76 77 77 79 81 82 81 77 73 69 66 66 66 68 70 72 75 78 81 83 84 82 79 75 66 60 58 55 54 52 45 32 19 12 11
62 65 68 70 71 73 75 76 78 79 80 81 79 75 71 69 66 65 65 65 67 69 72 75 78 78 78 77 76 74 65 57 54 52 50 49 43 33 20 11 6 7 9
66 68 70 72 74 75 76 77 78 79 77 75 72 68 66 64 65 66 67 70 73 75 77 76 74 72 71 72 68 60 50 46 45 44 43 35 25 14 7 4 6 8 8
65 67 70 73 75 76 77 76 75 75 75 73 70 70 71 73 72 73 75 76 76 75 73 70 67 67 65 62 56 48 42 39 38 37 31 20 12 9 7 7 8 8 7
69 70 71 72 74 74 74 74 73 72 70 70 71 72 73 73 75 75 75 74 72 67 63 64 63 60 56 51 46 39 36 34 33 29 21 16 13 9 9 9 9 8 7

GFSGL_500_spd_051.txt.gz
Wind_Speed
45 44 43 44 44 46 48 48 50 51 53 54 55 57 58 59 59 60 62 65 68 70 70 69 69 70 71 73 74 75 77 76 77 81 83 84 85 87 89 90 93 96 95
48 47 46 46 47 48 49 49 51 54 56 57 58 59 60 60 61 64 67 69 70 71 71 70 71 70 73 74 75 78 80 79 80 82 84 84 87 88 90 92 94 95 93
51 51 52 53 52 50 50 51 53 55 56 58 59 61 63 65 66 68 70 71 72 72 73 73 69 70 73 76 78 78 80 82 82 85 84 85 88 91 92 92 93 92 91
53 53 53 52 52 53 52 51 53 55 58 58 60 61 63 66 69 71 73 73 75 76 75 70 70 72 75 77 78 80 83 85 85 87 86 88 90 94 94 93 90 91 88
53 54 54 55 55 54 54 54 54 56 58 60 61 64 66 69 72 73 74 76 77 77 74 70 73 75 77 79 81 82 86 87 87 88 88 90 93 94 92 91 89 86 88
53 54 54 54 53 53 52 53 56 58 59 60 63 66 69 72 73 76 77 78 79 78 74 72 76 78 80 81 82 85 87 86 88 88 89 93 93 91 91 88 85 86 86
48 49 49 48 48 49 50 52 53 55 58 60 62 64 68 73 77 79 82 83 79 77 71 76 79 81 83 83 83 84 85 86 88 90 92 91 88 89 85 84 83 85 84
47 47 47 48 50 52 53 54 56 57 59 62 64 66 69 76 80 83 84 81 79 73 73 78 80 83 83 83 85 84 84 86 88 92 92 89 87 83 83 85 86 85 80
49 49 51 53 54 56 56 56 57 58 59 62 65 68 72 78 81 83 82 77 75 72 77 78 80 80 83 85 83 81 84 86 90 89 88 82 81 81 83 84 83 81 78
54 54 55 54 54 55 56 57 60 61 62 63 65 67 72 78 79 79 74 73 72 75 77 78 78 80 80 80 79 82 84 87 86 82 78 79 79 80 82 82 80 79 81
55 54 54 55 57 59 60 60 61 62 62 62 65 67 71 77 75 72 69 70 73 78 76 74 76 76 75 77 81 84 85 84 80 78 78 79 80 81 79 77 79 80 82
59 59 60 61 61 61 61 61 61 63 64 64 65 68 71 72 74 77 77 75 75 74 71 69 70 73 77 81 84 82 79 78 79 79 80 82 81 77 76 78 80 82 84
64 62 61 61 62 61 63 62 61 61 61 62 66 71 72 70 68 68 69 68 66 66 67 69 72 79 83 80 77 76 77 78 81 83 83 81 77 77 78 80 82 84 86
61 57 55 55 58 58 58 57 56 57 60 63 66 72 70 65 64 64 64 64 65 66 72 83 85 81 76 74 74 76 79 82 83 81 77 75 75 77 80 82 84 87 89
58 55 57 60 62 64 66 66 65 65 64 63 64 65 64 63 63 64 68 75 81 84 84 83 79 77 77 77 79 82 83 82 80 76 76 78 79 81 82 85 88 92 93
57 59 61 63 65 62 60 61 58 58 59 61 64 67 71 74 78 80 80 80 80 80 79 77 79 80 82 82 82 81 80 76 74 75 77 79 81 83 85 89 92 92 88
56 57 57 61 63 64 61 62 62 59 62 66 69 73 75 77 78 76 74 75 75 77 77 79 81 82 80 79 78 74 71 71 74 76 78 81 83 85 89 91 88 85 80
61 57 58 60 58 56 56 58 60 61 64 68 71 73 72 72 72 72 74 75 77 78 78 79 78 78 77 73 70 68 70 73 76 77 80 83 86 87 86 84 82 76 69
51 51 53 54 56 59 61 64 66 67 67 67 68 68 69 70 72 75 76 78 79 79 80 79 79 78 75 73 71 72 72 74 76 79 83 85 83 80 79 77 69 67 64
54 55 56 58 60 63 64 65 65 66 66 66 67 69 72 74 77 79 80 81 82 83 83 82 78 74 70 69 69 70 73 75 79 83 84 76 75 75 69 65 63 60 58
54 56 56 58 59 61 63 62 64 66 68 70 73 75 78 81 82 84 84 85 84 83 78 74 70 67 67 69 71 73 78 81 81 80 72 71 70 63 60 56 53 48 35
54 57 57 57 59 61 63 65 67 70 72 75 78 80 81 83 83 84 83 82 79 75 72 69 68 69 71 72 75 78 79 79 77 69 68 63 55 53 50 46 37 25 15
53 56 58 59 61 64 67 70 72 74 77 79 80 80 80 80 80 79 78 76 74 71 70 70 72 74 74 75 76 77 76 73 67 65 58 50 46 43 40 31 22 12 4
55 58 60 62 63 66 68 70 72 74 75 75 76 76 76 76 74 72 70 69 68 69 69 71 73 73 75 75 74 71 66 64 61 55 47 41 37 35 28 20 15 8 5
57 59 60 62 65 67 67 68 68 68 68 70 71 70 67 66 66 67 68 68 68 68 68 68 68 68 67 65 62 61 62 56 51 44 38 34 31 27 23 19 14 10 9
58 59 63 66 67 67 68 68 71 73 75 75 72 69 70 69 69 69 69 68 67 67 66 65 64 64 63 61 58 55 52 46 42 38 33 30 27 22 22 18 16 14 12

GFSGL_500_spd_054.txt.gz
Wind_Speed
42 42 43 43 44 44 44 45 45 47 47 49 50 52 53 54 55 56 58 61 64 65 67 68 71 73 75 75 76 76 73 73 75 77 78 79 80 81 83 85 87 88 90
46 46 48 49 50 48 46 46 47 47 48 49 49 50 52 53 55 57 61 63 66 68 70 72 73 75 77 77 79 74 73 74 77 78 80 81 83 85 86 88 89 91 92
46 47 49 51 51 51 53 53 50 50 50 50 49 50 50 52 55 58 61 63 65 68 70 73 75 77 79 81 75 72 74 77 78 80 82 84 85 86 87 88 89 91 92
51 52 52 52 54 55 54 52 53 53 54 52 52 52 53 54 56 58 60 62 66 69 72 75 78 80 82 80 72 74 77 79 80 82 84 86 86 88 88 88 89 91 92
47 49 50 53 55 55 56 57 56 55 55 55 54 53 54 56 57 59 62 66 69 73 76 79 80 81 84 74 75 77 79 80 83 85 86 85 87 88 88 89 90 92 94
48 45 45 45 48 50 50 52 53 53 52 53 54 55 57 58 59 61 64 67 71 73 76 79 82 85 78 73 78 80 81 82 84 84 85 86 86 87 87 88 91 93 94
44 41 40 39 40 41 43 45 47 49 51 54 56 58 60 61 61 63 67 70 74 77 80 82 83 82 70 76 80 81 81 82 82 83 86 85 84 86 86 90 92 92 92
50 48 46 45 44 43 44 45 48 50 52 54 57 58 59 59 60 63 68 71 74 78 81 84 83 66 73 79 80 81 81 79 81 85 84 82 82 85 89 90 89 89 90
53 53 52 49 49 50 50 50 50 52 53 54 56 57 59 60 60 62 65 70 73 77 85 78 66 79 78 84 82 80 80 80 82 83 81 81 84 87 88 89 88 89 90
59 58 60 60 57 55 54 52 52 53 55 56 58 60 60 62 62 65 67 70 74 78 64 59 74 81 81 83 82 80 80 79 78 77 80 84 84 87 86 85 85 90 91
61 62 63 61 57 57 57 58 60 61 62 63 63 63 61 62 64 66 69 73 70 63 67 75 76 79 84 84 81 78 74 72 77 80 85 84 80 81 82 84 86 87 84
65 66 67 67 62 62 63 63 63 64 64 61 57 58 58 59 61 65 66 66 67 68 67 73 79 80 80 78 72 67 73 79 84 84 80 78 79 82 84 86 85 82 81
78 76 73 71 67 64 64 62 61 61 56 54 55 55 57 58 62 66 69 71 72 73 70 68 72 71 68 67 70 77 85 83 79 78 80 81 82 84 85 82 80 80 82
75 73 68 63 61 60 59 59 58 54 57 60 61 64 66 65 65 66 66 66 66 65 66 66 63 63 69 78 81 78 77 78 79 80 81 81 81 80 78 77 78 81 82
61 53 51 50 49 51 51 53 57 61 64 62 63 60 59 59 59 61 63 63 60 57 62 69 78 77 74 73 74 75 76 77 78 78 80 78 76 74 75 77 80 82 85
48 46 47 48 51 54 55 57 61 65 67 64 62 58 55 56 59 62 66 70 72 75 76 73 72 71 72 74 77 77 77 78 76 76 74 73 73 73 74 77 81 84 85
48 51 51 53 56 57 60 63 63 60 58 58 56 57 58 59 63 67 69 71 71 71 70 71 74 76 77 78 79 79 78 76 74 73 73 73 72 74 76 80 83 82 81
53 53 55 60 63 63 63 63 61 60 57 57 58 60 61 63 65 69 69 68 68 69 72 75 77 78 78 78 78 77 76 74 72 71 71 72 74 77 79 82 81 78 78
59 58 60 61 60 60 59 59 59 59 58 58 60 61 61 63 65 66 67 69 71 73 76 78 79 80 80 80 78 75 72 71 70 70 71 73 77 79 82 80 76 74 71
57 58 58 58 57 55 57 55 55 57 59 61 60 60 61 64 66 67 70 73 76 78 80 81 82 82 80 78 76 74 72 70 70 71 73 76 77 77 76 72 70 65 61
56 55 54 55 54 54 55 56 57 58 60 61 61 62 65 67 70 73 76 79 80 82 81 80 80 78 75 73 71 70 69 70 71 73 74 73 76 74 67 66 60 54 52
52 54 55 55 56 56 56 56 58 59 60 62 64 66 68 71 73 75 77 78 78 78 77 76 74 70 68 67 67 68 69 70 71 73 74 72 69 64 61 55 48 44 41
53 54 55 55 54 54 55 57 59 60 61 62 64 65 65 68 69 69 69 71 73 73 72 71 69 68 66 67 67 68 68 69 69 68 66 64 62 57 52 45 39 37 31
51 52 52 53 54 56 57 58 58 60 61 63 63 63 65 67 70 72 74 74 73 72 71 70 69 68 68 68 68 68 68 68 66 63 61 58 54 48 43 38 34 31 26
51 51 52 53 54 56 57 57 59 62 65 68 70 71 74 77 79 79 78 77 75 73 71 70 70 70 69 68 66 65 65 63 60 57 52 49 46 42 36 33 31 27 23
49 50 52 55 58 59 61 64 66 70 73 75 76 79 82 86 87 84 82 79 75 73 72 71 70 68 65 63 61 60 58 55 52 49 46 42 40 37 33 31 29 27 23

GFSGL_500_spd_057.txt.gz
Wind_Speed
48 50 47 45 44 45 45 46 47 48 47 49 49 49 49 49 49 50 51 53 55 56 57 59 61 64 67 69 71 73 75 78 81 84 78 79 79 79 79 80 82 84 85
46 50 47 45 44 46 49 50 52 52 51 51 51 51 49 49 50 51 51 52 54 55 57 59 62 64 66 69 72 75 79 82 84 82 79 80 82 81 82 83 85 86 86
50 48 48 49 50 52 51 53 55 55 54 53 51 50 51 52 51 52 52 53 54 56 57 60 62 63 66 69 72 77 81 84 85 79 80 83 83 84 86 87 87 87 86
49 47 45 48 51 54 52 53 55 55 55 55 53 54 53 53 52 52 52 52 53 55 57 58 61 63 66 70 74 80 83 86 81 79 80 81 83 86 87 88 87 87 87
48 49 48 49 49 50 50 51 51 53 54 53 52 52 53 52 51 51 52 54 55 56 58 59 62 65 69 73 78 82 84 83 76 77 78 79 83 86 87 88 88 88 85
49 50 51 50 49 48 47 46 47 48 48 50 51 51 51 51 53 54 56 58 60 60 61 62 65 68 71 75 77 78 82 76 77 79 80 82 83 83 86 88 88 87 82
56 54 51 48 47 48 48 46 47 49 49 50 51 52 53 54 56 58 60 61 61 60 62 64 67 70 73 76 77 79 77 82 87 92 88 86 84 86 87 86 84 83 84
59 54 50 50 50 50 48 47 48 50 51 52 54 55 56 56 57 59 60 61 62 62 63 66 69 72 74 78 69 64 66 76 88 90 89 89 86 86 87 85 81 86 89
62 59 56 55 55 54 53 54 54 55 56 57 57 57 57 58 58 60 61 62 62 60 61 65 71 75 75 65 65 77 81 85 83 83 83 81 81 82 81 79 86 92 90
64 66 67 65 60 57 57 58 59 59 59 58 59 60 60 62 63 64 63 64 61 60 62 65 73 72 67 69 73 75 78 79 79 78 79 77 76 74 80 88 92 88 88
66 67 68 66 65 64 66 66 65 64 65 65 64 64 65 66 66 65 62 61 59 59 61 68 69 68 68 69 72 73 74 77 79 77 73 70 72 79 84 84 84 83 84
73 72 72 73 74 76 77 74 73 75 76 74 72 70 66 66 65 62 60 58 58 60 63 67 69 68 68 68 68 70 72 72 69 66 68 73 77 78 79 81 80 81 81
81 82 81 81 80 80 76 75 72 72 73 71 67 66 63 61 59 56 57 60 62 63 66 68 67 67 66 67 68 65 63 62 66 71 75 76 78 81 83 84 84 82 82
79 78 78 78 77 74 75 65 60 60 59 56 55 52 51 55 59 59 60 63 67 67 64 63 63 62 62 62 60 65 73 76 74 76 78 80 81 82 83 83 81 80 80
65 64 62 62 61 58 56 52 48 46 46 48 52 54 58 62 63 65 67 65 63 63 62 60 61 64 67 68 70 69 71 73 75 77 80 82 83 82 81 80 79 79 78
50 43 38 41 41 44 46 48 47 49 49 53 56 58 58 60 65 69 62 58 58 58 60 62 64 66 67 66 67 69 71 75 77 79 81 81 80 79 77 76 76 75 77
39 48 48 46 49 49 50 57 58 59 60 60 61 62 59 59 61 59 60 60 60 61 62 64 65 66 67 68 70 71 73 76 78 80 81 80 79 77 74 72 72 73 75
47 49 51 56 57 58 58 60 61 61 61 63 60 56 58 60 60 57 59 60 61 62 63 64 66 68 69 72 75 77 78 79 80 81 80 79 75 72 70 70 71 73 74
52 55 55 57 59 60 61 60 59 60 61 61 58 55 55 55 57 59 61 61 62 63 65 68 70 72 74 77 78 78 78 78 78 77 74 71 69 69 70 70 71 71 72
57 57 54 56 56 58 59 57 56 57 56 55 55 57 58 59 61 62 63 64 65 66 68 71 71 73 75 76 75 73 73 73 73 72 70 68 68 69 69 70 69 69 68
55 54 56 59 58 57 55 52 51 54 56 57 57 58 58 58 60 62 63 64 66 67 69 69 70 71 72 73 73 73 72 72 71 71 70 69 68 68 69 68 68 66 63
56 56 53 51 50 51 52 51 51 52 55 55 55 54 57 59 61 63 65 67 68 68 70 72 73 75 75 76 76 75 73 72 71 70 70 69 69 68 67 66 64 61 56
55 52 49 49 49 48 49 49 51 52 53 54 53 55 58 61 64 66 67 69 71 73 76 79 80 80 80 79 77 75 72 71 70 70 70 69 67 65 63 61 57 53 48
49 48 47 43 43 45 47 49 51 52 52 54 57 59 62 64 66 69 73 77 80 82 85 86 87 87 83 78 75 72 70 68 68 67 65 63 61 59 56 52 49 45 41
42 43 43 45 45 46 49 51 53 55 58 60 61 63 65 70 74 77 81 85 87 90 92 93 91 86 79 74 70 68 66 64 62 60 57 56 55 51 48 45 43 39 37
42 43 44 47 49 52 54 56 59 62 63 64 66 68 72 76 80 85 90 94 97 99 97 92 85 77 72 69 67 65 62 60 57 54 52 50 47 45 42 40 38 36 35

GFSGL_500_spd_060.txt.gz
Wind_Speed
51 48 48 44 44 45 41 41 44 46 46 45 48 50 51 51 50 50 52 52 51 53 54 55 56 56 57 58 58 60 62 64 64 64 67 71 74 77 78 77 77 79 79
52 54 48 45 45 48 49 49 51 51 50 52 53 54 54 53 53 53 53 53 53 55 56 56 57 57 57 57 58 62 63 62 61 64 69 72 75 78 76 75 76 77 78
55 54 51 49 47 47 49 52 55 54 50 50 51 52 53 53 53 53 53 54 54 55 55 55 55 55 55 55 58 60 59 60 63 66 69 70 76 78 76 75 76 80 86
55 53 52 49 49 47 48 50 49 49 49 49 50 52 53 53 52 52 52 52 52 51 50 51 52 53 54 55 56 58 60 63 66 70 71 74 79 75 78 78 83 87 91
57 53 50 49 48 47 49 50 49 50 48 48 48 49 50 50 50 50 50 50 50 51 53 55 56 57 56 58 58 61 62 65 69 71 74 77 77 75 77 81 85 90 90
56 52 52 50 50 50 51 51 51 49 49 49 49 49 50 51 52 53 53 54 55 56 58 59 60 59 60 60 63 63 63 66 70 66 70 71 70 76 82 84 88 87 84
56 56 55 55 54 55 56 53 50 50 52 52 51 50 51 53 55 56 57 60 61 62 63 63 63 64 65 65 67 66 67 68 68 69 68 72 74 79 83 85 82 80 80
60 59 58 59 60 59 59 58 55 53 52 52 53 54 55 57 57 57 58 62 64 65 64 64 66 69 70 68 67 69 72 71 66 71 77 76 78 80 80 78 78 80 78
67 66 66 65 65 64 63 63 61 61 61 59 59 54 53 56 59 61 60 62 66 69 69 69 71 73 72 71 71 73 67 71 74 71 70 73 76 77 76 75 73 73 73
71 70 70 70 70 69 68 67 68 66 64 61 60 61 65 66 63 66 68 73 71 71 71 73 71 71 70 71 70 69 69 65 67 68 70 71 71 71 69 69 73 77 78
76 74 73 73 72 72 73 73 72 72 72 71 70 71 71 71 69 69 68 68 69 71 71 71 70 68 68 68 64 62 61 67 67 66 65 66 65 65 69 74 73 77 80
81 80 78 76 76 76 76 77 77 76 75 73 73 72 73 73 71 66 65 68 68 66 62 62 63 61 60 62 65 67 70 68 67 65 63 62 65 67 69 72 75 79 81
76 78 77 80 81 79 79 78 77 71 69 70 69 66 65 64 63 62 57 53 53 49 51 51 56 61 64 69 71 69 67 67 66 63 64 63 64 68 70 74 77 80 82
68 67 72 71 70 72 67 61 59 61 60 59 57 56 54 50 48 47 47 49 55 56 59 63 64 65 63 64 63 63 63 64 63 64 67 70 71 73 74 76 80 83 83
64 65 62 64 63 56 54 50 47 43 39 40 43 46 45 46 51 51 53 60 62 63 63 62 62 62 60 60 60 58 62 67 70 72 71 71 73 76 79 79 81 81 81
65 66 59 53 51 50 39 35 35 40 45 51 48 51 55 55 59 61 61 60 60 60 59 60 61 61 58 59 61 64 65 67 70 72 74 76 78 79 80 80 80 79 77
44 52 48 46 43 34 39 43 47 50 51 55 57 60 58 57 55 57 59 60 61 60 60 59 59 60 60 62 65 67 68 69 73 75 77 78 79 80 81 79 77 75 73
47 34 29 33 37 42 48 51 52 53 53 54 56 56 57 56 54 55 57 57 55 55 56 58 61 63 63 65 69 70 71 72 74 77 78 79 79 79 78 77 75 73 71
39 42 43 40 42 48 51 53 56 53 53 55 58 58 55 54 54 51 51 53 56 59 60 60 61 63 65 68 71 73 73 73 76 78 78 79 78 78 77 76 74 71 70
47 47 45 46 47 50 52 55 55 56 58 56 53 51 50 50 52 52 53 54 56 58 59 59 64 68 70 72 74 74 74 78 80 81 80 80 78 76 75 73 71 69 67
51 50 51 51 50 52 57 58 59 58 55 51 49 49 48 51 51 51 52 53 55 59 61 65 69 71 73 76 77 78 80 82 84 85 84 81 77 74 72 70 67 65 64
60 59 61 60 51 56 59 56 53 54 52 48 46 46 45 47 49 50 52 56 60 64 66 70 73 76 78 81 85 87 89 91 92 89 83 76 72 69 66 64 63 61 59
67 66 57 60 58 54 54 50 51 49 47 47 46 47 48 49 51 55 59 63 66 69 72 75 79 82 85 88 91 94 96 95 89 81 74 69 65 62 61 58 56 54 52
63 56 50 48 48 47 44 44 44 43 43 44 47 49 52 54 58 62 67 70 72 75 78 81 84 88 91 94 97 98 92 85 77 71 67 64 61 58 55 52 51 49 46
45 43 45 45 40 39 42 42 42 43 44 47 52 55 60 64 67 69 71 74 77 80 84 88 92 95 98 97 90 84 78 72 67 65 63 60 57 53 49 47 46 44 40
42 39 36 34 36 38 39 40 43 46 50 55 58 62 64 68 72 75 78 80 83 87 92 95 97 96 84 74 70 70 69 65 61 60 58 54 50 49 46 43 40 38 36

GFSGL_500_spd_063.txt.gz
Wind_Speed
55 54 51 48 47 45 43 42 45 49 52 53 55 52 50 50 52 53 53 54 53 54 55 55 56 57 58 59 60 60 61 60 58 58 59 59 61 63 64 64 64 67 71
54 53 52 53 50 48 49 48 48 49 53 55 56 54 53 51 50 50 50 51 52 53 54 56 57 58 58 58 58 58 57 56 57 56 59 63 65 64 64 65 68 72 71
54 53 52 50 51 54 55 52 52 52 52 53 54 55 52 50 51 51 51 52 52 52 53 53 54 54 54 54 54 55 57 57 57 55 58 61 64 66 67 67 74 72 71
54 54 56 57 55 54 53 54 51 48 48 49 50 51 52 52 51 51 51 52 50 50 49 49 49 50 53 55 57 57 58 58 58 58 60 63 65 66 67 70 74 75 73
62 60 57 57 55 55 51 51 51 49 49 50 50 51 54 54 53 53 54 55 54 53 53 53 53 54 56 58 59 60 61 60 62 63 64 69 69 69 70 76 75 75 76
60 59 58 58 58 55 53 52 53 53 54 54 55 54 54 56 57 58 58 57 57 55 56 56 57 58 58 59 61 62 64 65 66 67 68 67 70 73 76 76 76 76 74
60 60 60 60 60 60 59 58 57 58 59 59 58 59 58 58 60 60 59 59 60 61 61 59 59 58 59 61 64 67 68 68 70 71 70 70 75 81 79 74 72 72 73
60 60 61 62 64 65 66 66 66 67 67 65 64 61 60 61 61 63 64 66 64 60 58 60 61 62 65 69 70 71 72 72 74 73 76 79 80 72 68 69 69 71 71
71 71 69 68 69 68 68 68 68 69 71 71 70 68 65 63 63 61 62 63 64 68 69 71 71 69 70 72 72 72 75 74 75 76 75 74 69 67 65 67 67 67 66
81 80 78 77 76 75 74 74 75 75 74 74 71 69 68 68 68 68 68 70 70 70 69 70 71 71 72 72 73 75 76 72 68 67 64 63 62 64 62 62 62 62 65
80 80 81 81 77 75 73 76 77 76 74 73 73 73 74 72 71 71 68 68 69 67 66 68 69 70 70 72 69 56 55 60 63 61 59 58 58 59 60 64 66 67 67
73 73 73 72 73 73 73 72 72 73 74 74 76 73 71 68 64 64 64 64 63 60 59 61 62 62 52 48 50 57 63 63 60 60 61 62 62 64 63 64 65 68 71
71 70 70 69 70 69 67 68 67 63 66 63 63 64 58 55 54 57 56 54 50 47 46 45 47 49 53 57 61 60 61 63 64 64 65 64 62 63 65 68 71 72 76
72 71 70 69 68 68 68 66 60 64 58 58 56 54 52 49 46 43 43 44 47 48 50 53 54 56 57 60 60 61 62 63 63 63 62 64 64 67 69 72 74 74 76
75 72 69 63 62 60 60 59 60 58 58 48 48 42 40 40 43 45 47 48 50 50 54 59 61 60 60 60 61 62 61 61 60 61 64 66 69 71 73 75 78 80 81
70 65 62 54 54 55 55 50 47 44 49 41 35 39 41 44 44 49 51 54 54 55 55 55 57 57 57 58 59 59 59 61 64 66 67 70 72 74 77 78 78 81 83
64 60 53 52 51 45 39 32 36 38 38 35 41 46 45 49 51 51 54 55 55 54 55 55 56 56 56 56 57 58 62 65 67 70 71 74 76 78 79 79 80 82 83
58 52 53 58 55 51 46 46 39 37 34 38 45 47 48 48 49 52 54 55 56 55 53 52 53 53 55 58 60 60 64 67 70 73 74 76 78 80 81 83 86 87 87
52 50 48 50 49 45 32 36 41 41 41 43 43 45 48 49 51 53 58 55 53 53 51 51 54 57 58 61 63 66 70 73 76 78 80 81 83 85 88 90 92 90 85
52 48 46 48 51 43 40 41 46 43 44 47 45 47 47 48 51 52 52 52 53 50 50 51 55 58 60 64 67 71 75 78 80 82 86 88 90 92 93 93 91 85 76
39 45 44 53 45 44 43 45 47 47 48 47 46 46 45 47 48 47 47 45 47 49 52 56 59 62 65 68 73 76 79 83 86 88 90 92 94 93 91 88 78 69 66
48 51 55 54 46 46 47 49 54 55 46 44 45 46 47 44 41 39 40 42 46 51 55 59 64 68 71 75 78 82 86 89 90 92 94 93 89 85 79 73 67 63 62
38 47 60 62 54 52 54 52 47 47 46 43 43 43 41 39 39 40 44 49 53 57 61 64 69 73 76 80 84 87 90 93 94 94 88 80 72 70 69 64 61 59 56
38 42 52 56 56 52 48 44 45 44 42 40 38 37 38 39 42 47 51 56 59 61 66 71 75 80 84 87 89 90 92 92 85 72 64 63 64 63 61 58 55 53 50
42 44 48 49 43 41 42 42 42 38 37 38 38 39 42 45 50 53 57 60 64 69 75 78 80 84 88 89 91 89 81 66 60 63 61 60 58 56 54 51 48 47 44
42 40 40 38 39 41 41 40 38 37 38 40 42 45 48 51 54 58 62 67 73 77 80 83 86 90 90 87 76 65 62 64 62 59 57 54 52 49 47 45 42 40 39

GFSGL_500_spd_069.txt.gz
Wind_Speed
53 53 53 52 51 50 49 48 48 48 48 49 49 51 51 53 56 59 61 63 64 65 64 60 57 56 56 56 56 55 55 56 56 57 56 55 55 55 57 58 59 61 62
55 55 55 53 52 51 50 51 50 49 50 51 51 52 56 58 56 57 58 59 59 59 60 59 58 59 60 60 59 58 58 58 59 60 61 60 57 56 58 61 62 62 62
58 59 58 56 57 57 57 56 54 55 56 56 59 61 58 55 55 56 57 56 56 56 57 57 57 58 59 60 60 61 62 63 62 63 63 62 60 59 61 62 63 65 67
59 59 59 59 59 59 60 60 62 61 59 60 60 58 56 57 56 56 55 54 55 56 57 59 61 61 61 63 64 64 66 66 66 65 63 63 63 61 63 65 66 67 70
64 64 64 64 64 64 64 63 58 57 58 58 58 58 61 59 59 59 61 62 62 62 63 64 65 66 67 66 66 67 69 70 70 70 70 67 67 67 67 70 70 75 75
62 61 60 60 58 57 58 61 62 63 63 62 63 63 64 65 66 65 66 65 67 69 70 71 72 73 73 74 74 73 72 74 74 74 72 68 69 70 73 69 74 74 75
61 62 62 62 63 64 66 65 65 68 69 70 70 71 72 74 75 76 77 76 77 77 78 80 79 78 76 74 75 75 75 74 72 68 68 66 66 71 70 73 75 76 79
66 67 68 70 70 71 72 75 76 77 78 79 80 79 79 80 81 82 82 82 81 81 81 80 78 76 75 74 74 73 73 67 66 66 63 64 67 72 75 74 77 79 70
77 78 79 79 79 79 80 81 81 81 81 80 79 78 78 79 80 80 79 79 79 80 82 81 79 76 77 74 75 76 76 75 76 79 81 79 76 74 75 77 74 58 56
79 80 80 81 81 82 81 81 81 81 80 78 76 75 74 74 75 75 75 73 72 72 73 73 74 71 71 68 71 73 75 75 73 71 76 71 74 68 56 51 53 55 56
80 80 80 80 79 78 78 77 77 78 79 78 78 76 74 73 70 69 69 68 70 71 71 71 69 70 67 62 63 68 63 59 60 64 57 57 51 50 51 52 52 52 53
79 79 80 80 81 82 83 84 84 84 84 84 83 82 81 79 77 75 73 71 70 70 69 69 65 66 69 62 60 62 53 48 46 44 50 49 49 48 49 51 53 54 55
83 84 85 86 87 87 88 88 88 88 87 87 87 85 83 79 78 76 73 68 66 63 60 62 63 63 59 58 45 41 47 47 48 48 50 50 49 52 54 56 57 59 61
88 88 89 89 88 88 87 85 83 81 78 77 76 75 72 69 67 63 60 58 57 55 58 58 57 47 38 39 43 45 47 47 47 46 49 51 52 55 58 60 61 64 64
85 84 82 81 79 78 77 76 75 75 74 72 68 63 60 59 52 51 55 55 54 47 44 41 36 38 42 42 41 45 48 47 48 49 52 55 55 58 60 61 62 64 66
80 79 78 78 77 77 76 76 74 70 66 61 57 52 47 43 44 53 50 52 46 39 42 44 42 38 37 37 40 41 46 50 51 52 54 55 57 58 59 61 64 68 71
80 79 78 77 77 76 74 70 67 63 57 52 47 39 38 42 44 42 36 41 40 36 33 37 36 35 35 36 40 45 49 53 55 55 56 59 61 62 63 64 67 70 74
76 74 72 70 69 68 67 63 59 55 49 40 34 37 39 42 44 38 37 40 39 37 36 37 36 37 38 40 43 47 52 56 58 58 59 60 61 63 65 68 72 76 81
70 68 67 65 63 62 61 58 51 47 41 39 39 41 42 48 36 30 30 32 35 37 36 41 40 39 40 44 47 50 54 57 57 57 59 59 62 66 70 74 79 83 88
67 65 63 60 57 54 54 50 44 38 37 36 33 39 41 37 32 28 30 32 34 35 38 40 41 44 47 49 51 53 55 55 56 57 60 62 66 71 76 81 86 90 92
67 63 60 57 53 48 45 44 38 33 32 33 38 38 38 35 29 30 32 35 36 38 40 42 46 47 48 50 53 53 54 56 58 61 63 67 73 78 83 88 91 89 80
60 56 54 52 47 41 36 31 33 34 33 39 39 40 37 36 35 35 37 39 40 41 42 43 44 47 49 50 51 53 56 59 61 65 69 74 79 82 87 86 76 67 64
52 48 46 43 40 34 32 30 32 30 38 40 38 36 35 33 34 35 37 39 41 42 42 44 45 47 49 51 54 56 58 62 67 72 76 80 84 83 74 65 63 62 60
46 40 36 35 37 34 32 34 34 34 34 34 35 36 34 33 33 35 37 40 40 40 43 45 47 50 52 54 57 60 65 69 73 77 80 80 72 63 60 57 56 55 55
37 33 32 31 30 31 32 32 35 35 34 36 37 36 33 33 35 38 38 39 42 44 46 48 50 52 55 58 62 65 70 75 77 77 71 60 56 54 54 53 53 53 53
31 31 27 28 31 34 35 34 33 33 35 37 35 32 31 34 38 39 41 44 45 48 49 51 53 56 59 63 67 71 74 74 72 61 53 52 51 50 50 51 53 53 52

GFSGL_500_spd_072.txt.gz
Wind_Speed
53 52 53 53 53 54 54 55 56 55 54 54 55 54 55 56 56 56 56 58 61 64 61 60 59 61 59 59 59 59 59 60 61 58 58 59 58 59 60 61 61 60 61
54 54 54 54 55 55 55 54 54 54 54 54 55 54 54 55 56 58 60 62 61 59 59 59 58 59 60 61 62 62 63 64 65 64 65 64 63 64 64 64 64 64 65
58 59 59 58 56 55 57 57 58 58 58 58 58 59 60 59 57 58 57 58 58 59 60 59 60 62 63 66 68 69 68 69 70 70 71 71 71 70 68 66 65 66 68
60 60 60 59 59 59 60 62 64 65 65 65 64 61 57 56 57 59 60 60 61 63 66 67 68 69 70 71 71 73 74 75 76 77 78 78 77 74 72 69 66 68 72
61 62 64 66 65 65 64 62 60 59 58 57 58 59 61 63 64 65 66 67 69 70 71 72 73 75 76 78 78 79 81 82 82 83 82 79 75 72 70 67 68 70 73
63 62 61 60 59 59 60 62 63 63 63 65 66 68 69 71 73 74 75 75 76 76 75 77 79 81 83 85 86 86 86 85 84 82 78 75 74 71 71 73 74 73 68
60 61 62 63 64 66 67 68 70 72 73 74 75 77 77 78 79 79 79 78 79 80 81 83 83 83 84 84 85 83 84 84 84 80 76 72 71 65 62 63 66 67 69
66 67 69 70 71 73 75 76 77 77 78 79 79 80 80 81 80 80 80 81 80 81 81 82 83 82 82 80 79 79 77 76 77 77 75 72 74 74 75 79 81 82 82
75 76 78 79 80 81 81 81 81 81 79 79 79 79 78 78 80 82 83 82 83 82 80 79 78 77 76 77 75 73 75 74 71 71 73 70 69 70 70 76 72 74 76
83 85 87 88 88 87 87 85 83 83 83 82 82 84 85 86 85 86 86 87 86 85 84 83 82 80 77 75 74 74 73 71 65 63 66 65 66 69 71 70 74 67 51
84 85 86 86 85 86 86 86 87 87 88 87 87 87 88 89 90 90 89 89 88 87 87 86 83 80 78 77 75 73 71 68 64 71 70 65 61 59 54 44 46 48 47
83 83 84 85 85 86 87 88 89 90 90 91 91 90 90 90 89 87 85 82 80 77 76 78 78 76 74 71 67 69 66 64 65 64 60 61 48 41 43 47 46 48 50
84 85 86 87 88 90 91 92 93 94 93 92 91 88 84 80 77 74 73 73 72 72 69 64 61 63 57 58 59 61 60 56 58 61 46 40 37 38 40 45 49 50 50
89 90 92 93 94 94 94 93 92 90 88 86 83 81 79 77 76 76 72 69 66 61 57 48 49 51 51 60 56 48 49 45 41 38 39 39 38 38 39 42 44 47 51
93 94 95 96 95 94 92 91 89 87 85 83 81 79 76 74 70 65 61 56 51 48 46 44 47 49 51 48 39 37 39 42 41 40 40 37 38 40 42 44 47 51 55
90 90 91 91 90 89 88 84 83 80 77 75 73 69 66 60 54 49 44 43 42 38 41 42 42 41 38 39 40 38 37 36 37 37 36 38 40 43 46 49 53 57 60
92 90 88 87 86 85 82 79 76 73 71 68 65 61 54 48 44 38 34 33 35 37 38 37 40 39 38 38 38 36 35 35 36 38 39 42 45 49 51 53 57 61 65
90 88 86 83 81 78 75 73 70 66 64 62 59 53 46 41 36 36 31 34 39 42 46 38 33 31 32 33 34 36 36 35 38 42 44 46 48 51 55 58 62 65 68
85 83 81 77 74 71 68 66 63 59 57 54 50 43 38 35 31 27 29 35 37 36 30 27 26 27 30 32 35 35 37 40 42 43 46 49 52 54 57 61 65 69 73
78 77 76 73 69 66 64 61 58 54 50 48 43 35 30 28 27 26 31 35 33 30 29 29 29 31 32 34 35 37 39 41 43 44 48 51 54 57 61 65 70 74 77
73 72 70 68 64 61 59 54 51 48 43 39 38 33 31 26 26 30 34 38 34 31 30 31 33 34 35 37 40 41 42 43 44 48 51 55 57 61 66 70 72 76 79
64 63 61 59 56 55 51 48 45 41 35 33 30 28 25 25 31 33 33 30 31 32 33 34 32 33 36 39 40 42 43 46 50 52 55 58 62 65 67 72 77 76 69
58 57 55 54 51 48 45 42 39 35 32 30 27 26 29 32 31 30 31 31 30 30 30 31 34 36 38 41 43 45 48 51 54 55 58 62 66 68 72 75 70 58 54
53 54 53 50 47 41 36 36 33 34 35 36 32 30 32 30 30 31 33 33 32 29 30 34 36 39 42 44 47 48 51 53 55 59 63 65 69 73 73 60 52 48 47
49 50 48 43 38 33 31 30 28 33 34 34 31 30 31 29 33 35 34 31 30 32 34 38 41 43 45 48 49 50 53 56 59 62 64 70 74 67 53 49 45 45 48
40 38 35 31 27 29 28 27 29 33 33 31 29 26 27 32 36 34 31 31 33 36 39 41 44 46 49 50 52 54 57 59 62 65 69 70 61 49 47 45 44 47 49

GFSGL_500_spd_075.txt.gz
Wind_Speed
46 47 49 51 53 54 54 54 55 57 58 59 59 59 60 60 61 61 61 62 62 61 62 61 60 60 59 59 60 62 63 66 67 63 65 66 65 67 68 69 69 70 68
51 53 53 53 54 55 55 57 58 58 58 59 59 60 61 61 61 62 63 65 65 64 60 58 57 58 59 61 64 66 68 70 73 72 72 72 73 73 74 75 76 76 76
56 56 57 57 57 58 59 58 58 58 59 60 62 64 65 64 62 62 60 59 56 56 60 62 64 66 68 71 74 75 76 78 79 79 78 79 79 80 82 83 84 84 82
56 55 55 56 57 58 60 61 63 65 65 66 64 62 60 59 60 61 62 62 64 67 69 72 74 75 77 79 81 82 83 83 84 84 85 87 87 89 89 87 84 81 77
57 57 57 59 61 62 63 63 63 63 61 60 60 61 62 64 66 69 72 74 76 77 78 79 79 81 82 83 84 83 85 86 88 90 92 91 89 86 81 79 80 77 74
59 58 57 57 58 59 60 61 63 63 64 66 67 68 69 72 75 77 79 81 80 81 81 81 82 82 82 81 82 83 85 87 87 87 87 85 80 80 78 72 73 70 61
58 60 61 62 64 65 67 69 71 72 73 75 76 78 80 83 83 83 83 83 82 81 81 81 81 82 83 83 83 84 85 86 86 85 83 80 78 76 70 64 62 65 64
63 65 67 69 71 73 74 75 77 78 80 82 84 85 87 86 86 85 84 85 85 85 86 86 86 86 87 87 86 87 87 87 87 86 84 79 72 69 70 69 71 63 70
71 73 75 77 77 79 80 81 82 83 84 84 86 87 85 85 85 84 86 86 86 87 88 90 91 92 92 91 90 89 88 87 84 83 80 77 71 70 69 68 67 71 72
77 79 81 82 82 83 84 86 87 88 88 88 88 88 88 88 90 90 90 90 90 91 91 91 91 89 87 85 83 78 77 77 77 76 75 76 69 63 64 60 64 67 68
82 84 84 86 87 89 90 91 92 92 92 93 94 93 95 95 94 95 95 94 93 91 87 83 80 77 74 72 71 72 72 72 71 68 61 58 60 64 61 62 63 65 59
85 87 87 88 89 90 91 92 93 94 94 94 95 95 96 97 96 94 91 89 86 84 82 80 78 76 74 72 70 67 64 61 52 50 54 59 60 57 59 58 57 49 41
85 85 87 88 90 92 93 93 94 94 94 92 93 93 92 92 91 88 86 83 81 78 76 73 71 69 65 63 59 55 49 46 47 49 57 58 51 48 45 41 37 38 37
86 87 89 90 91 93 94 95 97 96 96 95 93 92 91 88 86 82 79 76 73 69 66 61 57 56 56 54 52 46 42 43 46 46 42 36 34 37 38 37 34 35 37
87 89 91 92 93 94 95 96 96 94 92 89 87 85 83 79 76 72 68 64 60 57 52 49 49 47 42 40 40 42 39 35 32 33 34 35 33 33 33 33 34 35 38
89 91 92 94 94 95 94 91 89 88 87 84 81 78 74 69 65 60 56 52 47 45 44 39 37 32 32 34 35 35 36 38 37 34 32 31 30 31 33 35 37 40 43
93 94 95 94 92 91 91 92 88 81 78 75 71 67 64 59 53 48 44 42 41 40 36 31 27 30 37 39 40 39 37 34 30 28 29 30 32 33 34 37 42 45 48
92 92 92 91 90 89 85 82 79 74 68 64 61 57 52 47 42 38 38 34 32 31 27 30 33 37 41 39 36 34 32 30 28 28 29 31 33 35 38 42 46 50 52
90 90 89 86 83 80 78 76 73 69 64 59 54 48 45 41 36 32 30 31 25 27 27 28 31 33 33 31 29 28 27 26 27 29 32 33 35 38 42 45 49 54 57
86 85 83 81 77 73 71 69 64 59 55 52 47 41 38 35 30 30 30 25 25 26 27 28 29 28 28 28 29 26 26 27 30 31 32 35 38 42 46 50 54 57 60
80 78 76 74 69 65 63 60 56 52 50 46 41 38 35 29 24 25 24 25 27 27 26 27 28 29 29 28 25 26 29 30 32 33 36 39 43 47 50 53 55 57 62
73 71 68 66 63 59 57 54 51 48 44 41 38 34 30 30 28 28 26 27 27 27 28 30 30 28 25 22 26 29 31 33 35 37 41 44 47 49 52 54 58 61 65
67 66 65 63 59 56 53 50 47 43 39 37 35 31 31 32 34 33 30 29 28 26 28 31 31 27 24 27 30 32 34 36 38 42 45 47 50 53 55 58 61 63 65
63 60 58 57 54 51 48 46 43 39 36 34 31 29 31 36 38 34 31 28 26 28 31 32 28 27 29 30 32 34 37 40 43 46 49 52 54 55 58 62 63 64 54
52 48 47 43 39 41 42 41 37 33 30 28 28 31 34 36 34 33 29 27 28 30 32 30 28 28 29 32 35 38 40 43 45 48 52 54 56 58 61 63 61 54 45
50 47 40 36 37 35 32 29 24 23 24 28 31 31 30 31 31 27 25 28 29 31 30 28 28 29 32 35 38 40 42 45 49 50 52 55 59 62 62 60 54 44 43

GFSGL_500_spd_078.txt.gz
Wind_Speed
42 44 46 48 49 51 53 55 57 58 60 61 63 63 64 64 64 64 64 64 64 66 67 66 63 63 60 61 61 63 67 71 75 67 71 73 73 74 76 78 80 81 81
46 48 49 51 52 53 55 56 58 59 60 61 61 60 61 62 63 65 67 67 66 64 62 61 60 62 63 66 70 73 76 78 82 80 79 80 81 82 83 84 85 86 87
51 52 52 53 55 56 58 59 60 59 60 62 64 65 66 66 67 67 65 63 63 63 64 66 68 71 72 75 78 80 83 85 87 88 85 86 85 86 87 88 88 89 90
54 53 53 55 56 57 58 58 59 60 61 61 61 62 63 65 66 67 68 69 70 72 74 75 76 80 83 84 86 87 87 89 89 89 88 87 86 87 88 88 88 87 84
55 55 57 56 56 56 56 56 57 57 58 60 62 64 67 68 70 71 73 74 76 77 80 82 84 86 88 88 88 86 87 87 87 88 87 87 86 86 87 87 87 86 82
58 57 56 56 56 56 57 59 60 62 64 67 70 71 72 74 76 78 79 80 81 83 83 84 85 86 86 86 86 87 87 88 88 89 90 90 89 89 90 89 83 84 82
57 56 57 58 59 61 63 65 68 70 72 74 76 78 79 80 82 83 84 85 86 87 87 87 88 87 88 87 88 89 90 93 94 93 92 92 92 90 87 83 73 80 75
59 60 60 63 66 69 71 73 75 77 79 82 84 86 87 86 87 87 88 89 90 90 91 91 92 92 93 93 93 93 93 93 91 88 86 83 81 80 79 76 72 67 64
61 64 68 71 73 76 78 80 83 85 86 87 89 89 90 90 92 93 96 97 96 95 96 96 96 95 93 92 93 91 88 86 84 81 78 77 75 74 73 70 66 63 60
69 74 77 79 81 82 84 86 87 89 91 91 91 92 93 94 96 97 99 100 98 98 96 94 93 90 89 88 86 84 82 81 79 78 75 74 73 72 66 57 50 59 58
77 79 82 84 84 85 87 89 91 91 92 94 95 95 96 97 98 99 100 101 101 100 99 98 95 91 87 85 81 78 75 72 71 71 70 68 65 61 52 51 49 53 52
80 81 82 85 86 89 91 92 93 94 95 95 95 95 95 97 99 100 100 100 98 95 92 89 86 82 79 76 73 70 67 64 62 61 59 56 52 50 52 51 51 53 50
80 81 84 86 89 91 92 92 91 93 95 95 95 95 96 99 100 98 93 89 86 83 80 78 75 71 67 63 60 58 56 54 52 48 43 42 44 44 49 48 45 39 34
83 85 87 89 89 89 90 91 91 93 96 99 99 99 99 98 95 92 88 82 77 75 71 68 62 56 54 52 50 49 46 39 35 34 37 39 39 36 35 33 32 32 32
84 85 86 87 88 89 90 91 94 96 100 102 100 99 97 93 88 82 76 72 67 64 60 54 48 46 45 43 39 33 32 27 27 28 30 31 32 34 36 34 28 24 25
82 84 85 87 88 91 93 93 96 98 98 97 96 94 90 86 79 72 66 60 55 49 46 44 42 41 37 30 27 26 28 31 33 33 35 37 36 34 30 26 23 25 28
83 85 88 90 92 94 96 98 97 92 93 91 89 85 81 75 68 61 55 48 43 40 41 39 36 34 30 28 29 31 34 34 36 36 36 32 27 24 24 25 27 30 33
86 88 90 92 94 95 94 93 93 92 87 86 81 75 69 63 56 50 43 40 36 35 34 34 31 28 26 27 28 30 33 34 32 28 24 21 22 24 26 28 31 34 37
87 89 90 90 90 90 90 90 89 87 84 79 72 63 61 56 49 43 37 35 30 28 30 29 24 22 23 26 28 28 29 26 23 22 22 23 24 26 28 31 35 38 42
85 86 87 88 88 88 87 84 81 79 74 68 62 57 55 51 44 37 34 29 26 24 27 24 22 23 25 26 26 25 25 23 23 23 23 24 27 29 32 35 38 42 45
83 84 85 85 83 80 78 77 75 71 66 60 56 53 50 45 40 35 31 30 26 24 27 23 22 25 26 26 24 22 18 20 24 23 24 26 28 32 35 38 42 46 50
79 81 81 79 76 74 73 70 68 64 60 56 51 49 44 39 37 34 31 33 32 31 27 24 22 25 26 25 23 21 21 24 24 25 26 28 32 35 38 42 46 49 52
73 78 76 72 72 70 66 61 58 56 52 48 46 44 41 38 36 32 33 34 37 36 30 26 23 26 27 27 26 25 24 24 25 26 29 32 35 38 41 43 44 48 53
72 74 73 70 67 63 57 54 51 50 49 45 42 38 37 36 33 32 33 34 39 36 31 27 25 28 28 28 27 25 25 25 27 29 32 34 37 38 40 44 50 54 58
74 76 74 68 59 56 50 46 41 42 41 39 34 33 33 29 28 31 30 32 36 33 31 27 28 30 29 28 26 26 27 28 30 32 34 36 38 40 44 48 53 57 61
79 79 70 61 53 47 41 34 36 38 31 27 24 20 20 24 26 29 27 31 31 31 28 30 31 31 29 28 28 28 30 32 33 35 38 40 41 45 48 53 57 59 62

GFSGL_500_spd_081.txt.gz
Wind_Speed
40 42 43 43 45 47 49 51 53 54 56 57 58 61 63 64 64 64 65 66 66 65 64 64 65 67 68 69 71 72 74 77 81 70 76 77 79 81 82 84 85 86 87
43 44 46 47 49 50 52 54 55 55 57 59 61 63 63 63 64 63 62 62 62 63 66 68 70 73 74 76 78 80 82 84 87 86 81 86 87 86 87 87 88 89 88
47 48 49 51 52 53 54 54 56 59 61 61 61 60 61 61 61 61 62 64 66 69 71 73 75 77 78 81 83 84 86 88 90 92 88 90 90 88 89 89 88 88 90
52 53 54 54 54 54 56 58 59 58 57 57 57 58 59 62 64 65 68 70 72 74 77 79 81 83 84 85 87 88 89 90 91 92 92 90 90 88 87 88 87 88 89
56 56 55 55 56 58 58 57 55 55 55 57 58 61 63 67 70 71 74 77 79 81 84 86 87 87 88 90 91 91 93 94 94 94 94 93 91 90 89 90 90 89 88
56 55 56 58 59 57 55 54 54 55 57 61 65 67 71 74 77 79 82 84 87 90 91 91 91 91 92 92 93 95 96 97 97 97 96 94 90 90 89 89 87 83 80
58 60 61 58 55 55 54 54 56 61 66 69 72 74 75 79 83 86 89 91 92 93 95 95 96 96 95 95 95 95 95 96 98 97 94 90 89 87 84 81 79 76 74
61 58 56 55 55 55 56 59 66 70 72 74 77 81 84 86 90 93 94 96 97 99 100 100 99 98 98 97 97 97 99 97 97 98 95 90 87 82 80 77 74 71 70
57 56 57 58 58 60 64 70 74 77 79 82 84 87 90 92 95 96 98 100 102 100 101 101 99 99 101 101 101 100 96 92 89 86 84 82 77 73 70 70 68 67 64
58 59 61 62 65 68 73 77 80 83 84 87 90 93 95 98 99 101 103 105 102 101 99 100 102 103 103 102 98 94 87 81 77 76 74 71 68 66 64 61 59 56 51
63 65 67 69 72 76 79 82 85 88 92 92 94 96 99 99 100 101 101 101 103 103 104 105 105 104 100 95 88 81 75 69 69 67 64 62 58 55 52 48 43 42 45
68 70 72 75 77 80 83 86 89 91 91 93 96 95 96 97 96 97 100 105 108 109 107 104 99 92 84 78 72 67 64 60 59 58 55 48 44 41 38 37 39 39 39
74 75 77 77 80 82 84 86 88 90 92 92 93 94 92 93 98 102 105 106 105 103 97 90 83 77 72 68 62 56 51 49 49 46 40 37 34 32 32 32 32 31 31
75 76 76 78 79 82 85 86 88 89 91 92 93 95 96 97 101 102 102 100 97 91 86 79 71 66 62 57 51 47 44 41 37 32 28 24 24 24 26 26 26 26 25
74 75 77 80 81 83 83 85 85 86 91 93 95 99 101 98 98 99 96 92 88 81 73 66 58 55 52 48 43 41 38 33 26 23 24 25 25 26 28 27 26 24 23
74 76 78 80 82 82 82 83 85 88 91 95 99 103 100 99 94 92 89 85 79 69 60 53 47 46 44 41 37 34 29 25 27 30 30 30 31 29 25 21 19 18 18
74 76 78 79 80 82 85 87 87 87 93 97 100 99 97 94 91 87 82 76 66 58 49 43 38 38 36 34 30 27 22 22 25 28 30 30 24 19 17 17 17 18 20
74 76 77 79 82 84 87 90 93 96 96 96 95 92 92 89 85 79 70 64 57 49 41 34 27 31 29 28 23 18 21 24 25 24 23 22 18 17 17 18 19 21 23
74 76 78 81 83 86 90 93 96 99 99 94 89 87 84 82 77 68 61 56 51 43 37 27 26 27 27 22 17 21 22 20 20 22 21 20 19 18 17 19 21 24 26
75 77 79 82 84 86 88 91 94 96 93 90 84 78 78 75 67 59 54 49 45 39 32 27 27 24 22 20 18 21 20 18 15 18 20 19 18 18 20 22 24 27 31
75 78 80 82 83 85 86 88 90 90 90 84 79 74 67 63 58 55 49 45 41 36 30 28 29 24 23 22 19 20 20 18 17 21 20 19 21 21 22 24 27 30 33
74 76 77 78 79 79 81 83 86 86 82 78 71 63 58 56 54 49 45 43 39 35 32 33 34 27 24 23 20 22 23 22 24 25 21 22 22 24 26 27 30 32 35
73 73 74 75 75 77 78 82 84 83 79 72 60 54 53 53 52 46 41 41 38 34 32 33 36 32 27 25 23 24 26 27 27 24 24 24 26 27 28 30 33 34 38
72 71 71 73 74 76 79 82 82 82 69 58 49 48 51 51 48 38 36 34 34 32 30 31 34 34 30 27 26 26 29 29 26 26 26 27 29 30 31 33 36 38 41
70 68 70 73 73 77 79 82 83 72 53 46 41 44 45 42 34 27 30 32 29 28 29 29 34 33 27 28 30 30 31 30 29 29 30 31 33 34 35 37 39 40 43
69 69 70 73 76 79 80 83 79 53 45 38 36 34 29 23 20 18 17 19 23 26 26 28 31 27 28 32 32 31 33 32 32 32 33 36 37 38 39 40 41 43 45

GFSGL_500_spd_084.txt.gz
Wind_Speed
40 39 40 41 42 43 45 47 48 50 52 53 55 56 56 58 61 63 63 62 61 61 61 63 65 68 70 73 76 79 82 86 89 78 82 83 84 85 85 86 88 89 90
40 40 42 43 45 46 47 49 51 52 54 54 55 57 59 60 60 58 57 57 59 60 63 66 69 72 75 78 81 84 87 89 93 93 87 88 88 88 88 87 87 88 88
41 42 43 44 46 47 50 52 53 53 54 55 57 58 57 54 53 54 56 59 62 65 67 69 72 77 82 86 88 89 91 93 94 96 96 94 92 91 88 86 85 85 86
44 44 47 49 52 53 54 53 53 54 56 58 56 54 52 51 54 57 59 62 64 68 73 77 82 86 90 92 94 95 97 98 98 99 98 95 91 88 88 89 89 89 88
52 54 56 58 58 57 56 55 55 59 59 55 53 51 52 57 59 64 68 72 75 77 80 85 90 93 96 97 99 100 103 102 99 98 96 95 94 95 93 91 88 85 84
59 59 59 59 58 56 56 59 62 61 57 55 54 55 60 65 70 74 77 80 83 86 89 93 96 98 101 102 101 101 99 99 99 101 101 101 99 96 90 86 82 80 77
58 59 58 56 56 60 63 61 57 55 55 57 60 63 68 72 76 79 82 87 90 93 96 100 101 101 102 102 101 100 100 103 107 109 106 101 98 89 84 78 74 72 69
59 59 58 60 62 61 58 56 55 58 60 63 67 71 74 78 82 86 90 94 95 96 97 98 100 100 99 101 103 104 104 105 106 104 96 87 81 76 72 70 69 66 63
58 60 62 61 58 55 56 58 61 64 67 70 73 76 80 84 88 92 94 95 95 97 98 98 99 102 104 105 105 105 105 101 93 85 80 77 74 68 65 62 58 55 53
60 59 58 55 56 58 61 64 67 70 72 75 78 83 86 89 92 94 95 97 101 99 98 98 101 103 103 105 104 101 94 85 79 73 70 68 65 59 54 50 46 41 39
58 56 56 59 63 64 67 70 72 75 78 80 84 86 89 90 91 93 95 96 97 98 100 99 99 102 103 100 94 86 79 74 67 64 61 58 54 50 43 36 33 30 30
57 59 62 68 69 70 73 76 78 81 83 86 89 88 88 90 91 92 94 96 99 101 100 100 101 99 93 86 80 75 68 62 57 54 50 47 43 35 31 28 25 23 23
62 67 70 71 72 76 77 79 82 85 87 86 88 91 89 89 91 93 95 97 98 100 104 100 93 87 84 79 72 65 58 53 47 42 38 35 27 21 20 20 19 20 20
67 69 72 75 76 78 81 82 83 81 83 87 88 89 91 89 92 93 93 95 99 99 97 90 85 82 75 67 59 54 50 43 37 33 29 25 18 20 22 23 22 18 17
70 72 74 76 77 79 78 77 78 82 84 85 87 90 92 89 90 94 96 99 99 91 86 83 81 71 61 54 49 46 39 34 31 28 24 20 21 23 24 21 18 20 21
70 71 73 74 75 74 76 76 78 80 83 85 89 91 90 93 93 95 98 95 90 85 82 79 69 57 50 42 37 35 31 25 23 22 22 23 25 24 20 19 20 20 17
70 70 71 72 73 75 77 78 78 78 83 85 87 89 92 92 96 97 93 89 84 81 77 68 56 48 42 29 28 29 25 20 19 20 20 23 21 19 20 20 19 15 14
66 68 70 72 74 76 78 81 83 84 84 84 87 90 93 95 96 93 87 84 80 73 64 57 51 42 35 23 25 26 22 16 17 15 17 20 21 22 20 17 15 15 17
70 72 72 74 77 79 80 81 82 84 84 85 87 90 93 95 93 87 83 79 72 60 55 54 47 38 30 21 25 25 23 17 15 14 16 20 21 20 19 18 17 17 20
70 72 75 76 77 79 80 80 82 84 85 88 91 93 94 94 89 82 78 68 58 53 51 50 41 36 28 22 25 23 22 18 16 14 15 18 21 20 20 21 20 21 23
73 74 75 77 78 78 79 81 83 85 87 88 91 91 90 89 82 77 66 54 52 50 51 44 37 34 30 24 25 27 24 19 18 18 19 22 23 21 23 23 23 24 26
72 74 75 75 75 77 79 81 83 84 85 87 88 86 84 82 79 63 52 49 52 52 46 39 36 33 32 29 27 31 28 24 21 22 26 27 28 26 26 25 26 28 29
72 73 72 74 76 77 79 80 81 81 83 84 84 82 78 80 67 52 48 50 52 47 36 35 35 32 33 31 31 32 30 25 26 26 28 29 28 28 28 29 30 31 32
70 71 74 75 77 77 77 79 77 78 81 81 81 80 74 81 60 45 47 45 40 31 28 28 30 30 31 29 29 31 28 28 29 30 30 30 31 32 32 32 33 35 36
70 72 73 75 74 75 74 73 73 76 78 80 80 80 81 78 55 42 35 32 33 29 30 32 29 27 27 24 27 28 28 30 33 31 31 33 34 35 34 35 36 37 39
72 72 72 70 70 70 68 69 73 76 78 80 83 89 80 57 47 39 34 32 31 30 27 21 21 25 25 24 28 29 31 35 35 33 34 35 36 36 37 38 39 40 42

GFSGL_500_spd_087.txt.gz
Wind_Speed
40 41 42 41 41 41 42 43 44 45 48 50 51 54 56 57 57 57 59 62 60 53 52 52 55 58 63 67 71 76 81 86 89 74 85 85 87 91 92 93 92 90 88
42 42 41 42 41 42 44 46 47 49 51 53 55 57 57 56 57 60 60 56 50 50 53 57 62 68 71 75 80 84 88 92 97 98 94 97 96 97 97 93 91 90 90
42 41 42 43 43 43 46 49 51 54 56 57 57 57 55 58 61 59 55 52 53 57 61 66 71 74 78 83 87 90 94 98 103 105 103 102 100 99 96 95 92 92 92
43 43 44 45 47 49 53 56 57 57 57 57 55 57 61 62 58 56 55 58 61 65 71 74 77 81 86 90 94 98 101 104 105 103 104 103 101 96 96 96 95 96 91
44 46 50 54 54 55 56 56 57 58 58 56 59 62 62 59 57 58 60 63 66 69 73 78 83 88 91 95 99 101 100 100 100 103 104 104 99 101 99 95 93 84 77
52 56 58 60 59 56 55 56 58 58 60 63 63 61 57 57 59 62 65 67 70 75 79 84 88 92 95 97 98 99 100 102 105 105 102 104 102 101 94 84 77 73 70
60 62 61 58 56 58 60 59 59 61 63 62 57 56 59 62 65 67 69 75 79 84 87 90 93 95 96 96 98 100 103 104 105 106 108 105 96 86 80 73 69 67 63
60 58 57 58 60 59 57 59 62 61 59 55 58 60 63 68 71 74 78 81 85 88 90 92 93 94 98 102 101 101 102 102 104 104 101 90 82 76 72 68 62 56 52
59 60 60 58 58 60 61 60 59 57 56 58 63 66 69 74 77 79 83 86 89 91 90 90 93 96 99 101 101 100 100 101 100 93 86 81 75 69 65 58 51 45 40
60 58 59 61 60 57 57 57 55 57 60 64 69 72 75 78 81 85 89 91 91 90 90 92 95 99 99 101 101 100 99 96 89 83 81 74 66 60 53 47 37 29 26
59 61 60 56 54 55 55 56 59 61 65 71 72 77 80 83 89 91 91 90 91 93 94 95 97 98 99 100 101 99 92 86 83 78 68 59 54 47 37 30 24 22 21
58 54 54 54 54 56 59 61 64 68 71 73 76 79 83 89 90 90 88 89 91 93 93 94 97 97 99 100 95 89 84 80 70 59 52 44 37 32 24 20 17 16 15
53 54 55 55 58 61 63 65 70 72 74 77 80 83 87 87 88 88 87 90 91 92 94 96 98 99 100 95 88 83 77 63 55 47 38 31 27 21 20 18 19 16 14
54 54 57 60 62 64 67 70 74 77 79 82 85 86 84 84 84 86 89 89 90 92 93 95 97 99 93 85 82 73 59 50 43 35 29 25 19 20 18 20 15 12 12
55 60 62 63 66 70 73 75 77 80 82 83 82 82 81 82 84 87 89 90 91 91 92 93 95 90 83 79 67 55 46 41 34 27 24 22 17 19 20 16 16 17 17
61 63 65 69 71 73 75 77 78 78 79 79 78 80 81 82 84 85 87 87 89 91 93 94 88 82 76 65 52 47 38 29 25 25 22 19 17 21 19 19 19 19 19
65 68 70 72 74 75 75 74 72 74 75 76 79 80 82 82 84 86 87 88 90 92 94 91 82 74 62 51 47 41 29 22 24 22 20 16 19 21 20 21 22 22 18
69 72 73 74 74 72 70 71 72 72 73 77 79 81 82 83 85 87 88 89 92 94 92 85 74 58 50 45 44 34 28 21 23 23 21 15 18 23 25 26 25 21 20
71 70 69 68 66 70 71 71 73 76 77 78 79 81 82 83 84 88 90 92 92 89 84 75 63 52 49 49 42 30 28 22 24 25 21 17 16 21 23 24 23 22 23
67 64 65 68 69 69 72 75 75 76 77 79 81 81 81 82 84 87 89 89 88 84 77 68 55 50 52 49 38 28 30 23 24 26 23 20 17 22 25 25 24 24 25
65 66 67 70 70 72 73 74 76 77 78 79 79 81 83 84 86 87 87 87 85 80 76 61 52 52 51 41 33 28 32 27 25 26 25 21 18 24 28 27 26 27 28
67 68 69 71 72 73 75 75 77 78 77 78 80 82 83 85 85 83 85 85 82 79 60 53 52 46 36 33 32 31 32 32 25 26 24 24 24 28 29 28 30 30 30
69 71 71 72 73 74 75 77 77 77 78 80 81 81 83 83 79 78 80 81 80 67 48 43 43 38 30 29 31 32 31 34 28 27 26 26 27 31 29 28 29 30 32
72 71 72 73 74 74 75 76 76 77 78 78 77 78 77 75 74 78 76 79 75 53 40 37 35 35 32 30 30 31 29 30 30 28 29 31 33 33 31 31 31 31 33
71 71 71 73 74 74 75 76 75 76 76 74 73 70 70 71 72 75 76 76 58 43 38 37 35 33 32 29 30 25 26 27 27 31 31 34 37 34 32 34 34 34 34
70 72 73 73 73 73 73 75 76 76 70 66 65 66 68 70 72 71 76 67 47 42 36 37 35 33 32 27 23 25 29 26 29 31 33 38 39 35 35 37 36 35 37

GFSGL_500_spd_093.txt.gz
Wind_Speed
39 38 38 39 39 40 42 44 44 44 44 43 43 46 48 53 57 60 62 65 64 64 65 65 66 65 62 61 63 67 71 75 77 71 81 84 88 93 96 101 104 106 105
42 41 40 42 43 43 44 45 46 44 42 42 43 48 55 58 61 62 63 62 65 66 64 66 64 60 61 63 67 71 73 78 82 82 85 91 98 102 104 104 105 105 102
43 43 43 44 45 46 46 47 45 42 41 43 49 56 59 60 62 62 62 65 66 65 67 65 59 60 63 67 69 73 76 82 89 92 90 98 102 106 106 106 103 98 98
45 43 44 46 47 49 48 45 42 43 45 51 56 56 60 62 62 62 65 65 66 67 63 61 61 64 67 69 72 76 82 88 92 96 100 104 107 106 105 103 95 98 100
44 45 46 47 48 48 46 43 45 48 55 59 59 60 63 63 63 65 65 67 66 63 61 61 64 68 70 72 76 82 88 93 96 100 105 106 107 105 105 100 101 101 98
44 46 47 48 49 48 46 47 51 55 60 61 62 66 64 64 63 64 67 67 63 61 62 65 67 70 73 77 81 88 95 99 100 104 105 107 104 100 99 101 102 96 91
46 48 48 49 48 47 48 50 57 62 64 65 67 64 64 63 63 66 66 63 62 63 66 67 69 73 75 79 86 93 97 100 103 104 104 101 100 98 99 99 94 88 78
49 49 49 47 48 50 55 64 64 65 66 67 65 65 63 63 66 66 63 64 64 67 69 70 73 76 80 84 90 94 97 100 100 101 99 98 98 98 98 93 84 73 58
50 50 51 51 56 65 67 66 65 66 67 65 66 63 63 66 65 63 64 64 68 70 72 75 78 82 85 91 93 95 97 96 97 96 96 96 96 95 91 80 66 53 43
50 51 56 63 65 63 64 65 68 67 66 66 64 64 66 66 64 66 65 67 71 72 75 80 83 86 89 94 94 95 94 94 93 94 94 94 94 89 81 65 53 41 37
57 61 62 61 62 64 66 68 67 67 67 65 65 68 65 62 66 67 68 72 73 75 80 84 87 89 92 94 92 93 94 93 92 92 90 91 89 77 64 53 39 34 30
65 62 63 66 70 69 69 68 67 68 67 66 69 62 62 65 68 71 74 77 78 80 86 89 90 91 94 91 91 92 92 92 91 89 90 91 82 63 53 43 32 31 26
65 68 72 71 69 67 66 67 68 67 69 66 64 64 66 69 73 74 76 79 82 86 89 88 89 90 89 88 89 90 91 91 89 89 89 85 71 54 48 35 30 29 21
67 65 64 66 67 68 68 69 65 64 63 66 66 66 71 74 75 77 81 84 86 89 87 86 88 87 87 88 89 89 90 89 88 88 86 77 59 48 42 32 29 29 24
63 63 65 66 68 68 65 62 62 64 67 66 68 71 73 75 78 81 84 86 85 85 86 88 87 86 86 87 88 90 89 89 87 88 85 72 52 44 39 31 31 30 25
62 62 61 62 62 61 60 61 65 67 67 68 70 74 77 79 84 86 86 84 87 85 87 87 85 86 87 86 88 88 88 88 88 86 78 59 47 39 35 29 30 31 25
58 58 59 58 54 51 59 65 66 67 68 73 76 77 81 85 88 86 83 84 85 85 85 84 85 86 85 86 87 86 87 90 88 79 68 50 45 36 34 27 28 30 27
52 52 53 53 54 61 64 68 70 72 75 76 79 82 87 86 84 83 82 83 81 83 83 85 85 83 83 84 84 87 88 86 79 69 53 47 41 34 33 26 26 27 27
56 55 55 58 61 64 67 70 72 75 78 82 85 87 86 81 80 79 79 79 80 82 83 83 81 81 80 82 81 82 81 74 68 58 47 46 37 32 33 28 24 24 28
60 58 62 63 64 66 70 73 78 82 84 84 84 80 78 77 77 77 77 79 81 81 81 79 81 79 77 76 75 74 68 65 61 49 44 43 34 30 33 31 28 25 27
63 64 65 68 70 73 76 79 83 85 82 78 76 75 75 75 75 77 78 79 79 78 79 79 77 75 74 72 71 67 61 60 57 46 42 38 32 31 31 35 33 29 27
69 70 70 72 75 78 80 82 82 81 77 73 74 73 74 75 77 77 77 77 77 78 77 75 74 74 72 65 64 59 56 58 56 45 42 39 33 34 32 33 35 33 31
72 72 74 76 76 77 78 79 77 73 72 73 74 75 76 76 75 75 75 75 77 75 74 73 71 69 66 63 64 56 57 60 56 45 40 39 35 33 33 33 35 35 35
80 82 85 85 83 84 83 77 73 73 74 75 76 76 74 72 72 72 73 74 74 76 72 72 71 66 63 61 61 55 58 61 56 44 40 39 39 36 37 37 37 38 36
77 77 75 76 77 79 77 76 75 75 75 74 73 71 71 72 73 75 74 74 74 73 71 67 67 60 60 63 57 57 61 64 54 43 40 40 41 39 37 38 38 39 39
76 76 77 78 78 77 75 76 75 74 71 71 71 73 73 76 75 73 74 73 71 70 69 63 62 62 60 55 57 62 66 61 50 42 40 41 41 42 36 34 36 37 39

GFSGL_500_spd_096.txt.gz
Wind_Speed
44 44 44 43 41 41 41 42 42 43 46 47 48 48 47 44 45 48 54 57 59 62 64 64 65 65 67 68 63 60 62 65 66 65 69 73 75 79 84 92 98 102 105
47 45 45 44 43 44 43 44 45 47 48 49 49 46 45 45 47 54 57 60 62 64 65 67 66 66 69 64 61 62 66 67 68 69 73 77 81 88 93 98 102 107 110
47 46 46 46 44 44 45 47 48 49 50 49 47 45 46 48 53 57 59 62 66 65 67 67 66 68 64 62 64 66 67 69 71 75 77 83 89 94 97 102 109 108 108
48 47 47 46 46 46 47 48 50 51 50 48 46 46 48 53 58 60 62 67 67 67 68 66 68 66 63 63 67 68 69 71 75 78 84 90 95 100 105 108 106 105 101
47 48 48 48 47 48 49 51 51 52 49 47 46 50 54 59 62 64 66 68 68 69 67 68 68 65 63 66 68 70 73 76 80 84 91 97 101 104 107 106 104 99 94
49 49 48 48 48 49 51 53 52 51 46 48 50 54 59 64 66 67 70 68 69 68 68 70 66 66 65 69 73 75 78 82 85 89 95 102 103 105 104 100 96 92 92
50 50 49 49 51 52 53 53 51 48 49 52 55 61 67 66 66 71 70 69 69 68 70 70 68 67 68 73 75 78 82 87 91 95 101 103 101 102 99 95 92 91 92
48 47 48 50 51 52 53 53 52 52 53 57 63 67 66 66 71 72 70 70 69 71 70 67 69 70 73 76 79 82 86 91 95 98 102 100 97 97 92 89 89 89 85
50 50 51 51 53 53 53 53 53 54 60 64 66 64 67 71 72 70 71 70 72 73 68 68 71 73 76 79 82 84 88 94 96 100 99 94 94 91 89 87 86 85 69
49 51 53 54 55 53 54 56 55 64 65 65 66 69 73 72 69 73 72 70 73 70 69 72 74 76 78 81 84 88 90 93 96 94 93 92 91 88 86 86 84 73 56
52 54 55 55 55 56 57 58 64 68 66 69 72 73 73 71 72 74 72 73 70 69 70 74 78 79 82 84 88 91 90 92 93 93 91 90 88 85 84 83 79 62 49
55 56 55 55 56 58 60 63 69 70 73 76 74 72 71 70 74 73 74 71 69 70 73 76 78 82 86 89 92 91 89 92 92 92 89 88 84 84 83 82 71 52 42
58 60 60 61 60 63 67 69 71 74 73 71 71 70 70 73 73 72 71 71 71 73 76 78 81 86 90 90 87 88 90 89 90 88 86 84 84 83 83 78 62 47 41
60 60 61 64 68 70 71 74 73 71 71 70 71 72 73 71 70 68 71 72 73 76 78 81 85 88 86 85 85 86 86 87 87 85 84 83 83 83 81 70 54 43 39
65 67 68 70 71 70 69 70 70 70 70 71 70 69 69 68 69 70 72 75 78 80 82 85 89 87 83 81 82 83 85 86 85 85 83 83 84 84 76 61 49 41 38
61 63 63 64 65 66 67 68 68 67 67 67 67 66 68 70 70 73 77 79 81 82 85 85 84 83 83 84 83 83 84 85 83 80 81 81 80 78 65 53 46 36 34
57 59 62 64 65 66 65 63 64 66 62 62 65 69 70 71 76 78 80 80 81 84 84 84 83 83 83 82 82 82 82 81 79 79 75 75 74 68 60 49 43 33 30
54 54 54 55 56 56 56 56 56 57 62 65 68 71 75 79 80 80 80 82 84 86 85 82 81 81 81 81 80 81 79 77 76 73 72 68 65 61 53 45 42 32 28
53 52 51 51 54 57 55 56 60 63 66 69 73 73 76 79 79 82 84 86 88 86 81 80 80 80 79 79 79 78 77 74 70 67 66 61 56 56 49 42 41 33 30
51 52 55 58 58 58 61 63 64 66 68 71 75 76 78 82 84 85 89 88 84 82 80 80 79 79 79 78 76 75 71 71 65 65 63 58 53 52 50 42 39 35 33
59 61 63 63 62 63 64 65 66 68 71 75 78 81 82 85 87 86 84 82 82 81 79 78 78 78 77 75 73 71 69 64 66 64 60 56 52 52 50 41 39 37 35
62 64 65 66 67 68 69 71 72 74 76 78 82 85 83 83 84 81 79 79 78 78 76 76 75 73 72 71 71 67 65 65 65 62 58 51 52 53 51 41 40 38 38
71 73 74 75 76 76 76 76 76 76 76 79 83 83 81 79 80 79 80 80 78 77 75 73 71 73 72 70 66 65 63 64 64 60 54 52 53 56 51 42 39 41 39
80 82 80 78 78 77 78 79 80 81 83 82 79 80 81 82 82 81 80 77 73 73 72 71 72 72 69 66 63 64 63 63 59 51 51 54 54 58 51 43 41 42 41
81 78 76 75 75 76 75 77 76 75 76 79 81 82 83 81 80 77 74 73 71 72 75 74 70 66 65 64 65 66 64 61 54 52 54 56 58 57 47 41 41 42 43
80 78 77 77 77 77 77 78 81 82 84 83 83 80 79 78 76 75 74 73 74 73 69 67 66 65 64 64 67 65 60 55 54 56 58 61 60 54 45 41 39 41 42

GFSGL_500_spd_102.txt.gz
Wind_Speed
53 53 51 51 50 51 51 50 49 48 48 50 50 50 51 51 54 54 54 54 54 54 53 52 50 51 57 61 66 65 66 70 70 66 66 64 61 64 66 70 73 76 80
56 56 54 55 54 54 54 53 53 52 51 52 53 52 54 54 55 57 57 56 55 54 54 51 52 56 61 65 67 67 69 70 68 65 66 62 62 64 68 71 75 79 85
61 60 59 57 57 56 56 57 57 56 55 55 55 55 55 57 57 59 59 57 56 54 53 53 55 59 63 66 68 69 70 68 65 65 64 63 64 65 70 75 78 82 88
64 64 61 59 58 58 58 58 58 57 58 56 56 57 57 59 59 59 58 57 56 55 54 54 55 61 64 69 70 73 70 65 65 65 64 65 65 69 72 76 82 87 92
66 65 64 63 62 60 59 59 58 57 58 57 57 58 60 60 59 59 58 57 56 55 56 54 58 61 63 70 73 71 66 65 65 65 65 67 68 73 76 78 85 89 93
69 67 65 63 62 61 60 59 58 58 57 58 59 60 60 60 59 57 57 57 56 57 56 57 63 67 71 73 72 69 66 67 65 65 67 68 72 75 78 80 85 90 92
66 64 62 60 58 58 59 59 59 60 59 59 59 60 59 58 57 56 56 56 58 58 57 63 67 69 74 70 69 66 67 69 68 67 70 74 76 79 80 84 88 90 94
70 64 63 62 61 61 61 59 59 60 61 61 59 57 56 56 57 55 56 58 58 60 63 64 68 71 70 68 65 66 66 69 67 70 72 76 78 80 81 85 88 90 92
68 70 60 60 60 61 60 58 56 55 55 56 55 56 55 54 54 56 58 60 61 65 63 69 68 69 68 66 63 68 69 66 70 73 75 78 79 79 83 86 89 90 89
61 64 66 62 57 56 53 48 49 50 52 52 52 52 51 54 57 58 61 63 64 64 70 69 70 66 65 61 67 68 68 70 73 76 77 79 79 80 84 87 86 87 85
58 62 57 54 51 50 51 51 54 53 54 53 51 53 56 57 58 60 62 64 70 70 69 70 65 64 64 64 68 67 69 73 74 75 77 78 78 82 84 83 80 80 76
65 63 54 51 50 53 54 53 52 51 51 53 55 54 55 58 62 64 68 68 68 71 70 64 63 64 64 66 68 70 72 74 75 75 77 77 81 84 83 81 79 74 73
63 60 60 59 61 61 57 58 56 53 54 56 59 61 61 60 63 69 69 70 70 66 61 63 63 65 66 69 70 72 73 73 74 76 77 80 82 81 79 76 73 69 72
63 62 63 67 62 57 55 55 55 53 53 55 58 60 64 69 69 70 68 64 61 60 64 65 65 66 68 69 71 72 72 74 76 75 78 81 79 77 73 71 66 68 71
51 50 50 48 48 48 49 50 53 57 59 62 64 69 73 70 65 61 59 59 59 61 63 63 63 65 68 71 71 73 75 76 75 78 82 80 77 73 71 66 66 68 70
56 60 62 62 62 61 60 61 63 66 70 70 68 65 62 58 57 59 56 48 55 58 60 61 63 66 66 69 72 75 77 77 80 81 81 79 75 72 66 64 68 70 67
47 48 49 52 55 58 60 62 64 64 61 58 55 52 55 53 49 48 48 56 57 60 61 64 66 69 70 74 76 76 77 79 79 78 76 74 71 66 64 66 69 67 61
48 50 51 51 51 52 52 52 52 51 51 52 55 51 50 51 50 52 57 59 59 62 65 67 68 72 76 77 79 79 80 80 79 74 73 74 67 66 66 69 68 64 60
46 47 48 48 49 50 51 51 49 49 52 53 51 53 56 59 61 62 63 62 64 67 69 70 73 76 79 81 82 82 82 78 75 75 72 69 68 69 70 67 62 61 57
48 48 48 48 49 51 49 49 50 51 53 54 58 62 64 66 69 70 70 69 69 70 73 76 79 81 82 83 84 83 78 75 76 74 70 70 69 71 67 61 60 58 56
53 54 54 53 52 53 55 56 57 58 59 62 64 67 70 72 74 74 73 73 71 75 79 81 82 83 84 83 82 80 79 76 76 76 71 70 71 67 61 59 58 57 60
50 52 52 53 54 57 59 61 62 63 64 66 69 70 72 74 75 74 74 71 73 77 78 83 85 85 85 85 84 82 78 78 77 75 69 68 63 58 57 55 55 58 57
64 63 62 61 62 64 66 68 70 72 73 74 75 76 77 77 76 76 75 69 73 79 82 82 81 81 82 82 80 78 75 77 70 69 66 61 57 60 56 57 59 59 49
69 71 72 72 73 74 75 75 76 77 78 78 78 78 79 79 79 78 77 76 78 80 82 84 85 81 79 79 78 81 79 70 68 65 62 60 62 57 57 62 59 50 46
76 77 78 80 81 83 83 83 83 82 82 82 81 81 81 80 80 80 81 82 83 85 86 86 86 86 84 81 76 74 66 68 65 61 61 59 58 56 60 62 49 47 49
84 85 86 87 88 87 87 87 87 87 87 86 85 85 84 84 84 84 84 85 87 87 87 86 84 83 81 79 74 70 71 66 62 62 58 53 53 58 60 51 51 50 51

GFSGL_500_spd_105.txt.gz
Wind_Speed
54 53 53 54 52 53 55 55 56 56 55 54 53 53 54 56 56 56 56 56 57 58 58 58 58 58 56 56 54 57 59 60 60 65 70 69 64 65 62 60 62 62 66
60 58 56 56 57 56 59 58 59 58 60 58 58 57 57 58 59 58 59 59 59 60 60 60 58 58 57 55 55 57 57 60 66 70 71 66 62 62 60 61 61 65 69
64 63 62 60 59 60 61 62 64 62 62 62 62 61 60 61 61 61 61 61 61 61 61 60 59 58 57 56 57 58 60 67 68 72 70 64 62 61 63 62 64 68 72
46 48 64 64 63 65 66 65 66 65 65 66 66 65 64 62 62 62 63 62 62 62 61 60 59 58 57 57 59 59 64 67 72 71 65 62 62 63 62 64 69 72 75
48 50 49 58 68 67 68 69 69 69 68 67 67 67 65 63 62 62 63 63 63 62 60 59 58 58 57 60 59 61 63 71 69 66 62 62 65 64 64 67 70 73 74
52 50 50 50 65 70 70 70 70 70 69 68 66 63 65 64 62 63 63 63 61 60 60 59 58 58 59 61 60 61 65 73 67 62 61 63 66 65 68 69 71 73 74
50 49 48 51 60 68 70 68 68 70 70 70 68 65 63 63 64 63 62 61 60 58 58 57 57 59 62 61 63 66 72 65 63 61 60 64 65 68 70 72 71 73 75
51 52 50 52 59 67 65 66 66 67 67 65 66 65 64 63 64 63 62 58 58 57 56 56 58 63 62 61 70 71 64 63 61 60 61 68 69 70 71 71 72 73 76
57 55 53 56 58 62 63 63 62 62 62 64 65 65 64 61 61 60 58 56 54 54 55 61 61 59 64 71 69 65 60 61 60 61 66 67 69 70 69 70 72 73 78
60 61 60 59 58 60 64 64 64 56 53 50 51 53 52 52 52 51 51 56 56 57 60 59 61 68 70 68 64 59 60 61 62 66 68 69 68 67 69 70 72 76 79
61 63 64 64 64 64 55 54 49 48 49 48 52 53 56 55 54 54 53 54 57 56 59 65 69 64 67 63 58 60 61 63 65 67 68 68 67 67 69 70 74 77 78
58 62 67 68 67 67 64 58 57 59 56 57 54 51 50 53 57 58 58 57 59 64 66 63 66 67 61 56 62 62 62 63 65 65 65 64 66 69 69 71 75 76 75
59 61 62 63 66 65 71 60 56 49 53 55 57 57 57 54 55 59 62 63 62 60 64 69 65 58 55 62 63 63 62 62 62 62 63 66 68 71 71 73 75 75 70
53 54 56 58 60 61 60 55 55 56 58 55 53 53 55 56 58 59 58 60 64 68 70 59 59 53 58 61 61 61 61 61 61 63 66 69 70 71 72 75 74 70 67
47 49 51 52 54 56 57 57 54 51 51 53 56 58 60 62 62 63 64 67 67 62 58 58 52 58 59 59 60 59 60 63 65 66 69 71 71 72 74 73 72 68 67
45 46 47 51 57 59 59 60 62 60 60 59 59 60 62 66 68 72 67 57 57 60 52 47 56 60 57 58 61 64 66 68 67 68 70 71 72 73 72 70 69 67 67
43 44 46 48 50 52 52 52 53 53 53 54 55 56 58 56 52 49 55 62 58 50 48 55 57 58 64 63 65 67 67 69 71 71 72 73 76 74 72 70 69 67 67
46 46 48 48 48 48 49 49 47 47 47 47 47 47 50 54 57 55 51 48 50 54 58 59 63 64 63 66 70 72 74 75 74 75 74 77 77 76 72 71 69 69 67
49 50 50 48 48 49 49 49 49 48 47 48 49 50 52 51 49 50 50 53 60 62 65 65 66 67 68 70 72 75 76 77 77 77 79 79 76 74 74 73 70 67 67
48 50 52 53 52 51 51 51 53 54 55 54 54 56 56 58 60 61 63 64 66 69 71 72 71 72 72 74 78 77 76 75 78 79 76 75 75 76 74 71 69 64 63
51 54 56 57 55 55 55 56 57 58 60 60 61 63 66 68 70 70 71 72 73 76 76 75 75 75 77 79 79 77 76 77 76 74 75 75 72 71 70 73 62 65 60
53 56 58 60 63 63 63 64 65 65 66 67 67 69 70 72 73 75 76 77 77 78 78 78 78 78 78 77 77 78 78 78 75 75 76 73 71 71 75 63 62 58 57
59 60 63 64 66 67 68 69 70 71 71 72 73 75 77 78 78 79 79 78 79 80 81 82 81 80 79 78 78 80 80 80 78 74 73 70 70 69 65 61 60 58 59
66 68 69 70 71 72 74 75 76 77 78 79 81 82 82 83 82 82 82 82 82 83 83 83 82 82 81 80 79 78 78 79 79 76 72 73 69 66 61 61 59 56 57
73 74 76 78 78 79 80 82 84 84 86 86 86 87 86 86 85 84 85 85 84 84 83 82 83 83 85 85 86 86 86 83 79 77 74 70 65 63 62 60 61 56 56
82 82 83 86 88 90 90 89 90 89 88 89 89 88 87 85 83 81 80 80 80 80 80 80 80 80 81 82 83 83 81 78 75 73 72 66 62 62 63 62 65 60 56

GFSGL_500_spd_108.txt.gz
Wind_Speed
41 45 51 51 50 51 52 51 51 52 53 54 57 59 59 58 58 58 59 59 61 63 63 62 62 63 62 61 60 59 57 56 54 56 58 62 65 66 67 65 63 61 60
37 44 48 52 53 55 55 54 56 58 57 57 59 61 64 63 63 63 62 62 63 64 65 64 64 63 63 62 61 59 58 56 55 56 56 65 63 68 65 64 60 61 61
37 37 42 42 46 56 59 60 62 63 62 63 63 64 64 65 65 66 67 65 66 66 66 66 65 64 62 64 60 59 57 56 56 55 63 58 66 66 63 61 59 59 63
38 39 41 44 45 47 54 61 64 64 65 63 65 66 65 66 66 66 69 70 67 66 66 65 65 63 63 65 60 58 56 57 56 60 57 61 65 64 60 58 59 64 64
45 45 48 51 52 52 54 57 62 66 68 68 66 66 65 65 64 67 69 70 66 64 67 64 64 64 62 58 57 57 56 57 58 61 61 59 62 61 59 57 63 65 66
52 53 53 55 55 57 59 61 64 65 65 66 67 67 67 66 66 64 66 69 69 68 67 65 62 61 59 56 55 56 57 59 60 63 64 60 60 59 57 62 64 66 64
55 56 58 59 60 61 61 62 62 63 65 65 65 65 65 70 61 59 60 62 62 63 65 63 63 56 55 57 58 56 59 60 61 66 59 60 57 57 59 64 65 64 61
58 58 61 62 61 60 60 62 62 62 62 64 65 67 65 64 66 65 64 66 66 63 62 56 62 58 56 55 55 59 56 64 64 61 57 58 58 61 64 65 63 60 60
59 58 59 60 59 59 60 62 63 63 64 66 66 66 62 59 58 55 54 54 52 55 55 54 53 53 54 59 58 59 63 63 63 55 58 58 61 63 65 64 60 59 61
59 59 57 57 57 57 58 60 61 62 65 66 67 67 61 57 58 60 55 48 49 54 54 62 63 61 57 58 61 64 63 63 53 58 58 63 63 63 62 60 59 61 62
52 53 54 55 56 58 59 60 61 63 65 65 70 70 63 60 57 58 60 59 60 61 57 58 60 60 61 65 64 64 63 57 58 60 64 64 62 61 58 59 62 62 64
48 49 51 54 56 58 59 62 64 68 70 70 70 67 67 68 65 60 61 57 61 64 54 69 67 64 63 63 61 61 57 55 59 64 65 62 59 57 61 63 63 64 64
41 45 48 52 55 57 58 60 62 63 62 60 58 56 53 55 59 60 59 61 57 52 61 59 59 58 61 62 60 55 56 60 63 64 58 56 59 62 63 63 62 63 62
41 43 46 50 52 52 51 50 50 49 49 50 50 51 53 54 54 57 58 56 51 60 54 67 67 66 63 59 58 57 64 63 61 55 56 61 64 64 62 64 65 65 62
39 40 41 42 45 46 46 46 46 46 46 48 49 52 56 59 59 58 58 57 55 61 63 62 61 62 60 59 62 66 63 58 55 60 60 63 65 68 70 68 66 64 65
40 42 44 43 42 42 43 43 43 44 46 48 49 49 49 49 50 51 53 55 55 56 56 59 62 60 60 61 60 53 55 61 59 59 65 64 65 68 69 68 67 69 69
45 45 45 45 45 46 46 45 45 44 44 44 43 44 45 43 41 45 52 55 58 59 59 58 55 57 59 54 54 60 60 60 64 69 66 71 72 70 68 69 71 71 69
46 46 46 47 47 47 46 45 45 45 46 48 49 49 49 48 48 49 50 54 57 57 53 51 52 53 54 57 61 64 68 70 68 70 72 74 73 71 69 69 71 70 66
44 44 46 47 48 49 49 50 49 48 49 50 49 51 52 53 54 55 55 55 58 61 63 65 64 66 68 71 71 69 70 72 74 74 75 75 75 73 72 72 72 68 66
49 49 51 53 54 53 52 51 49 51 53 54 55 57 59 62 63 63 63 63 64 65 67 69 71 72 73 72 73 74 75 76 77 77 77 76 75 73 72 72 70 68 66
55 55 56 57 58 59 58 55 55 56 58 60 62 63 64 65 66 68 68 70 71 71 73 74 75 76 77 78 79 78 78 78 78 78 76 74 73 75 73 70 69 68 66
57 59 60 60 60 60 61 62 63 65 66 67 69 71 71 72 73 73 74 74 75 76 77 78 78 79 80 80 81 82 82 81 79 77 75 74 75 74 72 71 71 68 64
61 63 63 64 64 65 67 68 69 70 72 74 75 76 77 78 79 81 81 82 83 83 83 83 83 83 83 83 84 84 83 83 81 79 77 76 74 72 70 69 68 69 67
68 69 70 69 71 73 74 77 78 78 78 79 80 81 82 85 86 86 87 87 87 86 85 85 85 85 84 84 83 83 83 83 82 81 80 79 78 77 75 72 70 67 65
75 75 75 75 77 79 81 82 84 85 87 89 89 89 90 91 91 92 92 90 88 88 86 84 82 81 81 80 80 81 82 82 82 82 81 80 79 76 73 70 69 69 66
78 80 81 80 82 84 85 87 89 90 91 94 97 96 95 95 95 94 93 91 89 86 86 85 83 82 81 80 79 78 79 80 82 83 84 83 80 75 71 69 66 63 61

GFSGL_500_spd_111.txt.gz
Wind_Speed
27 28 30 32 37 42 46 50 51 51 51 52 53 56 56 57 59 59 58 58 60 58 59 60 57 63 65 65 65 65 63 62 59 57 55 57 57 56 56 59 61 62 61
34 35 36 37 39 41 45 48 51 54 54 56 57 58 59 61 64 63 61 60 59 60 60 60 59 55 63 66 66 64 63 60 59 57 57 55 56 55 55 58 60 59 60
38 38 39 40 40 40 43 50 51 55 56 59 60 61 62 63 66 67 66 65 64 64 63 66 65 59 63 63 62 61 61 59 57 56 56 56 56 57 60 56 54 60 59
40 40 42 44 46 46 46 46 50 54 56 58 60 60 62 63 65 67 67 66 64 65 64 65 65 63 60 63 64 65 63 59 55 56 55 54 57 61 54 53 56 60 58
48 48 50 50 50 49 51 53 55 56 57 60 61 63 64 67 68 68 69 65 65 68 65 62 60 55 60 56 68 56 53 58 57 56 57 56 60 57 54 57 57 59 58
52 54 54 55 55 56 55 53 55 58 59 60 63 65 67 69 68 61 57 57 57 58 62 63 65 69 67 67 55 56 54 52 61 59 57 61 57 57 57 59 58 59 63
52 53 55 57 58 59 58 59 59 60 62 63 65 65 65 64 61 57 56 57 62 65 66 66 66 67 66 63 56 59 57 57 58 59 63 60 58 57 60 59 58 63 63
54 55 55 55 55 55 56 56 57 58 60 61 60 60 60 58 57 59 63 64 65 64 64 63 54 59 61 48 65 65 61 66 64 65 60 58 58 58 63 60 62 65 62
56 56 55 55 56 56 58 58 60 60 60 60 59 58 58 58 57 57 59 61 60 60 61 57 52 51 51 63 61 68 69 66 61 60 63 60 62 63 63 62 65 63 58
49 50 51 52 53 54 56 56 57 58 59 58 58 58 58 58 58 59 60 63 62 64 61 59 58 52 66 70 68 65 62 60 68 62 59 62 60 66 65 66 64 58 52
47 48 50 52 54 55 56 57 56 57 57 59 60 60 60 61 64 62 59 58 60 62 65 65 55 53 58 59 62 59 60 60 57 60 61 60 67 67 67 63 57 53 56
43 44 46 47 49 51 51 51 51 53 55 56 57 58 59 60 59 59 53 49 49 45 58 44 58 51 58 60 59 60 65 67 67 67 65 69 68 69 64 58 52 53 57
37 37 38 39 40 41 42 43 45 46 47 47 47 48 50 52 53 52 50 45 43 41 42 45 53 58 54 55 57 61 66 67 66 66 70 69 68 65 60 53 54 58 60
34 34 34 35 36 37 38 40 41 42 44 44 44 44 45 46 45 45 46 45 45 45 46 48 49 52 57 60 57 65 66 65 68 70 71 69 65 56 53 56 60 64 64
33 33 32 32 34 37 39 39 40 41 41 42 44 45 45 44 43 43 43 44 45 45 43 42 45 49 53 56 59 61 64 67 66 67 65 60 58 61 63 64 66 66 63
33 34 36 37 38 38 39 40 40 41 40 40 41 42 41 43 41 40 39 40 42 43 47 49 51 51 54 56 60 63 65 65 63 61 59 61 65 67 69 71 68 68 68
35 36 36 36 38 39 39 39 39 40 40 41 44 46 45 45 45 44 44 44 43 44 45 47 49 51 54 57 60 61 62 66 68 65 66 68 71 73 72 70 69 69 67
42 42 43 42 43 43 43 43 43 43 44 44 46 47 47 48 49 50 50 52 53 53 54 55 57 58 60 62 65 68 70 72 73 74 74 73 73 73 73 74 74 71 69
46 45 45 47 47 48 49 49 49 49 51 50 50 50 49 50 52 54 55 57 58 59 62 62 64 66 68 70 72 74 75 75 75 76 76 77 78 78 78 77 76 74 71
53 52 51 53 54 55 56 55 55 57 56 57 56 55 56 59 59 61 64 65 66 68 70 71 72 73 73 73 73 74 75 77 78 80 80 80 80 80 80 80 78 75 72
58 58 59 59 59 58 59 59 59 60 61 63 64 63 64 65 68 67 70 73 73 74 76 77 79 80 80 81 81 81 81 81 81 81 81 81 82 82 83 82 79 75 73
63 64 63 63 64 64 64 64 63 64 65 66 68 68 70 72 73 76 78 80 81 82 82 80 83 84 87 87 87 87 86 83 82 82 82 82 83 82 81 80 79 77 75
65 66 68 67 68 68 69 68 69 71 72 73 73 74 75 77 79 82 83 84 86 87 88 88 89 89 90 90 90 89 86 84 83 82 81 81 82 81 81 80 78 77 75
70 71 71 72 74 73 74 76 77 78 79 80 81 82 82 84 85 87 88 89 90 90 90 90 90 91 92 91 88 85 83 82 80 80 80 80 82 83 83 82 80 77 76
74 75 78 78 79 80 80 80 81 82 84 86 88 90 91 91 91 91 93 93 94 93 92 93 94 93 92 89 85 81 78 76 75 75 73 74 75 76 76 75 72 70 69
82 83 83 83 84 84 85 86 87 88 89 91 91 92 94 96 97 96 95 96 97 96 96 95 93 90 87 84 78 72 68 64 61 61 58 52 47 44 45 47 51 54 54

GFSGL_500_spd_114.txt.gz
Wind_Speed
25 27 28 31 34 36 37 37 40 44 47 49 52 54 56 57 58 60 60 60 59 60 60 62 61 61 63 63 62 64 58 62 62 64 66 61 64 62 60 57 55 54 58
31 31 32 35 37 38 41 43 45 47 49 50 52 54 56 58 59 60 62 61 60 61 62 65 67 69 66 63 58 62 70 61 63 65 66 60 60 56 56 58 54 60 58
36 37 38 40 41 43 43 44 46 49 51 52 54 56 58 60 60 59 60 63 64 64 66 67 67 64 61 60 60 61 58 67 68 65 57 70 56 59 56 58 58 59 57
41 42 43 45 45 45 46 47 49 49 50 51 51 53 56 57 58 59 62 65 68 70 70 68 65 61 59 57 59 54 66 65 68 64 66 51 55 57 56 56 58 59 58
44 45 45 45 47 49 51 52 53 52 53 52 53 54 56 59 62 63 63 65 66 66 65 65 64 60 58 59 48 66 66 65 62 61 70 62 54 58 55 56 57 57 56
49 50 51 53 54 55 54 55 56 57 58 59 59 60 61 61 62 63 64 64 63 61 58 57 56 56 57 57 56 61 58 59 61 53 64 60 54 58 61 56 59 55 62
54 54 52 52 51 52 53 54 56 57 58 58 58 59 59 60 61 63 63 62 60 57 53 55 56 58 58 53 56 53 49 57 63 63 51 59 65 57 54 55 56 58 65
53 50 51 52 53 54 54 53 52 52 54 55 56 57 58 60 62 63 63 62 59 55 55 53 54 57 61 60 62 59 53 55 59 55 64 62 61 57 54 54 57 62 66
51 51 51 52 52 52 53 53 55 56 56 56 56 58 59 61 61 62 61 60 59 58 59 59 58 57 57 57 59 57 59 56 59 60 64 66 62 59 59 58 59 64 67
45 47 48 49 49 50 51 53 54 55 56 57 59 59 59 58 59 56 55 55 52 52 51 53 53 51 52 58 49 50 57 58 53 58 63 63 59 60 58 57 61 64 66
44 45 45 46 47 48 49 50 51 52 53 51 50 50 51 51 52 51 51 51 48 48 49 49 49 49 48 52 45 45 56 53 55 55 58 59 58 69 68 62 65 64 67
44 45 45 45 44 43 43 43 42 43 44 46 46 47 47 46 44 44 45 45 46 45 47 46 47 46 46 50 50 51 51 52 60 60 59 58 66 65 64 70 68 70 69
38 39 39 40 41 41 42 43 43 43 43 42 40 40 40 39 38 37 39 40 40 42 43 43 43 44 45 46 48 51 53 56 58 57 58 62 63 65 68 69 67 65 63
35 36 36 37 37 37 37 36 36 35 36 38 37 36 35 35 34 34 35 37 37 38 39 40 40 43 45 46 48 50 52 53 56 59 60 63 64 63 62 60 61 61 59
30 32 33 34 35 35 35 35 34 32 32 32 33 33 34 35 36 35 35 37 39 41 43 44 46 47 48 50 50 53 54 55 58 59 60 62 63 64 66 66 67 67 68
29 30 30 31 31 32 33 33 35 35 36 38 37 38 38 40 41 42 43 43 44 46 47 47 48 50 52 55 56 58 60 61 61 62 63 65 67 69 70 71 71 71 71
33 34 35 36 36 37 38 39 42 42 41 41 42 42 43 43 44 45 45 47 48 50 51 51 52 54 55 58 60 61 62 65 67 70 72 71 71 72 74 75 76 77 77
40 40 41 42 43 44 45 46 47 47 47 47 47 48 49 48 49 49 51 52 53 54 56 57 59 60 62 64 65 66 67 68 69 70 71 72 73 74 75 76 77 78 78
48 48 46 47 48 49 50 51 50 51 52 54 55 55 55 56 57 59 59 60 61 61 62 64 66 67 67 70 71 72 73 74 75 76 77 78 79 80 79 80 79 79 80
53 53 55 54 54 55 57 57 57 58 59 60 61 60 61 61 62 63 64 65 66 68 70 71 73 74 74 76 78 79 79 80 79 81 82 83 84 84 83 83 82 82 81
56 58 59 62 64 62 60 61 63 64 64 64 66 66 67 67 68 69 70 71 73 74 76 77 77 79 81 83 83 83 83 83 85 86 86 87 86 86 84 83 83 82 80
61 62 64 65 68 68 67 68 69 69 70 70 71 72 72 73 74 75 76 77 78 78 80 81 82 84 87 88 88 87 88 88 89 88 88 88 87 86 84 84 83 81 81
66 68 70 71 72 74 74 73 72 73 74 75 76 76 78 80 81 82 83 82 83 84 86 88 89 89 89 89 89 90 90 90 90 89 88 85 82 81 80 80 80 79 78
72 74 75 77 77 77 78 77 77 77 79 82 83 84 86 88 87 88 89 88 88 89 90 90 90 91 93 92 93 94 94 93 89 85 80 77 76 78 77 75 72 70 67
78 79 79 79 80 81 82 83 84 85 87 87 89 90 92 93 93 93 92 90 90 91 92 93 93 95 94 95 96 94 89 82 77 74 71 69 68 65 62 59 52 42 37
82 83 85 87 88 90 90 91 92 93 93 95 95 95 95 95 94 93 93 93 94 95 95 96 97 96 95 92 88 84 78 72 64 62 60 58 53 47 42 38 36 36 37

GFSGL_500_spd_117.txt.gz
Wind_Speed
34 33 34 37 39 35 28 28 34 39 44 47 48 50 52 53 54 56 56 58 60 60 61 60 60 59 61 64 66 64 65 58 60 57 57 47 57 62 61 57 60 55 58
39 34 33 33 35 38 41 43 44 43 43 44 47 49 49 51 51 52 52 54 57 58 59 58 57 61 62 63 65 65 60 60 62 58 61 58 57 64 61 65 62 65 61
44 42 39 38 39 41 43 44 45 46 47 48 48 49 49 49 50 52 52 53 55 55 57 58 60 61 63 63 53 62 59 57 65 57 65 63 62 62 64 65 60 57 51
41 42 44 43 43 44 46 48 49 50 52 53 52 53 51 51 51 51 52 53 54 55 58 60 61 62 62 61 57 57 51 54 61 60 65 66 60 58 60 66 57 55 55
46 46 47 47 48 49 49 51 53 54 55 55 55 55 55 56 56 55 54 54 55 57 58 61 62 62 59 59 57 57 57 57 56 53 67 56 58 60 63 61 53 48 47
46 47 48 49 50 50 52 54 56 58 56 55 55 56 57 56 55 54 55 54 56 58 60 61 62 62 60 58 57 57 58 57 56 57 57 55 57 56 60 48 53 50 44
48 49 51 52 52 52 54 58 56 54 54 55 55 54 53 53 54 55 56 57 59 61 62 61 60 58 58 56 56 55 57 58 59 58 58 58 54 59 60 58 61 55 49
46 47 48 50 52 54 56 56 54 54 53 52 52 52 53 54 55 57 58 59 59 58 56 55 55 52 52 53 53 52 54 53 55 56 52 48 53 64 64 53 56 55 51
44 45 45 47 49 50 51 50 49 50 51 51 52 53 54 55 55 57 56 52 51 49 48 46 43 43 43 43 45 46 45 47 47 42 42 52 51 52 57 59 62 63 61
47 47 51 54 55 52 51 51 51 51 51 52 53 53 53 52 49 48 48 48 48 47 42 40 38 38 38 39 41 42 44 45 43 47 53 49 54 58 60 61 65 64 60
48 50 51 52 51 52 51 51 52 52 52 49 45 45 44 43 44 43 42 40 40 38 37 36 33 30 29 32 33 35 37 38 40 45 49 52 54 56 59 60 62 63 65
48 49 49 50 50 49 50 50 47 45 44 44 43 42 43 44 42 41 39 37 35 31 29 30 30 30 31 31 30 31 33 35 37 41 44 48 51 55 59 62 65 67 66
46 47 47 48 49 47 46 45 43 43 42 42 41 41 40 38 39 41 38 33 31 31 32 32 33 36 37 38 41 42 42 45 47 48 50 54 57 60 63 65 64 64 65
45 46 45 44 43 41 40 40 39 39 39 40 40 39 38 39 38 37 36 35 36 39 41 40 42 43 43 45 48 50 50 50 52 54 56 59 61 63 65 65 67 69 70
43 43 41 38 35 35 36 37 39 40 40 40 39 38 39 40 41 42 42 43 44 44 46 46 47 48 50 51 52 53 54 56 58 60 62 63 65 67 66 68 69 69 68
40 38 37 33 31 31 32 34 35 36 37 39 41 42 45 47 47 47 47 47 47 48 50 51 52 53 53 54 55 57 58 60 62 63 65 66 66 67 69 69 71 72 72
38 37 36 35 34 35 37 40 43 44 44 45 46 47 49 50 51 50 50 52 53 54 55 56 58 59 60 60 61 62 64 66 67 69 69 70 71 72 73 74 74 75 76
39 39 39 41 42 44 46 48 49 48 49 51 53 53 54 55 55 56 56 57 58 59 60 61 62 64 66 67 68 69 69 70 71 72 73 75 77 78 79 80 79 80 81
41 40 42 46 47 48 49 50 52 53 54 55 55 57 59 60 61 62 63 63 64 63 64 66 67 69 71 72 74 75 77 77 77 78 79 80 82 82 81 81 83 84 85
44 46 49 51 52 52 54 55 56 57 58 59 60 62 64 65 65 66 68 69 68 68 69 69 70 72 73 76 78 79 81 81 83 84 85 85 84 84 85 86 87 86 85
49 51 52 54 57 60 62 61 60 61 62 63 65 66 68 70 71 71 71 72 73 73 73 74 75 78 79 81 82 84 87 88 88 87 87 86 87 87 88 88 87 86 84
55 57 59 60 62 63 64 64 65 66 67 69 70 72 73 74 75 76 76 77 77 79 82 83 85 85 87 87 90 89 87 86 86 87 88 90 91 91 91 89 85 83 79
59 60 62 63 65 67 68 69 71 72 74 75 77 78 79 81 81 82 81 83 85 87 89 91 93 92 92 92 91 90 90 91 92 93 95 95 93 90 85 80 77 74 74
62 65 67 69 71 73 74 75 76 79 81 82 83 83 85 87 88 90 91 93 96 96 96 95 94 95 94 94 93 94 95 96 97 97 95 93 89 83 76 70 67 66 65
68 71 73 74 76 78 79 81 82 84 86 88 90 92 93 94 96 99 100 98 94 93 94 95 93 93 93 94 96 97 98 98 95 91 87 83 77 69 62 61 56 52 47
75 77 80 82 84 86 88 90 92 94 95 96 97 99 101 100 96 96 96 94 94 94 94 95 96 98 98 98 97 96 93 89 84 79 72 66 61 56 53 48 44 41 40

GFSGL_500_spd_123.txt.gz
Wind_Speed
45 41 40 40 39 38 38 40 40 42 40 42 44 47 49 52 54 55 51 48 48 52 50 47 47 48 50 50 50 48 48 49 51 52 43 54 52 55 54 54 51 55 51
48 48 46 46 45 45 45 45 44 44 43 42 43 43 44 43 47 45 48 52 54 50 47 48 47 48 49 50 50 50 50 51 50 50 59 60 54 55 53 52 57 54 54
53 52 51 51 51 50 50 50 48 47 47 43 42 45 50 51 50 51 53 53 49 49 48 48 49 50 51 51 51 52 53 54 55 55 55 54 49 46 55 53 52 52 52
59 58 56 55 54 53 54 53 53 51 50 51 49 48 49 51 52 52 51 49 48 48 48 50 53 54 52 53 54 54 54 53 52 52 52 49 49 49 49 48 45 44 45
61 60 60 60 58 57 56 56 55 54 53 53 53 51 51 52 52 50 49 48 48 49 49 53 56 54 54 55 55 53 51 51 51 48 45 44 42 41 40 37 38 39 32
63 62 60 60 61 61 60 59 57 55 54 52 50 50 49 49 50 49 49 49 50 51 52 53 55 55 54 54 53 52 50 47 44 44 41 39 37 33 33 33 34 30 33
59 58 57 56 57 58 59 57 55 53 51 50 49 48 49 49 49 50 50 49 52 53 53 54 57 53 53 52 52 48 46 43 40 42 40 36 33 33 33 32 35 35 35
56 56 58 58 55 55 55 55 54 52 51 50 49 49 50 50 51 51 51 52 53 53 53 53 51 52 51 49 46 43 41 41 41 40 37 36 35 35 35 34 37 36 40
54 55 55 52 56 53 52 54 54 53 52 51 51 51 52 52 52 51 52 53 49 51 51 51 50 50 48 46 43 42 41 42 40 40 39 38 38 39 39 41 43 47 50
52 55 58 59 59 59 58 56 55 56 55 53 52 53 53 50 49 54 57 47 48 50 48 48 48 45 44 43 40 41 42 41 40 40 41 43 44 45 47 49 48 51 51
54 54 56 55 54 54 55 53 56 56 55 54 55 56 56 57 60 50 46 48 50 49 48 48 46 45 42 42 43 45 44 43 42 43 44 44 46 48 49 50 53 53 53
51 53 56 56 57 54 55 55 57 57 53 53 54 58 56 46 42 46 48 48 48 47 44 44 43 43 43 41 41 42 44 45 45 48 50 49 51 51 53 56 57 58 61
53 54 55 58 59 56 57 56 57 57 58 55 48 43 45 46 48 48 48 45 42 42 43 43 41 38 38 38 41 43 45 48 52 51 51 53 55 56 59 60 63 65 67
55 57 59 59 61 62 61 59 56 54 51 44 46 47 47 50 48 46 43 43 42 41 40 40 39 40 42 44 46 48 50 51 52 54 55 57 59 62 63 65 66 67 68
55 56 58 58 59 65 69 67 62 53 48 47 46 47 48 47 45 45 45 44 44 42 42 42 42 43 46 48 50 51 54 56 57 57 58 61 64 64 65 67 67 69 68
49 51 54 58 59 62 59 60 56 49 45 46 47 47 46 46 47 46 45 47 45 46 48 48 48 49 51 54 57 57 58 59 59 61 63 65 66 68 69 69 70 71 71
51 53 56 58 63 60 51 50 47 45 46 46 45 45 47 48 46 46 47 47 48 49 50 52 53 56 59 61 62 62 62 63 64 66 67 67 69 69 69 71 73 76 80
51 54 60 60 54 48 46 46 46 44 43 45 47 47 46 46 46 47 50 52 53 55 57 58 60 61 62 61 62 64 65 66 67 68 69 70 71 74 76 80 81 81 82
56 50 49 46 44 46 47 47 45 43 46 48 49 48 48 49 52 54 56 58 59 61 61 63 63 62 61 62 63 64 66 69 71 73 76 78 80 81 81 81 81 82 82
50 45 45 46 49 50 50 48 47 47 49 49 50 51 52 54 58 61 62 63 64 66 65 64 65 64 64 64 67 69 71 73 76 78 81 82 82 81 82 83 84 84 85
45 45 48 51 53 53 52 52 51 52 53 54 55 57 59 61 63 66 67 68 69 68 66 67 69 68 69 71 74 77 79 81 82 82 82 84 86 87 88 88 89 89 90
48 49 51 52 52 52 54 55 57 57 57 58 60 62 64 66 69 70 70 69 69 69 70 71 73 74 75 77 80 82 84 86 86 88 90 90 89 90 90 91 91 91 90
49 51 52 53 53 55 56 57 57 57 59 60 62 64 65 66 67 69 70 71 72 74 76 78 79 81 83 85 86 87 89 90 90 91 92 93 92 92 93 91 90 87 83
56 58 60 61 62 64 64 64 65 66 67 68 69 69 70 72 74 75 76 78 80 82 84 85 86 87 87 89 91 92 93 94 94 95 94 94 92 90 88 85 82 78 73
63 65 66 68 69 70 71 72 73 74 74 75 76 77 78 80 82 83 85 86 87 88 89 89 90 91 92 93 93 95 97 96 96 96 93 89 85 82 79 76 73 67 63
68 69 71 73 75 75 76 76 77 78 80 82 83 86 87 88 88 88 89 90 90 91 92 93 94 95 96 95 97 97 96 94 90 87 83 79 76 76 74 70 68 64 60

GFSGL_500_spd_129.txt.gz
Wind_Speed
58 58 56 55 55 53 52 52 51 51 51 51 51 51 52 52 51 50 50 50 49 49 50 52 55 57 56 56 56 51 53 56 58 55 52 51 51 46 51 54 52 50 44
61 60 61 60 59 58 58 58 59 59 59 58 57 58 58 57 58 58 57 56 56 55 52 54 57 58 59 57 58 58 58 57 58 54 50 51 51 48 51 54 49 43 40
68 68 68 67 64 64 65 65 65 64 64 64 63 62 62 63 63 63 63 62 60 59 56 54 57 60 59 58 60 59 59 57 56 50 52 59 43 46 52 49 45 42 38
71 71 70 68 68 70 70 69 69 68 67 66 66 65 64 63 63 62 60 61 61 61 61 59 56 59 61 62 61 62 53 56 51 55 61 56 44 52 49 45 41 40 39
62 65 67 68 67 69 71 68 65 66 65 62 62 62 62 62 62 62 62 62 61 62 62 60 58 58 58 59 58 56 56 52 54 57 62 51 50 50 47 44 42 42 41
52 52 55 59 61 60 62 65 67 70 71 68 67 64 62 62 61 59 59 59 59 59 58 57 55 55 55 57 54 54 53 52 59 64 54 46 50 49 46 44 44 43 40
50 50 50 49 48 48 47 48 51 56 58 59 60 61 58 56 53 52 53 52 52 52 53 52 52 53 52 52 53 52 51 57 62 61 47 48 50 49 47 46 44 42 43
55 55 51 47 44 44 43 44 46 48 51 53 53 52 51 47 46 45 46 48 48 49 51 51 52 53 53 54 53 52 55 58 59 45 48 50 49 47 46 42 41 42 42
50 51 47 45 42 41 42 44 44 45 46 47 48 50 51 50 50 51 50 50 52 52 51 52 54 54 53 54 54 56 58 55 46 49 49 49 46 44 44 42 41 40 40
48 51 51 48 45 47 49 48 50 50 49 49 50 52 54 56 56 54 51 51 50 49 50 52 53 54 53 53 58 62 51 44 49 51 48 45 44 43 42 41 40 42 44
56 53 54 55 55 54 53 51 51 51 53 54 53 53 54 53 53 52 51 50 51 53 51 52 56 57 59 62 61 49 44 49 51 49 46 44 46 42 40 40 41 43 47
53 56 56 58 60 62 62 58 54 53 54 54 55 56 54 52 50 50 49 48 49 52 54 56 62 63 63 61 49 45 49 52 48 46 45 45 42 40 40 42 45 48 50
56 57 58 57 57 57 58 58 57 59 58 57 56 54 54 55 54 53 51 48 48 50 54 55 59 64 55 47 46 50 50 48 46 46 43 41 41 43 45 46 50 53 55
57 56 57 58 58 57 58 59 60 61 61 59 56 54 54 54 55 55 53 51 52 54 55 56 58 55 51 47 48 48 48 46 45 44 43 43 45 47 50 52 54 55 57
59 59 58 59 58 58 57 58 59 60 61 59 56 56 58 55 53 52 52 52 53 55 57 56 54 50 48 46 45 45 46 45 45 45 45 46 48 50 52 54 56 58 59
63 62 61 59 59 59 59 59 59 60 63 62 58 56 56 55 54 52 52 56 56 54 54 53 51 49 45 45 46 47 46 46 47 47 48 50 52 54 56 57 59 60 61
64 64 63 60 62 59 56 54 53 57 59 58 57 55 54 51 50 55 55 55 52 51 49 48 48 47 47 48 49 49 48 49 51 53 55 56 57 57 58 59 60 61 63
65 67 65 63 62 57 61 60 59 61 60 58 57 56 51 51 55 53 52 51 50 48 47 47 47 49 50 50 50 51 51 53 55 57 58 59 60 60 60 61 63 66 68
61 64 63 64 68 63 60 63 60 61 63 60 59 62 62 56 52 52 52 51 50 49 49 47 48 50 52 53 54 54 54 55 56 58 59 60 61 62 64 66 68 70 72
57 59 61 63 62 67 65 62 62 62 60 63 67 66 56 52 53 53 53 53 51 51 51 51 50 50 52 54 55 55 56 57 58 60 62 63 65 67 69 71 73 75 77
55 60 61 63 64 66 61 57 61 60 60 61 60 56 55 55 54 55 55 55 55 54 54 54 54 55 56 58 59 60 62 63 64 66 68 69 71 73 75 77 79 79 80
51 55 59 57 59 61 61 60 56 55 56 57 57 59 58 58 58 60 61 61 62 62 63 64 63 63 64 66 67 69 71 72 73 74 76 77 78 79 81 81 81 82 84
58 58 59 57 55 57 56 55 52 52 54 59 60 60 63 64 65 67 67 67 68 70 71 71 72 72 73 73 75 76 77 78 79 80 81 82 83 84 84 83 83 84 85
50 50 52 50 50 50 50 52 55 55 58 61 63 65 67 69 71 73 73 73 74 76 78 78 78 78 79 80 81 82 82 82 84 84 85 87 86 84 84 84 85 85 86
45 47 49 50 53 56 56 57 59 61 64 67 70 72 73 75 77 78 79 79 79 80 82 82 82 82 83 84 85 86 86 86 86 86 86 85 85 85 86 86 86 86 86
44 47 50 52 54 58 60 63 64 66 69 71 73 75 76 78 79 80 81 82 82 83 83 84 85 86 87 87 87 87 86 86 86 87 88 88 89 89 90 90 88 86 81

GFSGL_500_spd_132.txt.gz
Wind_Speed
59 59 59 58 58 56 57 57 58 57 56 55 54 53 52 53 53 54 55 55 55 53 52 52 52 52 54 53 52 52 54 59 54 55 54 54 56 54 51 52 54 58 52
64 62 62 62 63 63 63 63 63 62 62 61 60 60 59 59 59 59 60 61 61 60 58 58 58 57 56 54 53 53 55 55 57 55 52 53 57 51 51 54 56 59 48
65 64 64 65 65 66 66 66 67 66 65 65 65 64 64 63 61 60 60 59 59 60 59 58 56 56 55 55 55 56 56 54 57 54 55 57 49 48 53 55 57 52 46
65 68 69 70 70 69 68 68 68 68 69 69 68 67 66 65 64 65 63 59 57 57 57 57 57 57 56 55 55 55 56 55 53 51 53 49 49 52 53 54 60 48 47
58 62 64 63 63 65 64 61 61 62 63 64 64 65 65 65 64 62 62 61 59 57 57 56 57 56 54 52 51 51 51 51 54 55 52 51 51 55 53 59 52 43 47
51 54 57 57 53 51 51 51 51 51 53 56 57 58 59 59 59 58 56 54 55 54 53 52 51 51 51 50 50 50 51 52 53 53 53 52 54 55 58 58 44 47 46
51 51 53 53 54 52 49 48 47 45 43 43 43 45 46 48 49 49 49 49 47 45 45 44 45 46 47 48 49 50 52 53 55 56 55 56 57 54 61 54 46 47 45
55 51 51 53 54 55 55 55 52 47 44 44 44 44 44 44 45 46 47 47 45 43 42 45 47 48 50 50 51 52 54 56 58 58 57 57 60 63 57 46 47 45 43
57 56 53 52 52 52 52 51 50 48 44 43 43 43 44 44 45 47 48 49 50 53 54 52 52 50 49 49 50 53 55 57 58 58 60 62 63 58 45 47 46 44 43
59 59 58 56 54 53 53 53 49 48 48 47 47 47 49 50 50 50 50 52 53 53 50 47 47 47 47 46 47 50 53 55 58 61 61 65 57 46 46 48 46 44 44
61 61 60 60 59 57 56 55 55 53 52 53 54 53 51 53 52 50 50 50 50 49 45 43 43 44 45 46 48 49 53 56 58 59 64 52 45 46 47 45 45 44 41
56 60 60 58 56 55 55 56 57 58 59 60 60 61 61 57 56 55 54 52 51 50 49 48 47 46 45 47 49 52 55 58 63 60 51 47 45 45 44 46 45 43 42
57 57 58 57 57 57 56 54 53 56 59 62 61 59 58 58 59 59 58 55 53 52 50 48 47 47 47 47 47 50 53 54 52 50 47 46 45 46 48 47 45 45 45
60 60 60 59 57 56 55 54 55 54 55 56 59 59 58 58 59 62 60 57 56 54 55 52 47 46 49 50 52 54 55 55 54 50 48 45 45 46 47 47 47 47 47
61 61 62 61 60 58 55 55 55 55 54 53 53 55 58 61 61 62 60 59 59 57 53 51 48 47 48 52 53 53 53 55 52 48 45 45 46 47 48 48 47 47 49
65 64 63 62 61 61 60 58 56 55 55 56 56 57 60 61 61 61 61 60 60 57 53 50 49 50 50 50 49 51 53 53 51 48 47 47 48 48 49 49 52 53 55
63 63 64 64 63 62 63 61 58 59 60 57 57 59 60 58 57 58 61 62 60 57 51 49 51 50 49 49 49 50 51 51 50 50 50 51 51 52 53 54 55 56 57
61 62 63 63 63 63 63 65 65 64 62 63 61 63 68 65 62 62 59 62 62 56 56 55 52 50 50 49 48 49 49 50 50 50 50 50 51 52 53 55 56 57 58
56 58 61 62 62 62 63 66 67 67 61 65 66 66 60 59 62 65 64 63 68 68 64 54 52 52 52 50 48 49 50 50 51 52 53 54 54 54 54 55 57 58 60
48 51 52 52 52 54 57 60 63 60 65 64 68 66 63 64 66 67 64 66 65 62 54 53 56 56 53 52 51 50 51 53 54 54 55 55 56 57 60 62 64 66 67
46 45 47 48 49 51 53 55 59 60 63 72 64 66 67 68 64 62 59 60 57 59 59 57 58 58 58 58 58 58 59 60 61 61 61 62 63 64 66 68 69 70 72
48 48 47 48 53 54 57 60 61 61 63 66 69 71 62 61 61 61 60 61 63 64 63 62 62 63 64 65 67 68 68 68 68 69 70 70 71 72 73 74 75 76 76
42 41 40 44 48 51 56 59 62 64 65 66 64 59 58 59 60 60 61 64 66 66 66 67 68 69 70 71 72 73 74 75 75 76 76 77 77 78 79 79 79 80 80
32 33 36 38 40 42 45 46 49 50 52 52 54 57 57 58 60 61 64 66 68 68 69 71 72 73 75 76 77 78 78 79 79 80 81 81 82 82 83 83 83 83 83
27 28 30 32 34 36 38 40 42 44 48 50 51 54 56 58 61 63 64 65 68 70 72 74 76 77 77 78 79 80 81 81 82 82 83 84 84 85 85 86 85 84 83
25 26 28 30 32 34 36 38 41 43 46 48 49 53 55 58 60 63 66 69 71 72 72 73 75 75 77 78 80 80 82 83 85 86 86 86 86 86 86 86 86 86 86

GFSGL_500_spd_135.txt.gz
Wind_Speed
56 56 56 58 58 58 59 60 60 61 61 59 58 58 57 56 56 56 56 56 55 55 55 54 53 50 51 52 52 53 52 51 48 45 47 47 47 47 50 51 53 49 53
54 55 56 58 59 59 59 61 61 62 64 64 63 63 62 62 61 60 59 59 59 59 59 58 57 54 51 51 52 49 50 51 51 49 49 48 49 50 52 52 49 50 49
52 54 57 58 58 59 58 59 60 61 62 64 65 66 65 64 63 61 60 60 61 60 60 58 56 55 52 52 52 51 51 50 49 50 47 51 54 49 50 48 50 48 46
51 52 55 57 59 60 60 60 60 60 62 63 64 65 66 66 66 65 63 61 60 60 60 59 58 55 55 54 53 53 51 50 48 45 51 55 52 52 53 51 50 50 51
50 52 53 55 57 59 61 60 57 57 58 58 56 58 61 63 63 62 62 61 61 60 59 57 57 56 55 54 54 53 50 42 49 51 55 51 51 51 50 50 52 53 53
55 56 55 54 53 54 56 57 57 57 55 52 51 50 51 53 54 55 56 55 53 53 52 51 51 51 50 50 50 49 47 48 48 50 50 50 52 51 52 53 54 53 51
55 56 58 61 60 59 56 54 54 53 50 50 49 47 46 46 45 44 43 43 43 43 43 43 44 45 42 42 45 46 48 49 51 52 52 52 52 52 54 52 53 56 57
55 57 57 58 59 60 58 57 56 54 52 50 49 48 47 46 46 45 43 43 43 43 43 43 45 46 47 47 48 48 49 51 52 51 52 53 52 50 51 52 53 54 58
57 56 58 57 58 56 58 58 58 56 53 50 48 47 46 47 47 45 43 43 44 45 46 47 49 50 52 53 52 49 48 47 48 49 49 49 50 50 49 50 51 56 55
57 57 57 57 58 57 57 58 59 59 57 54 51 49 48 47 47 46 45 46 45 46 46 49 51 50 49 48 48 46 45 46 48 48 47 48 49 50 52 54 55 57 46
60 58 56 57 57 58 59 59 58 60 61 60 57 53 51 51 52 52 50 51 53 53 54 52 48 46 45 46 47 46 46 47 47 47 48 49 50 53 57 60 55 49 45
60 62 62 59 58 60 61 60 60 60 62 63 61 60 59 57 57 58 58 58 60 60 56 55 53 49 49 50 49 47 47 47 49 49 50 51 51 52 51 51 50 47 45
63 64 66 65 61 61 62 63 62 61 61 63 63 59 55 56 58 61 62 60 57 55 55 56 56 53 51 52 52 51 51 52 52 52 50 51 50 49 50 50 50 49 46
69 68 67 67 67 65 63 64 65 63 62 61 63 64 61 58 57 56 54 52 54 55 55 56 57 55 52 54 56 56 51 50 51 52 52 52 49 49 52 50 49 48 45
71 72 71 70 69 68 66 65 66 67 64 63 61 61 60 59 57 54 51 51 51 53 55 55 54 54 53 54 56 57 53 50 51 52 50 49 49 49 49 50 48 46 46
66 69 71 72 72 70 70 68 67 66 66 65 63 61 59 58 53 53 52 54 55 58 58 60 60 59 56 57 58 57 53 53 52 49 47 48 48 48 46 46 46 47 47
64 65 68 69 69 68 68 68 68 67 66 67 66 65 62 51 52 55 55 58 59 58 59 61 58 57 58 59 59 60 57 56 51 48 49 48 47 47 46 46 46 48 49
57 58 62 65 66 67 66 66 68 68 68 69 69 68 66 58 53 58 59 61 56 60 62 61 65 63 62 63 67 64 58 54 51 51 49 48 48 47 47 48 50 50 50
56 56 56 55 58 62 62 62 65 67 69 70 71 70 68 68 70 71 70 67 67 66 62 64 62 61 62 64 66 60 56 53 53 52 50 48 48 49 51 51 51 52 52
58 53 52 53 54 54 53 53 56 57 58 61 63 63 63 62 64 66 69 65 67 66 68 67 68 60 60 62 63 59 52 54 56 55 52 52 53 54 55 55 56 58 59
45 47 48 50 51 52 51 49 49 51 52 54 56 57 59 60 59 59 64 72 70 63 63 64 62 60 61 62 64 66 67 66 64 63 62 60 60 61 62 62 64 66 68
35 37 37 41 40 42 46 47 51 52 55 57 59 59 58 60 63 65 68 66 65 64 68 64 64 63 64 66 66 69 70 68 68 68 67 67 68 69 70 71 71 72 73
29 27 27 29 30 32 34 36 39 42 44 47 50 54 55 58 59 62 63 61 60 60 63 62 62 65 66 66 68 69 70 70 71 71 70 70 71 72 73 74 75 75 76
24 23 23 24 24 25 27 29 32 34 34 37 40 41 44 47 50 52 55 56 58 59 61 61 63 65 65 66 67 69 69 70 72 72 72 72 73 74 75 76 78 79 80
25 23 24 23 23 24 25 27 29 31 33 36 38 40 42 44 47 49 50 52 54 56 58 59 61 62 63 65 66 67 68 70 72 73 74 74 75 77 78 79 81 82 83
34 32 30 29 29 29 29 30 30 32 34 36 37 39 42 44 47 48 50 53 55 57 59 61 62 63 64 67 68 68 70 72 74 74 75 76 78 81 83 84 84 85 84

GFSGL_500_spd_138.txt.gz
Wind_Speed
45 47 50 48 46 49 50 55 53 52 54 54 56 57 57 58 57 57 57 56 56 57 57 57 57 57 54 52 52 52 52 52 53 50 49 45 46 48 50 51 53 52 46
41 44 47 48 49 50 50 49 51 54 52 53 55 56 58 58 58 59 59 59 60 61 60 60 59 57 58 56 54 54 54 52 54 52 47 47 49 49 53 52 52 41 46
42 42 44 47 50 50 51 51 51 50 51 52 53 55 56 58 58 59 59 59 59 60 61 62 61 60 60 58 57 56 54 54 54 53 53 51 50 51 57 52 53 50 48
44 46 46 47 48 51 52 53 54 54 53 53 54 55 56 58 58 58 59 61 61 62 62 62 61 61 60 59 58 57 55 55 55 55 54 52 48 53 56 50 50 48 46
47 48 49 50 51 52 53 54 55 55 53 51 50 51 54 56 56 58 59 60 61 62 63 63 62 61 59 58 58 56 56 54 54 53 54 51 48 59 56 54 52 50 51
54 53 54 55 54 54 54 54 57 58 57 57 54 48 51 51 52 53 53 54 56 58 58 56 53 52 52 49 49 48 48 48 47 48 49 49 47 54 56 56 55 54 56
57 59 61 60 59 59 61 60 58 58 57 57 58 56 54 54 54 51 50 49 49 50 50 48 46 45 45 44 46 47 46 46 44 44 46 46 50 52 53 55 53 54 53
62 63 65 65 63 63 63 63 62 60 59 58 59 57 55 56 58 56 52 52 51 50 49 48 47 45 44 44 45 47 49 49 50 51 52 50 50 49 51 51 53 55 53
63 64 65 67 67 67 66 63 61 60 59 59 60 59 58 57 58 57 56 52 53 53 52 51 50 47 47 47 49 51 52 54 54 51 50 50 49 50 51 52 53 53 52
65 65 66 66 67 66 66 65 61 59 59 60 58 61 61 59 59 57 57 57 54 55 54 52 50 49 46 46 46 47 48 51 50 48 48 48 49 51 53 53 54 55 53
67 69 69 70 69 69 69 67 67 63 60 59 60 61 62 63 63 62 61 59 58 56 55 54 54 54 52 52 53 53 51 48 47 47 48 50 52 53 54 55 54 54 54
70 72 72 72 71 71 70 70 70 68 65 61 60 62 65 64 65 65 64 64 64 61 60 61 60 59 58 59 61 55 50 47 48 49 50 53 54 53 54 54 53 54 54
72 73 73 74 75 76 74 72 71 72 72 67 64 63 64 65 65 66 66 65 64 67 69 66 65 63 63 63 59 52 50 50 50 49 51 53 55 55 55 56 55 55 55
80 83 77 75 74 74 77 77 75 74 73 72 69 66 67 66 64 65 65 66 66 65 64 66 66 64 61 55 54 51 49 50 50 51 54 56 55 58 57 57 58 59 57
78 74 72 71 68 69 72 74 75 76 75 74 72 71 69 68 67 66 66 65 65 64 65 64 60 57 56 50 51 52 50 48 51 53 54 53 53 54 54 58 60 58 53
76 72 68 65 64 62 66 69 73 74 74 75 74 73 72 70 69 68 67 67 66 65 53 55 59 57 51 49 54 53 54 55 55 54 54 57 56 58 59 59 59 55 50
77 68 62 60 58 56 57 59 62 67 71 74 75 74 73 72 70 68 69 66 64 65 60 56 59 59 58 53 54 56 58 55 59 54 55 61 63 58 58 56 54 53 51
75 64 59 56 53 52 52 51 53 54 56 60 68 71 72 73 73 71 71 71 67 60 55 59 61 59 62 63 60 60 60 66 60 58 61 60 58 55 57 54 56 55 53
69 62 56 53 49 49 50 52 54 56 55 54 55 58 62 64 68 69 69 68 67 64 66 65 60 54 56 58 59 56 57 57 58 62 61 60 58 55 56 54 56 56 55
61 56 48 42 38 39 40 43 47 50 50 51 53 56 55 56 58 54 59 62 62 63 64 73 74 71 63 61 63 64 66 65 61 60 61 60 57 58 61 63 61 60 60
49 46 41 35 33 35 35 36 38 43 49 51 50 52 52 54 51 56 55 56 57 60 61 63 66 64 68 68 63 64 68 65 63 65 65 66 66 67 71 71 68 67 67
46 43 39 33 32 31 32 32 31 32 34 36 39 42 46 48 52 55 56 58 60 62 62 60 63 65 65 65 66 63 66 67 67 66 68 69 70 70 71 72 72 71 71
45 42 39 34 31 30 29 29 28 27 28 28 29 31 35 38 41 43 45 48 51 54 56 55 58 61 62 63 65 67 67 67 67 67 68 71 70 70 71 72 73 73 73
45 42 37 35 32 31 32 31 29 28 28 29 29 30 31 32 33 35 37 40 42 46 48 52 53 56 58 60 62 64 65 65 66 65 67 69 68 68 70 71 72 72 72
41 40 37 35 33 33 32 33 32 32 32 32 32 33 32 33 35 37 40 42 44 46 48 50 52 54 56 58 60 62 64 65 66 67 67 69 69 68 70 71 72 72 73
36 35 32 31 30 29 29 30 30 31 32 33 34 35 36 39 39 41 43 44 46 48 50 52 54 56 58 60 61 63 65 67 68 70 70 71 72 73 74 75 77 78 78